<?xml version="1.0" encoding="UTF-8" standalone="no" ?>
<gpx xmlns="http://www.topografix.com/GPX/1/1" xmlns:xsi="http://www.w3.org/2001/XMLSchema-instance" xsi:schemaLocation="http://www.topografix.com/GPX/1/1 http://www.topografix.com/GPX/1/1/gpx.xsd" version="1.1" creator="VisuGPX - https://www.visugpx.com">
  <metadata>
    <name>Sortie VTT</name>
    <desc><![CDATA[Sortie VTT à Miribel Jonage]]></desc>
  </metadata>
  <trk>
    <name><![CDATA[2012.03.02]]></name>
    <trkseg>
      <trkpt lat="45.7716" lon="4.86626">
        <ele>212</ele>
        <time>2012-03-03T09:29:40Z</time>
      </trkpt>
      <trkpt lat="45.77161" lon="4.86629">
        <ele>215</ele>
        <time>2012-03-03T09:29:44Z</time>
      </trkpt>
      <trkpt lat="45.77168" lon="4.86629">
        <ele>216</ele>
        <time>2012-03-03T09:29:48Z</time>
      </trkpt>
      <trkpt lat="45.77179" lon="4.86628">
        <ele>214</ele>
        <time>2012-03-03T09:29:52Z</time>
      </trkpt>
      <trkpt lat="45.7719" lon="4.86625">
        <ele>213</ele>
        <time>2012-03-03T09:29:56Z</time>
      </trkpt>
      <trkpt lat="45.77201" lon="4.86613">
        <ele>200</ele>
        <time>2012-03-03T09:30:00Z</time>
      </trkpt>
      <trkpt lat="45.77225" lon="4.86615">
        <ele>187</ele>
        <time>2012-03-03T09:30:04Z</time>
      </trkpt>
      <trkpt lat="45.77245" lon="4.8662">
        <ele>180</ele>
        <time>2012-03-03T09:30:08Z</time>
      </trkpt>
      <trkpt lat="45.77261" lon="4.86629">
        <ele>180</ele>
        <time>2012-03-03T09:30:12Z</time>
      </trkpt>
      <trkpt lat="45.77276" lon="4.86636">
        <ele>179</ele>
        <time>2012-03-03T09:30:16Z</time>
      </trkpt>
      <trkpt lat="45.77295" lon="4.86644">
        <ele>177</ele>
        <time>2012-03-03T09:30:20Z</time>
      </trkpt>
      <trkpt lat="45.77313" lon="4.86655">
        <ele>175</ele>
        <time>2012-03-03T09:30:24Z</time>
      </trkpt>
      <trkpt lat="45.77327" lon="4.86668">
        <ele>176</ele>
        <time>2012-03-03T09:30:28Z</time>
      </trkpt>
      <trkpt lat="45.77343" lon="4.86682">
        <ele>178</ele>
        <time>2012-03-03T09:30:32Z</time>
      </trkpt>
      <trkpt lat="45.77358" lon="4.86696">
        <ele>180</ele>
        <time>2012-03-03T09:30:36Z</time>
      </trkpt>
      <trkpt lat="45.77371" lon="4.86712">
        <ele>182</ele>
        <time>2012-03-03T09:30:40Z</time>
      </trkpt>
      <trkpt lat="45.77381" lon="4.86727">
        <ele>191</ele>
        <time>2012-03-03T09:30:44Z</time>
      </trkpt>
      <trkpt lat="45.77387" lon="4.86745">
        <ele>190</ele>
        <time>2012-03-03T09:30:48Z</time>
      </trkpt>
      <trkpt lat="45.774" lon="4.86765">
        <ele>192</ele>
        <time>2012-03-03T09:30:52Z</time>
      </trkpt>
      <trkpt lat="45.77407" lon="4.86792">
        <ele>180</ele>
        <time>2012-03-03T09:30:56Z</time>
      </trkpt>
      <trkpt lat="45.77419" lon="4.86813">
        <ele>178</ele>
        <time>2012-03-03T09:31:00Z</time>
      </trkpt>
      <trkpt lat="45.77432" lon="4.86834">
        <ele>181</ele>
        <time>2012-03-03T09:31:04Z</time>
      </trkpt>
      <trkpt lat="45.77443" lon="4.86855">
        <ele>187</ele>
        <time>2012-03-03T09:31:08Z</time>
      </trkpt>
      <trkpt lat="45.77458" lon="4.86874">
        <ele>188</ele>
        <time>2012-03-03T09:31:12Z</time>
      </trkpt>
      <trkpt lat="45.77472" lon="4.86892">
        <ele>188</ele>
        <time>2012-03-03T09:31:16Z</time>
      </trkpt>
      <trkpt lat="45.77487" lon="4.86912">
        <ele>192</ele>
        <time>2012-03-03T09:31:20Z</time>
      </trkpt>
      <trkpt lat="45.77498" lon="4.86935">
        <ele>189</ele>
        <time>2012-03-03T09:31:24Z</time>
      </trkpt>
      <trkpt lat="45.7751" lon="4.86957">
        <ele>188</ele>
        <time>2012-03-03T09:31:28Z</time>
      </trkpt>
      <trkpt lat="45.77523" lon="4.86979">
        <ele>184</ele>
        <time>2012-03-03T09:31:32Z</time>
      </trkpt>
      <trkpt lat="45.77535" lon="4.87">
        <ele>176</ele>
        <time>2012-03-03T09:31:36Z</time>
      </trkpt>
      <trkpt lat="45.77548" lon="4.8702">
        <ele>170</ele>
        <time>2012-03-03T09:31:40Z</time>
      </trkpt>
      <trkpt lat="45.77562" lon="4.87043">
        <ele>171</ele>
        <time>2012-03-03T09:31:44Z</time>
      </trkpt>
      <trkpt lat="45.77574" lon="4.87064">
        <ele>171</ele>
        <time>2012-03-03T09:31:48Z</time>
      </trkpt>
      <trkpt lat="45.77586" lon="4.87081">
        <ele>169</ele>
        <time>2012-03-03T09:31:52Z</time>
      </trkpt>
      <trkpt lat="45.77601" lon="4.871">
        <ele>169</ele>
        <time>2012-03-03T09:31:56Z</time>
      </trkpt>
      <trkpt lat="45.77611" lon="4.87123">
        <ele>172</ele>
        <time>2012-03-03T09:32:00Z</time>
      </trkpt>
      <trkpt lat="45.77613" lon="4.87147">
        <ele>173</ele>
        <time>2012-03-03T09:32:04Z</time>
      </trkpt>
      <trkpt lat="45.77618" lon="4.87173">
        <ele>172</ele>
        <time>2012-03-03T09:32:08Z</time>
      </trkpt>
      <trkpt lat="45.77623" lon="4.872">
        <ele>170</ele>
        <time>2012-03-03T09:32:12Z</time>
      </trkpt>
      <trkpt lat="45.77625" lon="4.87227">
        <ele>171</ele>
        <time>2012-03-03T09:32:16Z</time>
      </trkpt>
      <trkpt lat="45.77629" lon="4.87256">
        <ele>170</ele>
        <time>2012-03-03T09:32:20Z</time>
      </trkpt>
      <trkpt lat="45.77633" lon="4.87284">
        <ele>172</ele>
        <time>2012-03-03T09:32:24Z</time>
      </trkpt>
      <trkpt lat="45.77637" lon="4.87313">
        <ele>170</ele>
        <time>2012-03-03T09:32:28Z</time>
      </trkpt>
      <trkpt lat="45.77643" lon="4.87339">
        <ele>175</ele>
        <time>2012-03-03T09:32:32Z</time>
      </trkpt>
      <trkpt lat="45.77647" lon="4.87363">
        <ele>179</ele>
        <time>2012-03-03T09:32:36Z</time>
      </trkpt>
      <trkpt lat="45.77649" lon="4.87376">
        <ele>178</ele>
        <time>2012-03-03T09:32:40Z</time>
      </trkpt>
      <trkpt lat="45.77649" lon="4.87384">
        <ele>178</ele>
        <time>2012-03-03T09:32:44Z</time>
      </trkpt>
      <trkpt lat="45.77649" lon="4.87392">
        <ele>177</ele>
        <time>2012-03-03T09:32:48Z</time>
      </trkpt>
      <trkpt lat="45.77653" lon="4.87408">
        <ele>175</ele>
        <time>2012-03-03T09:32:52Z</time>
      </trkpt>
      <trkpt lat="45.77656" lon="4.8743">
        <ele>173</ele>
        <time>2012-03-03T09:32:56Z</time>
      </trkpt>
      <trkpt lat="45.7766" lon="4.87456">
        <ele>172</ele>
        <time>2012-03-03T09:33:00Z</time>
      </trkpt>
      <trkpt lat="45.77663" lon="4.87485">
        <ele>170</ele>
        <time>2012-03-03T09:33:04Z</time>
      </trkpt>
      <trkpt lat="45.77665" lon="4.87514">
        <ele>167</ele>
        <time>2012-03-03T09:33:08Z</time>
      </trkpt>
      <trkpt lat="45.77665" lon="4.8754">
        <ele>168</ele>
        <time>2012-03-03T09:33:12Z</time>
      </trkpt>
      <trkpt lat="45.77665" lon="4.87567">
        <ele>172</ele>
        <time>2012-03-03T09:33:16Z</time>
      </trkpt>
      <trkpt lat="45.7767" lon="4.87593">
        <ele>173</ele>
        <time>2012-03-03T09:33:20Z</time>
      </trkpt>
      <trkpt lat="45.77674" lon="4.87621">
        <ele>171</ele>
        <time>2012-03-03T09:33:24Z</time>
      </trkpt>
      <trkpt lat="45.7768" lon="4.87647">
        <ele>174</ele>
        <time>2012-03-03T09:33:28Z</time>
      </trkpt>
      <trkpt lat="45.77689" lon="4.8767">
        <ele>177</ele>
        <time>2012-03-03T09:33:32Z</time>
      </trkpt>
      <trkpt lat="45.77699" lon="4.87695">
        <ele>182</ele>
        <time>2012-03-03T09:33:36Z</time>
      </trkpt>
      <trkpt lat="45.77711" lon="4.87717">
        <ele>179</ele>
        <time>2012-03-03T09:33:40Z</time>
      </trkpt>
      <trkpt lat="45.77723" lon="4.87739">
        <ele>182</ele>
        <time>2012-03-03T09:33:44Z</time>
      </trkpt>
      <trkpt lat="45.77736" lon="4.8776">
        <ele>188</ele>
        <time>2012-03-03T09:33:48Z</time>
      </trkpt>
      <trkpt lat="45.77747" lon="4.87778">
        <ele>184</ele>
        <time>2012-03-03T09:33:52Z</time>
      </trkpt>
      <trkpt lat="45.77758" lon="4.87799">
        <ele>188</ele>
        <time>2012-03-03T09:33:56Z</time>
      </trkpt>
      <trkpt lat="45.77773" lon="4.87821">
        <ele>202</ele>
        <time>2012-03-03T09:34:00Z</time>
      </trkpt>
      <trkpt lat="45.77783" lon="4.87843">
        <ele>209</ele>
        <time>2012-03-03T09:34:04Z</time>
      </trkpt>
      <trkpt lat="45.77793" lon="4.87862">
        <ele>206</ele>
        <time>2012-03-03T09:34:08Z</time>
      </trkpt>
      <trkpt lat="45.77807" lon="4.87884">
        <ele>206</ele>
        <time>2012-03-03T09:34:13Z</time>
      </trkpt>
      <trkpt lat="45.77822" lon="4.87902">
        <ele>208</ele>
        <time>2012-03-03T09:34:17Z</time>
      </trkpt>
      <trkpt lat="45.77832" lon="4.87926">
        <ele>209</ele>
        <time>2012-03-03T09:34:21Z</time>
      </trkpt>
      <trkpt lat="45.7784" lon="4.87952">
        <ele>203</ele>
        <time>2012-03-03T09:34:25Z</time>
      </trkpt>
      <trkpt lat="45.7785" lon="4.87977">
        <ele>205</ele>
        <time>2012-03-03T09:34:29Z</time>
      </trkpt>
      <trkpt lat="45.77857" lon="4.88">
        <ele>207</ele>
        <time>2012-03-03T09:34:33Z</time>
      </trkpt>
      <trkpt lat="45.77872" lon="4.88023">
        <ele>207</ele>
        <time>2012-03-03T09:34:37Z</time>
      </trkpt>
      <trkpt lat="45.77888" lon="4.88045">
        <ele>204</ele>
        <time>2012-03-03T09:34:41Z</time>
      </trkpt>
      <trkpt lat="45.779" lon="4.88068">
        <ele>200</ele>
        <time>2012-03-03T09:34:45Z</time>
      </trkpt>
      <trkpt lat="45.77911" lon="4.88093">
        <ele>190</ele>
        <time>2012-03-03T09:34:49Z</time>
      </trkpt>
      <trkpt lat="45.77925" lon="4.88119">
        <ele>195</ele>
        <time>2012-03-03T09:34:53Z</time>
      </trkpt>
      <trkpt lat="45.77937" lon="4.88144">
        <ele>186</ele>
        <time>2012-03-03T09:34:57Z</time>
      </trkpt>
      <trkpt lat="45.77951" lon="4.8817">
        <ele>187</ele>
        <time>2012-03-03T09:35:01Z</time>
      </trkpt>
      <trkpt lat="45.77965" lon="4.88194">
        <ele>172</ele>
        <time>2012-03-03T09:35:05Z</time>
      </trkpt>
      <trkpt lat="45.77977" lon="4.88217">
        <ele>171</ele>
        <time>2012-03-03T09:35:09Z</time>
      </trkpt>
      <trkpt lat="45.77988" lon="4.88241">
        <ele>175</ele>
        <time>2012-03-03T09:35:13Z</time>
      </trkpt>
      <trkpt lat="45.77998" lon="4.88265">
        <ele>179</ele>
        <time>2012-03-03T09:35:17Z</time>
      </trkpt>
      <trkpt lat="45.78009" lon="4.88289">
        <ele>185</ele>
        <time>2012-03-03T09:35:21Z</time>
      </trkpt>
      <trkpt lat="45.78022" lon="4.88313">
        <ele>188</ele>
        <time>2012-03-03T09:35:25Z</time>
      </trkpt>
      <trkpt lat="45.78037" lon="4.88335">
        <ele>183</ele>
        <time>2012-03-03T09:35:29Z</time>
      </trkpt>
      <trkpt lat="45.78051" lon="4.88359">
        <ele>171</ele>
        <time>2012-03-03T09:35:33Z</time>
      </trkpt>
      <trkpt lat="45.78065" lon="4.88383">
        <ele>171</ele>
        <time>2012-03-03T09:35:37Z</time>
      </trkpt>
      <trkpt lat="45.78076" lon="4.88404">
        <ele>174</ele>
        <time>2012-03-03T09:35:41Z</time>
      </trkpt>
      <trkpt lat="45.78088" lon="4.88428">
        <ele>177</ele>
        <time>2012-03-03T09:35:45Z</time>
      </trkpt>
      <trkpt lat="45.78099" lon="4.88454">
        <ele>178</ele>
        <time>2012-03-03T09:35:49Z</time>
      </trkpt>
      <trkpt lat="45.78108" lon="4.88482">
        <ele>172</ele>
        <time>2012-03-03T09:35:53Z</time>
      </trkpt>
      <trkpt lat="45.78116" lon="4.8851">
        <ele>173</ele>
        <time>2012-03-03T09:35:57Z</time>
      </trkpt>
      <trkpt lat="45.78121" lon="4.88539">
        <ele>186</ele>
        <time>2012-03-03T09:36:01Z</time>
      </trkpt>
      <trkpt lat="45.78125" lon="4.88565">
        <ele>185</ele>
        <time>2012-03-03T09:36:05Z</time>
      </trkpt>
      <trkpt lat="45.78129" lon="4.88591">
        <ele>177</ele>
        <time>2012-03-03T09:36:09Z</time>
      </trkpt>
      <trkpt lat="45.78138" lon="4.88621">
        <ele>173</ele>
        <time>2012-03-03T09:36:13Z</time>
      </trkpt>
      <trkpt lat="45.78147" lon="4.88649">
        <ele>174</ele>
        <time>2012-03-03T09:36:17Z</time>
      </trkpt>
      <trkpt lat="45.78157" lon="4.88678">
        <ele>172</ele>
        <time>2012-03-03T09:36:21Z</time>
      </trkpt>
      <trkpt lat="45.78165" lon="4.88704">
        <ele>172</ele>
        <time>2012-03-03T09:36:25Z</time>
      </trkpt>
      <trkpt lat="45.78178" lon="4.88728">
        <ele>183</ele>
        <time>2012-03-03T09:36:29Z</time>
      </trkpt>
      <trkpt lat="45.78189" lon="4.88754">
        <ele>185</ele>
        <time>2012-03-03T09:36:33Z</time>
      </trkpt>
      <trkpt lat="45.78196" lon="4.8878">
        <ele>184</ele>
        <time>2012-03-03T09:36:37Z</time>
      </trkpt>
      <trkpt lat="45.78203" lon="4.88804">
        <ele>181</ele>
        <time>2012-03-03T09:36:41Z</time>
      </trkpt>
      <trkpt lat="45.78212" lon="4.8883">
        <ele>176</ele>
        <time>2012-03-03T09:36:45Z</time>
      </trkpt>
      <trkpt lat="45.78222" lon="4.88857">
        <ele>178</ele>
        <time>2012-03-03T09:36:49Z</time>
      </trkpt>
      <trkpt lat="45.78233" lon="4.88883">
        <ele>185</ele>
        <time>2012-03-03T09:36:53Z</time>
      </trkpt>
      <trkpt lat="45.78243" lon="4.88906">
        <ele>188</ele>
        <time>2012-03-03T09:36:57Z</time>
      </trkpt>
      <trkpt lat="45.78252" lon="4.88932">
        <ele>184</ele>
        <time>2012-03-03T09:37:01Z</time>
      </trkpt>
      <trkpt lat="45.78256" lon="4.88957">
        <ele>202</ele>
        <time>2012-03-03T09:37:05Z</time>
      </trkpt>
      <trkpt lat="45.78262" lon="4.88973">
        <ele>209</ele>
        <time>2012-03-03T09:37:09Z</time>
      </trkpt>
      <trkpt lat="45.78269" lon="4.88997">
        <ele>211</ele>
        <time>2012-03-03T09:37:13Z</time>
      </trkpt>
      <trkpt lat="45.78274" lon="4.89014">
        <ele>206</ele>
        <time>2012-03-03T09:37:17Z</time>
      </trkpt>
      <trkpt lat="45.7828" lon="4.89026">
        <ele>197</ele>
        <time>2012-03-03T09:37:21Z</time>
      </trkpt>
      <trkpt lat="45.78281" lon="4.89031">
        <ele>205</ele>
        <time>2012-03-03T09:37:49Z</time>
      </trkpt>
      <trkpt lat="45.78283" lon="4.89034">
        <ele>200</ele>
        <time>2012-03-03T09:37:53Z</time>
      </trkpt>
      <trkpt lat="45.78288" lon="4.89028">
        <ele>195</ele>
        <time>2012-03-03T09:37:57Z</time>
      </trkpt>
      <trkpt lat="45.7829" lon="4.89046">
        <ele>195</ele>
        <time>2012-03-03T09:38:01Z</time>
      </trkpt>
      <trkpt lat="45.78297" lon="4.89066">
        <ele>188</ele>
        <time>2012-03-03T09:38:05Z</time>
      </trkpt>
      <trkpt lat="45.78309" lon="4.89091">
        <ele>183</ele>
        <time>2012-03-03T09:38:09Z</time>
      </trkpt>
      <trkpt lat="45.78319" lon="4.89116">
        <ele>181</ele>
        <time>2012-03-03T09:38:13Z</time>
      </trkpt>
      <trkpt lat="45.78331" lon="4.89138">
        <ele>180</ele>
        <time>2012-03-03T09:38:17Z</time>
      </trkpt>
      <trkpt lat="45.78343" lon="4.89156">
        <ele>174</ele>
        <time>2012-03-03T09:38:21Z</time>
      </trkpt>
      <trkpt lat="45.78353" lon="4.89171">
        <ele>177</ele>
        <time>2012-03-03T09:38:25Z</time>
      </trkpt>
      <trkpt lat="45.78363" lon="4.89184">
        <ele>181</ele>
        <time>2012-03-03T09:38:29Z</time>
      </trkpt>
      <trkpt lat="45.78365" lon="4.89185">
        <ele>180</ele>
        <time>2012-03-03T09:38:33Z</time>
      </trkpt>
      <trkpt lat="45.7839" lon="4.89199">
        <ele>179</ele>
        <time>2012-03-03T09:38:37Z</time>
      </trkpt>
      <trkpt lat="45.78408" lon="4.8919">
        <ele>178</ele>
        <time>2012-03-03T09:38:41Z</time>
      </trkpt>
      <trkpt lat="45.78422" lon="4.89181">
        <ele>183</ele>
        <time>2012-03-03T09:38:45Z</time>
      </trkpt>
      <trkpt lat="45.78426" lon="4.89168">
        <ele>183</ele>
        <time>2012-03-03T09:38:49Z</time>
      </trkpt>
      <trkpt lat="45.78413" lon="4.89171">
        <ele>184</ele>
        <time>2012-03-03T09:38:53Z</time>
      </trkpt>
      <trkpt lat="45.78396" lon="4.89185">
        <ele>185</ele>
        <time>2012-03-03T09:38:57Z</time>
      </trkpt>
      <trkpt lat="45.78379" lon="4.89201">
        <ele>184</ele>
        <time>2012-03-03T09:39:01Z</time>
      </trkpt>
      <trkpt lat="45.78363" lon="4.89226">
        <ele>183</ele>
        <time>2012-03-03T09:39:05Z</time>
      </trkpt>
      <trkpt lat="45.7836" lon="4.8926">
        <ele>180</ele>
        <time>2012-03-03T09:39:09Z</time>
      </trkpt>
      <trkpt lat="45.78365" lon="4.89289">
        <ele>179</ele>
        <time>2012-03-03T09:39:13Z</time>
      </trkpt>
      <trkpt lat="45.78371" lon="4.89318">
        <ele>178</ele>
        <time>2012-03-03T09:39:17Z</time>
      </trkpt>
      <trkpt lat="45.78378" lon="4.89346">
        <ele>177</ele>
        <time>2012-03-03T09:39:21Z</time>
      </trkpt>
      <trkpt lat="45.78385" lon="4.89373">
        <ele>177</ele>
        <time>2012-03-03T09:39:25Z</time>
      </trkpt>
      <trkpt lat="45.78391" lon="4.89402">
        <ele>177</ele>
        <time>2012-03-03T09:39:29Z</time>
      </trkpt>
      <trkpt lat="45.78397" lon="4.89431">
        <ele>175</ele>
        <time>2012-03-03T09:39:33Z</time>
      </trkpt>
      <trkpt lat="45.78405" lon="4.89462">
        <ele>176</ele>
        <time>2012-03-03T09:39:37Z</time>
      </trkpt>
      <trkpt lat="45.78415" lon="4.89491">
        <ele>177</ele>
        <time>2012-03-03T09:39:41Z</time>
      </trkpt>
      <trkpt lat="45.78428" lon="4.89523">
        <ele>177</ele>
        <time>2012-03-03T09:39:45Z</time>
      </trkpt>
      <trkpt lat="45.78442" lon="4.89545">
        <ele>174</ele>
        <time>2012-03-03T09:39:49Z</time>
      </trkpt>
      <trkpt lat="45.78442" lon="4.89528">
        <ele>175</ele>
        <time>2012-03-03T09:39:53Z</time>
      </trkpt>
      <trkpt lat="45.78437" lon="4.89495">
        <ele>172</ele>
        <time>2012-03-03T09:39:57Z</time>
      </trkpt>
      <trkpt lat="45.78428" lon="4.89462">
        <ele>179</ele>
        <time>2012-03-03T09:40:01Z</time>
      </trkpt>
      <trkpt lat="45.78423" lon="4.89432">
        <ele>182</ele>
        <time>2012-03-03T09:40:05Z</time>
      </trkpt>
      <trkpt lat="45.78437" lon="4.89419">
        <ele>183</ele>
        <time>2012-03-03T09:40:09Z</time>
      </trkpt>
      <trkpt lat="45.78458" lon="4.89407">
        <ele>185</ele>
        <time>2012-03-03T09:40:13Z</time>
      </trkpt>
      <trkpt lat="45.78479" lon="4.89397">
        <ele>189</ele>
        <time>2012-03-03T09:40:17Z</time>
      </trkpt>
      <trkpt lat="45.785" lon="4.89384">
        <ele>191</ele>
        <time>2012-03-03T09:40:21Z</time>
      </trkpt>
      <trkpt lat="45.78523" lon="4.89369">
        <ele>188</ele>
        <time>2012-03-03T09:40:25Z</time>
      </trkpt>
      <trkpt lat="45.78547" lon="4.89354">
        <ele>182</ele>
        <time>2012-03-03T09:40:29Z</time>
      </trkpt>
      <trkpt lat="45.78572" lon="4.89343">
        <ele>181</ele>
        <time>2012-03-03T09:40:33Z</time>
      </trkpt>
      <trkpt lat="45.78594" lon="4.89331">
        <ele>183</ele>
        <time>2012-03-03T09:40:37Z</time>
      </trkpt>
      <trkpt lat="45.78615" lon="4.89315">
        <ele>182</ele>
        <time>2012-03-03T09:40:41Z</time>
      </trkpt>
      <trkpt lat="45.78633" lon="4.89295">
        <ele>180</ele>
        <time>2012-03-03T09:40:45Z</time>
      </trkpt>
      <trkpt lat="45.7865" lon="4.89281">
        <ele>180</ele>
        <time>2012-03-03T09:40:49Z</time>
      </trkpt>
      <trkpt lat="45.7867" lon="4.89264">
        <ele>183</ele>
        <time>2012-03-03T09:40:53Z</time>
      </trkpt>
      <trkpt lat="45.7869" lon="4.89246">
        <ele>185</ele>
        <time>2012-03-03T09:40:57Z</time>
      </trkpt>
      <trkpt lat="45.7871" lon="4.89229">
        <ele>187</ele>
        <time>2012-03-03T09:41:01Z</time>
      </trkpt>
      <trkpt lat="45.78731" lon="4.89211">
        <ele>184</ele>
        <time>2012-03-03T09:41:05Z</time>
      </trkpt>
      <trkpt lat="45.78753" lon="4.89208">
        <ele>186</ele>
        <time>2012-03-03T09:41:09Z</time>
      </trkpt>
      <trkpt lat="45.78761" lon="4.89229">
        <ele>182</ele>
        <time>2012-03-03T09:41:13Z</time>
      </trkpt>
      <trkpt lat="45.78767" lon="4.89264">
        <ele>180</ele>
        <time>2012-03-03T09:41:17Z</time>
      </trkpt>
      <trkpt lat="45.78772" lon="4.89302">
        <ele>172</ele>
        <time>2012-03-03T09:41:21Z</time>
      </trkpt>
      <trkpt lat="45.78782" lon="4.89338">
        <ele>169</ele>
        <time>2012-03-03T09:41:25Z</time>
      </trkpt>
      <trkpt lat="45.78794" lon="4.89371">
        <ele>173</ele>
        <time>2012-03-03T09:41:29Z</time>
      </trkpt>
      <trkpt lat="45.78806" lon="4.89404">
        <ele>170</ele>
        <time>2012-03-03T09:41:33Z</time>
      </trkpt>
      <trkpt lat="45.78817" lon="4.89438">
        <ele>172</ele>
        <time>2012-03-03T09:41:37Z</time>
      </trkpt>
      <trkpt lat="45.78831" lon="4.8947">
        <ele>170</ele>
        <time>2012-03-03T09:41:41Z</time>
      </trkpt>
      <trkpt lat="45.78847" lon="4.895">
        <ele>168</ele>
        <time>2012-03-03T09:41:45Z</time>
      </trkpt>
      <trkpt lat="45.78863" lon="4.89529">
        <ele>173</ele>
        <time>2012-03-03T09:41:49Z</time>
      </trkpt>
      <trkpt lat="45.78882" lon="4.89557">
        <ele>171</ele>
        <time>2012-03-03T09:41:53Z</time>
      </trkpt>
      <trkpt lat="45.789" lon="4.89586">
        <ele>173</ele>
        <time>2012-03-03T09:41:57Z</time>
      </trkpt>
      <trkpt lat="45.78895" lon="4.89619">
        <ele>175</ele>
        <time>2012-03-03T09:42:01Z</time>
      </trkpt>
      <trkpt lat="45.78885" lon="4.89655">
        <ele>175</ele>
        <time>2012-03-03T09:42:05Z</time>
      </trkpt>
      <trkpt lat="45.78878" lon="4.89689">
        <ele>171</ele>
        <time>2012-03-03T09:42:09Z</time>
      </trkpt>
      <trkpt lat="45.78873" lon="4.89726">
        <ele>173</ele>
        <time>2012-03-03T09:42:13Z</time>
      </trkpt>
      <trkpt lat="45.78878" lon="4.89765">
        <ele>173</ele>
        <time>2012-03-03T09:42:17Z</time>
      </trkpt>
      <trkpt lat="45.78885" lon="4.89801">
        <ele>174</ele>
        <time>2012-03-03T09:42:21Z</time>
      </trkpt>
      <trkpt lat="45.78893" lon="4.89837">
        <ele>175</ele>
        <time>2012-03-03T09:42:25Z</time>
      </trkpt>
      <trkpt lat="45.78902" lon="4.89875">
        <ele>176</ele>
        <time>2012-03-03T09:42:29Z</time>
      </trkpt>
      <trkpt lat="45.7891" lon="4.8991">
        <ele>178</ele>
        <time>2012-03-03T09:42:33Z</time>
      </trkpt>
      <trkpt lat="45.78916" lon="4.89946">
        <ele>181</ele>
        <time>2012-03-03T09:42:37Z</time>
      </trkpt>
      <trkpt lat="45.78923" lon="4.89982">
        <ele>177</ele>
        <time>2012-03-03T09:42:41Z</time>
      </trkpt>
      <trkpt lat="45.7893" lon="4.90017">
        <ele>176</ele>
        <time>2012-03-03T09:42:45Z</time>
      </trkpt>
      <trkpt lat="45.78939" lon="4.90052">
        <ele>174</ele>
        <time>2012-03-03T09:42:49Z</time>
      </trkpt>
      <trkpt lat="45.78952" lon="4.90084">
        <ele>173</ele>
        <time>2012-03-03T09:42:53Z</time>
      </trkpt>
      <trkpt lat="45.78965" lon="4.90115">
        <ele>172</ele>
        <time>2012-03-03T09:42:57Z</time>
      </trkpt>
      <trkpt lat="45.78977" lon="4.90145">
        <ele>172</ele>
        <time>2012-03-03T09:43:01Z</time>
      </trkpt>
      <trkpt lat="45.78991" lon="4.90173">
        <ele>168</ele>
        <time>2012-03-03T09:43:05Z</time>
      </trkpt>
      <trkpt lat="45.79006" lon="4.90197">
        <ele>171</ele>
        <time>2012-03-03T09:43:09Z</time>
      </trkpt>
      <trkpt lat="45.79023" lon="4.90219">
        <ele>174</ele>
        <time>2012-03-03T09:43:13Z</time>
      </trkpt>
      <trkpt lat="45.79043" lon="4.90238">
        <ele>176</ele>
        <time>2012-03-03T09:43:17Z</time>
      </trkpt>
      <trkpt lat="45.79064" lon="4.90261">
        <ele>180</ele>
        <time>2012-03-03T09:43:21Z</time>
      </trkpt>
      <trkpt lat="45.79084" lon="4.90286">
        <ele>178</ele>
        <time>2012-03-03T09:43:25Z</time>
      </trkpt>
      <trkpt lat="45.79103" lon="4.90317">
        <ele>176</ele>
        <time>2012-03-03T09:43:29Z</time>
      </trkpt>
      <trkpt lat="45.79115" lon="4.90351">
        <ele>175</ele>
        <time>2012-03-03T09:43:33Z</time>
      </trkpt>
      <trkpt lat="45.79125" lon="4.90387">
        <ele>174</ele>
        <time>2012-03-03T09:43:37Z</time>
      </trkpt>
      <trkpt lat="45.79133" lon="4.90424">
        <ele>177</ele>
        <time>2012-03-03T09:43:41Z</time>
      </trkpt>
      <trkpt lat="45.79139" lon="4.90461">
        <ele>176</ele>
        <time>2012-03-03T09:43:45Z</time>
      </trkpt>
      <trkpt lat="45.79141" lon="4.90501">
        <ele>179</ele>
        <time>2012-03-03T09:43:49Z</time>
      </trkpt>
      <trkpt lat="45.79141" lon="4.9054">
        <ele>170</ele>
        <time>2012-03-03T09:43:53Z</time>
      </trkpt>
      <trkpt lat="45.79138" lon="4.90581">
        <ele>166</ele>
        <time>2012-03-03T09:43:57Z</time>
      </trkpt>
      <trkpt lat="45.79134" lon="4.9062">
        <ele>166</ele>
        <time>2012-03-03T09:44:01Z</time>
      </trkpt>
      <trkpt lat="45.7913" lon="4.90658">
        <ele>168</ele>
        <time>2012-03-03T09:44:05Z</time>
      </trkpt>
      <trkpt lat="45.79125" lon="4.90695">
        <ele>169</ele>
        <time>2012-03-03T09:44:09Z</time>
      </trkpt>
      <trkpt lat="45.79123" lon="4.90732">
        <ele>168</ele>
        <time>2012-03-03T09:44:13Z</time>
      </trkpt>
      <trkpt lat="45.79122" lon="4.90771">
        <ele>168</ele>
        <time>2012-03-03T09:44:17Z</time>
      </trkpt>
      <trkpt lat="45.79121" lon="4.90807">
        <ele>167</ele>
        <time>2012-03-03T09:44:21Z</time>
      </trkpt>
      <trkpt lat="45.79123" lon="4.90845">
        <ele>166</ele>
        <time>2012-03-03T09:44:25Z</time>
      </trkpt>
      <trkpt lat="45.79128" lon="4.90882">
        <ele>167</ele>
        <time>2012-03-03T09:44:29Z</time>
      </trkpt>
      <trkpt lat="45.79134" lon="4.90917">
        <ele>165</ele>
        <time>2012-03-03T09:44:33Z</time>
      </trkpt>
      <trkpt lat="45.79141" lon="4.90952">
        <ele>168</ele>
        <time>2012-03-03T09:44:37Z</time>
      </trkpt>
      <trkpt lat="45.79147" lon="4.90988">
        <ele>169</ele>
        <time>2012-03-03T09:44:41Z</time>
      </trkpt>
      <trkpt lat="45.79154" lon="4.91023">
        <ele>171</ele>
        <time>2012-03-03T09:44:45Z</time>
      </trkpt>
      <trkpt lat="45.79163" lon="4.9106">
        <ele>173</ele>
        <time>2012-03-03T09:44:49Z</time>
      </trkpt>
      <trkpt lat="45.79171" lon="4.91096">
        <ele>175</ele>
        <time>2012-03-03T09:44:53Z</time>
      </trkpt>
      <trkpt lat="45.79179" lon="4.91132">
        <ele>174</ele>
        <time>2012-03-03T09:44:57Z</time>
      </trkpt>
      <trkpt lat="45.79187" lon="4.91167">
        <ele>173</ele>
        <time>2012-03-03T09:45:01Z</time>
      </trkpt>
      <trkpt lat="45.79195" lon="4.91202">
        <ele>175</ele>
        <time>2012-03-03T09:45:05Z</time>
      </trkpt>
      <trkpt lat="45.79203" lon="4.91237">
        <ele>177</ele>
        <time>2012-03-03T09:45:09Z</time>
      </trkpt>
      <trkpt lat="45.79211" lon="4.91273">
        <ele>172</ele>
        <time>2012-03-03T09:45:13Z</time>
      </trkpt>
      <trkpt lat="45.79219" lon="4.91309">
        <ele>177</ele>
        <time>2012-03-03T09:45:17Z</time>
      </trkpt>
      <trkpt lat="45.79229" lon="4.91345">
        <ele>176</ele>
        <time>2012-03-03T09:45:21Z</time>
      </trkpt>
      <trkpt lat="45.79238" lon="4.91381">
        <ele>177</ele>
        <time>2012-03-03T09:45:25Z</time>
      </trkpt>
      <trkpt lat="45.79247" lon="4.91416">
        <ele>175</ele>
        <time>2012-03-03T09:45:29Z</time>
      </trkpt>
      <trkpt lat="45.79256" lon="4.91451">
        <ele>180</ele>
        <time>2012-03-03T09:45:33Z</time>
      </trkpt>
      <trkpt lat="45.79265" lon="4.91486">
        <ele>185</ele>
        <time>2012-03-03T09:45:37Z</time>
      </trkpt>
      <trkpt lat="45.79271" lon="4.91522">
        <ele>180</ele>
        <time>2012-03-03T09:45:41Z</time>
      </trkpt>
      <trkpt lat="45.79278" lon="4.91556">
        <ele>179</ele>
        <time>2012-03-03T09:45:45Z</time>
      </trkpt>
      <trkpt lat="45.79286" lon="4.91592">
        <ele>176</ele>
        <time>2012-03-03T09:45:49Z</time>
      </trkpt>
      <trkpt lat="45.79294" lon="4.9163">
        <ele>176</ele>
        <time>2012-03-03T09:45:53Z</time>
      </trkpt>
      <trkpt lat="45.79303" lon="4.91669">
        <ele>176</ele>
        <time>2012-03-03T09:45:57Z</time>
      </trkpt>
      <trkpt lat="45.79313" lon="4.91707">
        <ele>177</ele>
        <time>2012-03-03T09:46:01Z</time>
      </trkpt>
      <trkpt lat="45.79322" lon="4.91744">
        <ele>174</ele>
        <time>2012-03-03T09:46:05Z</time>
      </trkpt>
      <trkpt lat="45.79332" lon="4.91782">
        <ele>177</ele>
        <time>2012-03-03T09:46:09Z</time>
      </trkpt>
      <trkpt lat="45.79341" lon="4.91819">
        <ele>176</ele>
        <time>2012-03-03T09:46:13Z</time>
      </trkpt>
      <trkpt lat="45.79349" lon="4.91857">
        <ele>177</ele>
        <time>2012-03-03T09:46:17Z</time>
      </trkpt>
      <trkpt lat="45.79357" lon="4.91896">
        <ele>176</ele>
        <time>2012-03-03T09:46:21Z</time>
      </trkpt>
      <trkpt lat="45.79366" lon="4.91938">
        <ele>170</ele>
        <time>2012-03-03T09:46:25Z</time>
      </trkpt>
      <trkpt lat="45.79376" lon="4.9198">
        <ele>172</ele>
        <time>2012-03-03T09:46:29Z</time>
      </trkpt>
      <trkpt lat="45.79386" lon="4.92021">
        <ele>175</ele>
        <time>2012-03-03T09:46:33Z</time>
      </trkpt>
      <trkpt lat="45.79395" lon="4.92061">
        <ele>175</ele>
        <time>2012-03-03T09:46:37Z</time>
      </trkpt>
      <trkpt lat="45.79404" lon="4.921">
        <ele>173</ele>
        <time>2012-03-03T09:46:41Z</time>
      </trkpt>
      <trkpt lat="45.79411" lon="4.92138">
        <ele>175</ele>
        <time>2012-03-03T09:46:45Z</time>
      </trkpt>
      <trkpt lat="45.7942" lon="4.92175">
        <ele>176</ele>
        <time>2012-03-03T09:46:49Z</time>
      </trkpt>
      <trkpt lat="45.79428" lon="4.92213">
        <ele>177</ele>
        <time>2012-03-03T09:46:53Z</time>
      </trkpt>
      <trkpt lat="45.79437" lon="4.92248">
        <ele>175</ele>
        <time>2012-03-03T09:46:57Z</time>
      </trkpt>
      <trkpt lat="45.79446" lon="4.92285">
        <ele>175</ele>
        <time>2012-03-03T09:47:01Z</time>
      </trkpt>
      <trkpt lat="45.79453" lon="4.92329">
        <ele>176</ele>
        <time>2012-03-03T09:47:05Z</time>
      </trkpt>
      <trkpt lat="45.79468" lon="4.92372">
        <ele>176</ele>
        <time>2012-03-03T09:47:09Z</time>
      </trkpt>
      <trkpt lat="45.7948" lon="4.92415">
        <ele>177</ele>
        <time>2012-03-03T09:47:13Z</time>
      </trkpt>
      <trkpt lat="45.79489" lon="4.92452">
        <ele>177</ele>
        <time>2012-03-03T09:47:17Z</time>
      </trkpt>
      <trkpt lat="45.79505" lon="4.92478">
        <ele>174</ele>
        <time>2012-03-03T09:47:21Z</time>
      </trkpt>
      <trkpt lat="45.79528" lon="4.92497">
        <ele>172</ele>
        <time>2012-03-03T09:47:25Z</time>
      </trkpt>
      <trkpt lat="45.79552" lon="4.92513">
        <ele>174</ele>
        <time>2012-03-03T09:47:29Z</time>
      </trkpt>
      <trkpt lat="45.79578" lon="4.92527">
        <ele>176</ele>
        <time>2012-03-03T09:47:33Z</time>
      </trkpt>
      <trkpt lat="45.79604" lon="4.92538">
        <ele>177</ele>
        <time>2012-03-03T09:47:37Z</time>
      </trkpt>
      <trkpt lat="45.79633" lon="4.92548">
        <ele>177</ele>
        <time>2012-03-03T09:47:41Z</time>
      </trkpt>
      <trkpt lat="45.7966" lon="4.92556">
        <ele>178</ele>
        <time>2012-03-03T09:47:45Z</time>
      </trkpt>
      <trkpt lat="45.79689" lon="4.92564">
        <ele>177</ele>
        <time>2012-03-03T09:47:49Z</time>
      </trkpt>
      <trkpt lat="45.79716" lon="4.92576">
        <ele>172</ele>
        <time>2012-03-03T09:47:53Z</time>
      </trkpt>
      <trkpt lat="45.79742" lon="4.92592">
        <ele>173</ele>
        <time>2012-03-03T09:47:57Z</time>
      </trkpt>
      <trkpt lat="45.79768" lon="4.92612">
        <ele>172</ele>
        <time>2012-03-03T09:48:01Z</time>
      </trkpt>
      <trkpt lat="45.79789" lon="4.92634">
        <ele>175</ele>
        <time>2012-03-03T09:48:05Z</time>
      </trkpt>
      <trkpt lat="45.7981" lon="4.9266">
        <ele>174</ele>
        <time>2012-03-03T09:48:09Z</time>
      </trkpt>
      <trkpt lat="45.79832" lon="4.9268">
        <ele>174</ele>
        <time>2012-03-03T09:48:13Z</time>
      </trkpt>
      <trkpt lat="45.79858" lon="4.92697">
        <ele>175</ele>
        <time>2012-03-03T09:48:17Z</time>
      </trkpt>
      <trkpt lat="45.79885" lon="4.92709">
        <ele>177</ele>
        <time>2012-03-03T09:48:21Z</time>
      </trkpt>
      <trkpt lat="45.79911" lon="4.92718">
        <ele>179</ele>
        <time>2012-03-03T09:48:25Z</time>
      </trkpt>
      <trkpt lat="45.79937" lon="4.92724">
        <ele>182</ele>
        <time>2012-03-03T09:48:29Z</time>
      </trkpt>
      <trkpt lat="45.79964" lon="4.92727">
        <ele>182</ele>
        <time>2012-03-03T09:48:33Z</time>
      </trkpt>
      <trkpt lat="45.79992" lon="4.92718">
        <ele>184</ele>
        <time>2012-03-03T09:48:37Z</time>
      </trkpt>
      <trkpt lat="45.80019" lon="4.92711">
        <ele>186</ele>
        <time>2012-03-03T09:48:41Z</time>
      </trkpt>
      <trkpt lat="45.80044" lon="4.92704">
        <ele>187</ele>
        <time>2012-03-03T09:48:45Z</time>
      </trkpt>
      <trkpt lat="45.80071" lon="4.92695">
        <ele>187</ele>
        <time>2012-03-03T09:48:49Z</time>
      </trkpt>
      <trkpt lat="45.80098" lon="4.92683">
        <ele>187</ele>
        <time>2012-03-03T09:48:53Z</time>
      </trkpt>
      <trkpt lat="45.80122" lon="4.92656">
        <ele>179</ele>
        <time>2012-03-03T09:48:57Z</time>
      </trkpt>
      <trkpt lat="45.80135" lon="4.92618">
        <ele>180</ele>
        <time>2012-03-03T09:49:01Z</time>
      </trkpt>
      <trkpt lat="45.80161" lon="4.92595">
        <ele>180</ele>
        <time>2012-03-03T09:49:05Z</time>
      </trkpt>
      <trkpt lat="45.80186" lon="4.92613">
        <ele>180</ele>
        <time>2012-03-03T09:49:09Z</time>
      </trkpt>
      <trkpt lat="45.80202" lon="4.92653">
        <ele>173</ele>
        <time>2012-03-03T09:49:13Z</time>
      </trkpt>
      <trkpt lat="45.80214" lon="4.92695">
        <ele>172</ele>
        <time>2012-03-03T09:49:17Z</time>
      </trkpt>
      <trkpt lat="45.8022" lon="4.92739">
        <ele>176</ele>
        <time>2012-03-03T09:49:21Z</time>
      </trkpt>
      <trkpt lat="45.80225" lon="4.92784">
        <ele>177</ele>
        <time>2012-03-03T09:49:25Z</time>
      </trkpt>
      <trkpt lat="45.80227" lon="4.92822">
        <ele>178</ele>
        <time>2012-03-03T09:49:29Z</time>
      </trkpt>
      <trkpt lat="45.80233" lon="4.92856">
        <ele>180</ele>
        <time>2012-03-03T09:49:33Z</time>
      </trkpt>
      <trkpt lat="45.80226" lon="4.92885">
        <ele>182</ele>
        <time>2012-03-03T09:49:37Z</time>
      </trkpt>
      <trkpt lat="45.8022" lon="4.92914">
        <ele>178</ele>
        <time>2012-03-03T09:49:41Z</time>
      </trkpt>
      <trkpt lat="45.80226" lon="4.92945">
        <ele>175</ele>
        <time>2012-03-03T09:49:45Z</time>
      </trkpt>
      <trkpt lat="45.80229" lon="4.92953">
        <ele>174</ele>
        <time>2012-03-03T09:51:13Z</time>
      </trkpt>
      <trkpt lat="45.8023" lon="4.92957">
        <ele>176</ele>
        <time>2012-03-03T09:51:17Z</time>
      </trkpt>
      <trkpt lat="45.80228" lon="4.92972">
        <ele>177</ele>
        <time>2012-03-03T09:51:21Z</time>
      </trkpt>
      <trkpt lat="45.80219" lon="4.92988">
        <ele>175</ele>
        <time>2012-03-03T09:51:25Z</time>
      </trkpt>
      <trkpt lat="45.80208" lon="4.93002">
        <ele>173</ele>
        <time>2012-03-03T09:51:29Z</time>
      </trkpt>
      <trkpt lat="45.80192" lon="4.93012">
        <ele>172</ele>
        <time>2012-03-03T09:51:33Z</time>
      </trkpt>
      <trkpt lat="45.80178" lon="4.9301">
        <ele>178</ele>
        <time>2012-03-03T09:51:37Z</time>
      </trkpt>
      <trkpt lat="45.80163" lon="4.92998">
        <ele>182</ele>
        <time>2012-03-03T09:51:41Z</time>
      </trkpt>
      <trkpt lat="45.80148" lon="4.9298">
        <ele>185</ele>
        <time>2012-03-03T09:51:45Z</time>
      </trkpt>
      <trkpt lat="45.80137" lon="4.92965">
        <ele>188</ele>
        <time>2012-03-03T09:51:49Z</time>
      </trkpt>
      <trkpt lat="45.80124" lon="4.92953">
        <ele>188</ele>
        <time>2012-03-03T09:51:53Z</time>
      </trkpt>
      <trkpt lat="45.80113" lon="4.92943">
        <ele>189</ele>
        <time>2012-03-03T09:51:57Z</time>
      </trkpt>
      <trkpt lat="45.80099" lon="4.9294">
        <ele>186</ele>
        <time>2012-03-03T09:52:01Z</time>
      </trkpt>
      <trkpt lat="45.80085" lon="4.92936">
        <ele>186</ele>
        <time>2012-03-03T09:52:05Z</time>
      </trkpt>
      <trkpt lat="45.80071" lon="4.92934">
        <ele>185</ele>
        <time>2012-03-03T09:52:09Z</time>
      </trkpt>
      <trkpt lat="45.80055" lon="4.92936">
        <ele>184</ele>
        <time>2012-03-03T09:52:13Z</time>
      </trkpt>
      <trkpt lat="45.80037" lon="4.92934">
        <ele>187</ele>
        <time>2012-03-03T09:52:17Z</time>
      </trkpt>
      <trkpt lat="45.8002" lon="4.92936">
        <ele>189</ele>
        <time>2012-03-03T09:52:21Z</time>
      </trkpt>
      <trkpt lat="45.80002" lon="4.92938">
        <ele>185</ele>
        <time>2012-03-03T09:52:25Z</time>
      </trkpt>
      <trkpt lat="45.79985" lon="4.92939">
        <ele>188</ele>
        <time>2012-03-03T09:52:29Z</time>
      </trkpt>
      <trkpt lat="45.79969" lon="4.92939">
        <ele>188</ele>
        <time>2012-03-03T09:52:33Z</time>
      </trkpt>
      <trkpt lat="45.79953" lon="4.92937">
        <ele>186</ele>
        <time>2012-03-03T09:52:37Z</time>
      </trkpt>
      <trkpt lat="45.79938" lon="4.92945">
        <ele>189</ele>
        <time>2012-03-03T09:52:41Z</time>
      </trkpt>
      <trkpt lat="45.79921" lon="4.92953">
        <ele>185</ele>
        <time>2012-03-03T09:52:45Z</time>
      </trkpt>
      <trkpt lat="45.79903" lon="4.92957">
        <ele>180</ele>
        <time>2012-03-03T09:52:49Z</time>
      </trkpt>
      <trkpt lat="45.79895" lon="4.92969">
        <ele>183</ele>
        <time>2012-03-03T09:52:53Z</time>
      </trkpt>
      <trkpt lat="45.79892" lon="4.92991">
        <ele>183</ele>
        <time>2012-03-03T09:52:57Z</time>
      </trkpt>
      <trkpt lat="45.79891" lon="4.93005">
        <ele>181</ele>
        <time>2012-03-03T09:53:01Z</time>
      </trkpt>
      <trkpt lat="45.79884" lon="4.93016">
        <ele>182</ele>
        <time>2012-03-03T09:53:05Z</time>
      </trkpt>
      <trkpt lat="45.79877" lon="4.93032">
        <ele>180</ele>
        <time>2012-03-03T09:53:09Z</time>
      </trkpt>
      <trkpt lat="45.7987" lon="4.93053">
        <ele>177</ele>
        <time>2012-03-03T09:53:13Z</time>
      </trkpt>
      <trkpt lat="45.79859" lon="4.93069">
        <ele>177</ele>
        <time>2012-03-03T09:53:17Z</time>
      </trkpt>
      <trkpt lat="45.79848" lon="4.93084">
        <ele>178</ele>
        <time>2012-03-03T09:53:21Z</time>
      </trkpt>
      <trkpt lat="45.79839" lon="4.93103">
        <ele>178</ele>
        <time>2012-03-03T09:53:25Z</time>
      </trkpt>
      <trkpt lat="45.79839" lon="4.93125">
        <ele>177</ele>
        <time>2012-03-03T09:53:29Z</time>
      </trkpt>
      <trkpt lat="45.79844" lon="4.93147">
        <ele>175</ele>
        <time>2012-03-03T09:53:33Z</time>
      </trkpt>
      <trkpt lat="45.79839" lon="4.9317">
        <ele>173</ele>
        <time>2012-03-03T09:53:37Z</time>
      </trkpt>
      <trkpt lat="45.79835" lon="4.9319">
        <ele>177</ele>
        <time>2012-03-03T09:53:41Z</time>
      </trkpt>
      <trkpt lat="45.79838" lon="4.93211">
        <ele>180</ele>
        <time>2012-03-03T09:53:45Z</time>
      </trkpt>
      <trkpt lat="45.7983" lon="4.93227">
        <ele>181</ele>
        <time>2012-03-03T09:53:49Z</time>
      </trkpt>
      <trkpt lat="45.79816" lon="4.93233">
        <ele>187</ele>
        <time>2012-03-03T09:53:53Z</time>
      </trkpt>
      <trkpt lat="45.79804" lon="4.93238">
        <ele>187</ele>
        <time>2012-03-03T09:53:57Z</time>
      </trkpt>
      <trkpt lat="45.79791" lon="4.93244">
        <ele>186</ele>
        <time>2012-03-03T09:54:01Z</time>
      </trkpt>
      <trkpt lat="45.79777" lon="4.93254">
        <ele>184</ele>
        <time>2012-03-03T09:54:05Z</time>
      </trkpt>
      <trkpt lat="45.79775" lon="4.93272">
        <ele>181</ele>
        <time>2012-03-03T09:54:09Z</time>
      </trkpt>
      <trkpt lat="45.79772" lon="4.93289">
        <ele>187</ele>
        <time>2012-03-03T09:54:13Z</time>
      </trkpt>
      <trkpt lat="45.79766" lon="4.93305">
        <ele>187</ele>
        <time>2012-03-03T09:54:17Z</time>
      </trkpt>
      <trkpt lat="45.79764" lon="4.93327">
        <ele>185</ele>
        <time>2012-03-03T09:54:21Z</time>
      </trkpt>
      <trkpt lat="45.79768" lon="4.93349">
        <ele>181</ele>
        <time>2012-03-03T09:54:25Z</time>
      </trkpt>
      <trkpt lat="45.79769" lon="4.93367">
        <ele>181</ele>
        <time>2012-03-03T09:54:29Z</time>
      </trkpt>
      <trkpt lat="45.79771" lon="4.93386">
        <ele>178</ele>
        <time>2012-03-03T09:54:33Z</time>
      </trkpt>
      <trkpt lat="45.79776" lon="4.93404">
        <ele>183</ele>
        <time>2012-03-03T09:54:37Z</time>
      </trkpt>
      <trkpt lat="45.79781" lon="4.93414">
        <ele>179</ele>
        <time>2012-03-03T09:54:41Z</time>
      </trkpt>
      <trkpt lat="45.79789" lon="4.93411">
        <ele>181</ele>
        <time>2012-03-03T09:54:45Z</time>
      </trkpt>
      <trkpt lat="45.79803" lon="4.93404">
        <ele>186</ele>
        <time>2012-03-03T09:54:49Z</time>
      </trkpt>
      <trkpt lat="45.79819" lon="4.93398">
        <ele>186</ele>
        <time>2012-03-03T09:54:53Z</time>
      </trkpt>
      <trkpt lat="45.79834" lon="4.93393">
        <ele>185</ele>
        <time>2012-03-03T09:54:57Z</time>
      </trkpt>
      <trkpt lat="45.79849" lon="4.93392">
        <ele>186</ele>
        <time>2012-03-03T09:55:01Z</time>
      </trkpt>
      <trkpt lat="45.79866" lon="4.93399">
        <ele>179</ele>
        <time>2012-03-03T09:55:05Z</time>
      </trkpt>
      <trkpt lat="45.79881" lon="4.93416">
        <ele>175</ele>
        <time>2012-03-03T09:55:09Z</time>
      </trkpt>
      <trkpt lat="45.79895" lon="4.93437">
        <ele>172</ele>
        <time>2012-03-03T09:55:13Z</time>
      </trkpt>
      <trkpt lat="45.79907" lon="4.93454">
        <ele>176</ele>
        <time>2012-03-03T09:55:17Z</time>
      </trkpt>
      <trkpt lat="45.79919" lon="4.93461">
        <ele>173</ele>
        <time>2012-03-03T09:55:21Z</time>
      </trkpt>
      <trkpt lat="45.79927" lon="4.93448">
        <ele>173</ele>
        <time>2012-03-03T09:55:25Z</time>
      </trkpt>
      <trkpt lat="45.79936" lon="4.93431">
        <ele>175</ele>
        <time>2012-03-03T09:55:29Z</time>
      </trkpt>
      <trkpt lat="45.79948" lon="4.93416">
        <ele>175</ele>
        <time>2012-03-03T09:55:33Z</time>
      </trkpt>
      <trkpt lat="45.79961" lon="4.93402">
        <ele>181</ele>
        <time>2012-03-03T09:55:37Z</time>
      </trkpt>
      <trkpt lat="45.79975" lon="4.93397">
        <ele>185</ele>
        <time>2012-03-03T09:55:41Z</time>
      </trkpt>
      <trkpt lat="45.79992" lon="4.93395">
        <ele>186</ele>
        <time>2012-03-03T09:55:45Z</time>
      </trkpt>
      <trkpt lat="45.80008" lon="4.93392">
        <ele>188</ele>
        <time>2012-03-03T09:55:49Z</time>
      </trkpt>
      <trkpt lat="45.80022" lon="4.93397">
        <ele>187</ele>
        <time>2012-03-03T09:55:53Z</time>
      </trkpt>
      <trkpt lat="45.80036" lon="4.93393">
        <ele>191</ele>
        <time>2012-03-03T09:55:57Z</time>
      </trkpt>
      <trkpt lat="45.80051" lon="4.93383">
        <ele>187</ele>
        <time>2012-03-03T09:56:01Z</time>
      </trkpt>
      <trkpt lat="45.80067" lon="4.93373">
        <ele>187</ele>
        <time>2012-03-03T09:56:05Z</time>
      </trkpt>
      <trkpt lat="45.80082" lon="4.93372">
        <ele>192</ele>
        <time>2012-03-03T09:56:09Z</time>
      </trkpt>
      <trkpt lat="45.80098" lon="4.93376">
        <ele>190</ele>
        <time>2012-03-03T09:56:13Z</time>
      </trkpt>
      <trkpt lat="45.80112" lon="4.93382">
        <ele>189</ele>
        <time>2012-03-03T09:56:17Z</time>
      </trkpt>
      <trkpt lat="45.80121" lon="4.93397">
        <ele>185</ele>
        <time>2012-03-03T09:56:21Z</time>
      </trkpt>
      <trkpt lat="45.8013" lon="4.93413">
        <ele>186</ele>
        <time>2012-03-03T09:56:25Z</time>
      </trkpt>
      <trkpt lat="45.80127" lon="4.93429">
        <ele>185</ele>
        <time>2012-03-03T09:56:29Z</time>
      </trkpt>
      <trkpt lat="45.80127" lon="4.93452">
        <ele>185</ele>
        <time>2012-03-03T09:56:33Z</time>
      </trkpt>
      <trkpt lat="45.80123" lon="4.93475">
        <ele>181</ele>
        <time>2012-03-03T09:56:37Z</time>
      </trkpt>
      <trkpt lat="45.80116" lon="4.93489">
        <ele>182</ele>
        <time>2012-03-03T09:56:41Z</time>
      </trkpt>
      <trkpt lat="45.80108" lon="4.93512">
        <ele>184</ele>
        <time>2012-03-03T09:56:45Z</time>
      </trkpt>
      <trkpt lat="45.801" lon="4.93522">
        <ele>190</ele>
        <time>2012-03-03T09:56:49Z</time>
      </trkpt>
      <trkpt lat="45.80085" lon="4.93527">
        <ele>197</ele>
        <time>2012-03-03T09:56:53Z</time>
      </trkpt>
      <trkpt lat="45.80072" lon="4.93531">
        <ele>199</ele>
        <time>2012-03-03T09:56:57Z</time>
      </trkpt>
      <trkpt lat="45.80058" lon="4.93542">
        <ele>196</ele>
        <time>2012-03-03T09:57:01Z</time>
      </trkpt>
      <trkpt lat="45.80039" lon="4.93542">
        <ele>191</ele>
        <time>2012-03-03T09:57:05Z</time>
      </trkpt>
      <trkpt lat="45.80022" lon="4.93543">
        <ele>188</ele>
        <time>2012-03-03T09:57:09Z</time>
      </trkpt>
      <trkpt lat="45.80011" lon="4.93546">
        <ele>190</ele>
        <time>2012-03-03T09:57:13Z</time>
      </trkpt>
      <trkpt lat="45.8" lon="4.93554">
        <ele>194</ele>
        <time>2012-03-03T09:57:17Z</time>
      </trkpt>
      <trkpt lat="45.7999" lon="4.93564">
        <ele>195</ele>
        <time>2012-03-03T09:57:21Z</time>
      </trkpt>
      <trkpt lat="45.79977" lon="4.9358">
        <ele>188</ele>
        <time>2012-03-03T09:57:25Z</time>
      </trkpt>
      <trkpt lat="45.79968" lon="4.93594">
        <ele>187</ele>
        <time>2012-03-03T09:57:29Z</time>
      </trkpt>
      <trkpt lat="45.79966" lon="4.93607">
        <ele>189</ele>
        <time>2012-03-03T09:57:33Z</time>
      </trkpt>
      <trkpt lat="45.79971" lon="4.93623">
        <ele>190</ele>
        <time>2012-03-03T09:57:37Z</time>
      </trkpt>
      <trkpt lat="45.79976" lon="4.93633">
        <ele>184</ele>
        <time>2012-03-03T09:57:41Z</time>
      </trkpt>
      <trkpt lat="45.79984" lon="4.93638">
        <ele>183</ele>
        <time>2012-03-03T09:57:45Z</time>
      </trkpt>
      <trkpt lat="45.79993" lon="4.93642">
        <ele>187</ele>
        <time>2012-03-03T09:57:49Z</time>
      </trkpt>
      <trkpt lat="45.80005" lon="4.93652">
        <ele>182</ele>
        <time>2012-03-03T09:57:53Z</time>
      </trkpt>
      <trkpt lat="45.80015" lon="4.93666">
        <ele>178</ele>
        <time>2012-03-03T09:57:57Z</time>
      </trkpt>
      <trkpt lat="45.80027" lon="4.93669">
        <ele>181</ele>
        <time>2012-03-03T09:58:01Z</time>
      </trkpt>
      <trkpt lat="45.80035" lon="4.93674">
        <ele>181</ele>
        <time>2012-03-03T09:58:05Z</time>
      </trkpt>
      <trkpt lat="45.80044" lon="4.93689">
        <ele>181</ele>
        <time>2012-03-03T09:58:09Z</time>
      </trkpt>
      <trkpt lat="45.80057" lon="4.93687">
        <ele>186</ele>
        <time>2012-03-03T09:58:13Z</time>
      </trkpt>
      <trkpt lat="45.80076" lon="4.93676">
        <ele>185</ele>
        <time>2012-03-03T09:58:17Z</time>
      </trkpt>
      <trkpt lat="45.80093" lon="4.93664">
        <ele>186</ele>
        <time>2012-03-03T09:58:21Z</time>
      </trkpt>
      <trkpt lat="45.80109" lon="4.93653">
        <ele>189</ele>
        <time>2012-03-03T09:58:25Z</time>
      </trkpt>
      <trkpt lat="45.80117" lon="4.93652">
        <ele>193</ele>
        <time>2012-03-03T09:59:13Z</time>
      </trkpt>
      <trkpt lat="45.80129" lon="4.93644">
        <ele>190</ele>
        <time>2012-03-03T09:59:17Z</time>
      </trkpt>
      <trkpt lat="45.80142" lon="4.93633">
        <ele>185</ele>
        <time>2012-03-03T09:59:21Z</time>
      </trkpt>
      <trkpt lat="45.80158" lon="4.93619">
        <ele>186</ele>
        <time>2012-03-03T09:59:25Z</time>
      </trkpt>
      <trkpt lat="45.80172" lon="4.93604">
        <ele>186</ele>
        <time>2012-03-03T09:59:29Z</time>
      </trkpt>
      <trkpt lat="45.80188" lon="4.93585">
        <ele>182</ele>
        <time>2012-03-03T09:59:33Z</time>
      </trkpt>
      <trkpt lat="45.80203" lon="4.93566">
        <ele>182</ele>
        <time>2012-03-03T09:59:37Z</time>
      </trkpt>
      <trkpt lat="45.80219" lon="4.9354">
        <ele>180</ele>
        <time>2012-03-03T09:59:41Z</time>
      </trkpt>
      <trkpt lat="45.80238" lon="4.9352">
        <ele>182</ele>
        <time>2012-03-03T09:59:45Z</time>
      </trkpt>
      <trkpt lat="45.80257" lon="4.93504">
        <ele>181</ele>
        <time>2012-03-03T09:59:49Z</time>
      </trkpt>
      <trkpt lat="45.80278" lon="4.93486">
        <ele>180</ele>
        <time>2012-03-03T09:59:53Z</time>
      </trkpt>
      <trkpt lat="45.80287" lon="4.93461">
        <ele>180</ele>
        <time>2012-03-03T09:59:57Z</time>
      </trkpt>
      <trkpt lat="45.80302" lon="4.93439">
        <ele>181</ele>
        <time>2012-03-03T10:00:01Z</time>
      </trkpt>
      <trkpt lat="45.80319" lon="4.9342">
        <ele>180</ele>
        <time>2012-03-03T10:00:05Z</time>
      </trkpt>
      <trkpt lat="45.80341" lon="4.93408">
        <ele>181</ele>
        <time>2012-03-03T10:00:09Z</time>
      </trkpt>
      <trkpt lat="45.80372" lon="4.93393">
        <ele>179</ele>
        <time>2012-03-03T10:00:13Z</time>
      </trkpt>
      <trkpt lat="45.80406" lon="4.93378">
        <ele>175</ele>
        <time>2012-03-03T10:00:17Z</time>
      </trkpt>
      <trkpt lat="45.80436" lon="4.93367">
        <ele>173</ele>
        <time>2012-03-03T10:00:21Z</time>
      </trkpt>
      <trkpt lat="45.80459" lon="4.93357">
        <ele>174</ele>
        <time>2012-03-03T10:00:25Z</time>
      </trkpt>
      <trkpt lat="45.80476" lon="4.9335">
        <ele>177</ele>
        <time>2012-03-03T10:00:29Z</time>
      </trkpt>
      <trkpt lat="45.80488" lon="4.93347">
        <ele>180</ele>
        <time>2012-03-03T10:00:33Z</time>
      </trkpt>
      <trkpt lat="45.80493" lon="4.93339">
        <ele>179</ele>
        <time>2012-03-03T10:00:37Z</time>
      </trkpt>
      <trkpt lat="45.80484" lon="4.9332">
        <ele>179</ele>
        <time>2012-03-03T10:00:41Z</time>
      </trkpt>
      <trkpt lat="45.8047" lon="4.93303">
        <ele>176</ele>
        <time>2012-03-03T10:00:45Z</time>
      </trkpt>
      <trkpt lat="45.80465" lon="4.93279">
        <ele>180</ele>
        <time>2012-03-03T10:00:49Z</time>
      </trkpt>
      <trkpt lat="45.80459" lon="4.93253">
        <ele>180</ele>
        <time>2012-03-03T10:00:53Z</time>
      </trkpt>
      <trkpt lat="45.80447" lon="4.93234">
        <ele>180</ele>
        <time>2012-03-03T10:00:57Z</time>
      </trkpt>
      <trkpt lat="45.80442" lon="4.93199">
        <ele>179</ele>
        <time>2012-03-03T10:01:01Z</time>
      </trkpt>
      <trkpt lat="45.80444" lon="4.93169">
        <ele>178</ele>
        <time>2012-03-03T10:01:05Z</time>
      </trkpt>
      <trkpt lat="45.8044" lon="4.93141">
        <ele>179</ele>
        <time>2012-03-03T10:01:09Z</time>
      </trkpt>
      <trkpt lat="45.80434" lon="4.93115">
        <ele>179</ele>
        <time>2012-03-03T10:01:13Z</time>
      </trkpt>
      <trkpt lat="45.80429" lon="4.93087">
        <ele>179</ele>
        <time>2012-03-03T10:01:17Z</time>
      </trkpt>
      <trkpt lat="45.80423" lon="4.93063">
        <ele>179</ele>
        <time>2012-03-03T10:01:21Z</time>
      </trkpt>
      <trkpt lat="45.80416" lon="4.93036">
        <ele>179</ele>
        <time>2012-03-03T10:01:25Z</time>
      </trkpt>
      <trkpt lat="45.80411" lon="4.9301">
        <ele>179</ele>
        <time>2012-03-03T10:01:29Z</time>
      </trkpt>
      <trkpt lat="45.80409" lon="4.92985">
        <ele>181</ele>
        <time>2012-03-03T10:01:33Z</time>
      </trkpt>
      <trkpt lat="45.80405" lon="4.92961">
        <ele>185</ele>
        <time>2012-03-03T10:01:37Z</time>
      </trkpt>
      <trkpt lat="45.80401" lon="4.92937">
        <ele>186</ele>
        <time>2012-03-03T10:01:41Z</time>
      </trkpt>
      <trkpt lat="45.80397" lon="4.92911">
        <ele>185</ele>
        <time>2012-03-03T10:01:45Z</time>
      </trkpt>
      <trkpt lat="45.8039" lon="4.92883">
        <ele>185</ele>
        <time>2012-03-03T10:01:49Z</time>
      </trkpt>
      <trkpt lat="45.80381" lon="4.92855">
        <ele>187</ele>
        <time>2012-03-03T10:01:53Z</time>
      </trkpt>
      <trkpt lat="45.80376" lon="4.92829">
        <ele>187</ele>
        <time>2012-03-03T10:01:57Z</time>
      </trkpt>
      <trkpt lat="45.80369" lon="4.92803">
        <ele>185</ele>
        <time>2012-03-03T10:02:01Z</time>
      </trkpt>
      <trkpt lat="45.80368" lon="4.92776">
        <ele>185</ele>
        <time>2012-03-03T10:02:05Z</time>
      </trkpt>
      <trkpt lat="45.80364" lon="4.92753">
        <ele>184</ele>
        <time>2012-03-03T10:02:09Z</time>
      </trkpt>
      <trkpt lat="45.80356" lon="4.92726">
        <ele>184</ele>
        <time>2012-03-03T10:02:13Z</time>
      </trkpt>
      <trkpt lat="45.80344" lon="4.92699">
        <ele>184</ele>
        <time>2012-03-03T10:02:17Z</time>
      </trkpt>
      <trkpt lat="45.80333" lon="4.92672">
        <ele>181</ele>
        <time>2012-03-03T10:02:21Z</time>
      </trkpt>
      <trkpt lat="45.80325" lon="4.92645">
        <ele>179</ele>
        <time>2012-03-03T10:02:25Z</time>
      </trkpt>
      <trkpt lat="45.8032" lon="4.92617">
        <ele>180</ele>
        <time>2012-03-03T10:02:29Z</time>
      </trkpt>
      <trkpt lat="45.80321" lon="4.92589">
        <ele>176</ele>
        <time>2012-03-03T10:02:33Z</time>
      </trkpt>
      <trkpt lat="45.80321" lon="4.92559">
        <ele>177</ele>
        <time>2012-03-03T10:02:37Z</time>
      </trkpt>
      <trkpt lat="45.8033" lon="4.92534">
        <ele>176</ele>
        <time>2012-03-03T10:02:41Z</time>
      </trkpt>
      <trkpt lat="45.80342" lon="4.92512">
        <ele>172</ele>
        <time>2012-03-03T10:02:45Z</time>
      </trkpt>
      <trkpt lat="45.80355" lon="4.92492">
        <ele>174</ele>
        <time>2012-03-03T10:02:49Z</time>
      </trkpt>
      <trkpt lat="45.80369" lon="4.92474">
        <ele>175</ele>
        <time>2012-03-03T10:02:53Z</time>
      </trkpt>
      <trkpt lat="45.80385" lon="4.92463">
        <ele>179</ele>
        <time>2012-03-03T10:02:57Z</time>
      </trkpt>
      <trkpt lat="45.80401" lon="4.92454">
        <ele>180</ele>
        <time>2012-03-03T10:03:01Z</time>
      </trkpt>
      <trkpt lat="45.80418" lon="4.92444">
        <ele>181</ele>
        <time>2012-03-03T10:03:05Z</time>
      </trkpt>
      <trkpt lat="45.80437" lon="4.92432">
        <ele>180</ele>
        <time>2012-03-03T10:03:09Z</time>
      </trkpt>
      <trkpt lat="45.80452" lon="4.92421">
        <ele>182</ele>
        <time>2012-03-03T10:03:13Z</time>
      </trkpt>
      <trkpt lat="45.80468" lon="4.92409">
        <ele>183</ele>
        <time>2012-03-03T10:03:17Z</time>
      </trkpt>
      <trkpt lat="45.80483" lon="4.92393">
        <ele>185</ele>
        <time>2012-03-03T10:03:21Z</time>
      </trkpt>
      <trkpt lat="45.80498" lon="4.92379">
        <ele>184</ele>
        <time>2012-03-03T10:03:25Z</time>
      </trkpt>
      <trkpt lat="45.80513" lon="4.92367">
        <ele>180</ele>
        <time>2012-03-03T10:03:29Z</time>
      </trkpt>
      <trkpt lat="45.80528" lon="4.92353">
        <ele>183</ele>
        <time>2012-03-03T10:03:33Z</time>
      </trkpt>
      <trkpt lat="45.80545" lon="4.92338">
        <ele>182</ele>
        <time>2012-03-03T10:03:37Z</time>
      </trkpt>
      <trkpt lat="45.80561" lon="4.92327">
        <ele>180</ele>
        <time>2012-03-03T10:03:41Z</time>
      </trkpt>
      <trkpt lat="45.80577" lon="4.92312">
        <ele>181</ele>
        <time>2012-03-03T10:03:45Z</time>
      </trkpt>
      <trkpt lat="45.80595" lon="4.92302">
        <ele>182</ele>
        <time>2012-03-03T10:03:49Z</time>
      </trkpt>
      <trkpt lat="45.8061" lon="4.92296">
        <ele>182</ele>
        <time>2012-03-03T10:03:53Z</time>
      </trkpt>
      <trkpt lat="45.80625" lon="4.92298">
        <ele>179</ele>
        <time>2012-03-03T10:03:57Z</time>
      </trkpt>
      <trkpt lat="45.80638" lon="4.92305">
        <ele>180</ele>
        <time>2012-03-03T10:04:01Z</time>
      </trkpt>
      <trkpt lat="45.80655" lon="4.92314">
        <ele>182</ele>
        <time>2012-03-03T10:04:05Z</time>
      </trkpt>
      <trkpt lat="45.80674" lon="4.92328">
        <ele>180</ele>
        <time>2012-03-03T10:04:09Z</time>
      </trkpt>
      <trkpt lat="45.80694" lon="4.92347">
        <ele>175</ele>
        <time>2012-03-03T10:04:13Z</time>
      </trkpt>
      <trkpt lat="45.80712" lon="4.92368">
        <ele>172</ele>
        <time>2012-03-03T10:04:17Z</time>
      </trkpt>
      <trkpt lat="45.80727" lon="4.92387">
        <ele>172</ele>
        <time>2012-03-03T10:04:21Z</time>
      </trkpt>
      <trkpt lat="45.80745" lon="4.92405">
        <ele>169</ele>
        <time>2012-03-03T10:04:25Z</time>
      </trkpt>
      <trkpt lat="45.80759" lon="4.92422">
        <ele>172</ele>
        <time>2012-03-03T10:04:29Z</time>
      </trkpt>
      <trkpt lat="45.80774" lon="4.92438">
        <ele>174</ele>
        <time>2012-03-03T10:04:33Z</time>
      </trkpt>
      <trkpt lat="45.80789" lon="4.92452">
        <ele>177</ele>
        <time>2012-03-03T10:04:37Z</time>
      </trkpt>
      <trkpt lat="45.808" lon="4.92469">
        <ele>178</ele>
        <time>2012-03-03T10:04:41Z</time>
      </trkpt>
      <trkpt lat="45.80812" lon="4.92488">
        <ele>184</ele>
        <time>2012-03-03T10:04:45Z</time>
      </trkpt>
      <trkpt lat="45.80822" lon="4.9251">
        <ele>182</ele>
        <time>2012-03-03T10:04:49Z</time>
      </trkpt>
      <trkpt lat="45.80832" lon="4.92529">
        <ele>183</ele>
        <time>2012-03-03T10:04:53Z</time>
      </trkpt>
      <trkpt lat="45.8084" lon="4.9255">
        <ele>185</ele>
        <time>2012-03-03T10:04:57Z</time>
      </trkpt>
      <trkpt lat="45.80848" lon="4.92574">
        <ele>187</ele>
        <time>2012-03-03T10:05:01Z</time>
      </trkpt>
      <trkpt lat="45.80856" lon="4.92599">
        <ele>188</ele>
        <time>2012-03-03T10:05:05Z</time>
      </trkpt>
      <trkpt lat="45.80863" lon="4.92622">
        <ele>192</ele>
        <time>2012-03-03T10:05:09Z</time>
      </trkpt>
      <trkpt lat="45.80871" lon="4.92647">
        <ele>188</ele>
        <time>2012-03-03T10:05:13Z</time>
      </trkpt>
      <trkpt lat="45.80876" lon="4.92676">
        <ele>187</ele>
        <time>2012-03-03T10:05:17Z</time>
      </trkpt>
      <trkpt lat="45.80886" lon="4.92704">
        <ele>185</ele>
        <time>2012-03-03T10:05:21Z</time>
      </trkpt>
      <trkpt lat="45.80886" lon="4.92731">
        <ele>183</ele>
        <time>2012-03-03T10:05:25Z</time>
      </trkpt>
      <trkpt lat="45.80886" lon="4.92759">
        <ele>180</ele>
        <time>2012-03-03T10:05:29Z</time>
      </trkpt>
      <trkpt lat="45.8089" lon="4.92788">
        <ele>176</ele>
        <time>2012-03-03T10:05:33Z</time>
      </trkpt>
      <trkpt lat="45.809" lon="4.92805">
        <ele>175</ele>
        <time>2012-03-03T10:05:37Z</time>
      </trkpt>
      <trkpt lat="45.80912" lon="4.92817">
        <ele>178</ele>
        <time>2012-03-03T10:05:41Z</time>
      </trkpt>
      <trkpt lat="45.80927" lon="4.9283">
        <ele>181</ele>
        <time>2012-03-03T10:05:45Z</time>
      </trkpt>
      <trkpt lat="45.80943" lon="4.92842">
        <ele>182</ele>
        <time>2012-03-03T10:05:49Z</time>
      </trkpt>
      <trkpt lat="45.80958" lon="4.92857">
        <ele>181</ele>
        <time>2012-03-03T10:05:53Z</time>
      </trkpt>
      <trkpt lat="45.80969" lon="4.92877">
        <ele>178</ele>
        <time>2012-03-03T10:05:57Z</time>
      </trkpt>
      <trkpt lat="45.80982" lon="4.92896">
        <ele>182</ele>
        <time>2012-03-03T10:06:01Z</time>
      </trkpt>
      <trkpt lat="45.80994" lon="4.92912">
        <ele>183</ele>
        <time>2012-03-03T10:06:05Z</time>
      </trkpt>
      <trkpt lat="45.81005" lon="4.92931">
        <ele>185</ele>
        <time>2012-03-03T10:06:09Z</time>
      </trkpt>
      <trkpt lat="45.8102" lon="4.9295">
        <ele>186</ele>
        <time>2012-03-03T10:06:13Z</time>
      </trkpt>
      <trkpt lat="45.81038" lon="4.92971">
        <ele>184</ele>
        <time>2012-03-03T10:06:17Z</time>
      </trkpt>
      <trkpt lat="45.81054" lon="4.92988">
        <ele>186</ele>
        <time>2012-03-03T10:06:21Z</time>
      </trkpt>
      <trkpt lat="45.8107" lon="4.93007">
        <ele>186</ele>
        <time>2012-03-03T10:06:25Z</time>
      </trkpt>
      <trkpt lat="45.81085" lon="4.93023">
        <ele>188</ele>
        <time>2012-03-03T10:06:29Z</time>
      </trkpt>
      <trkpt lat="45.81097" lon="4.93037">
        <ele>185</ele>
        <time>2012-03-03T10:06:33Z</time>
      </trkpt>
      <trkpt lat="45.81109" lon="4.93054">
        <ele>193</ele>
        <time>2012-03-03T10:06:37Z</time>
      </trkpt>
      <trkpt lat="45.81126" lon="4.93072">
        <ele>192</ele>
        <time>2012-03-03T10:06:41Z</time>
      </trkpt>
      <trkpt lat="45.81133" lon="4.93101">
        <ele>184</ele>
        <time>2012-03-03T10:06:45Z</time>
      </trkpt>
      <trkpt lat="45.81146" lon="4.93128">
        <ele>176</ele>
        <time>2012-03-03T10:06:49Z</time>
      </trkpt>
      <trkpt lat="45.81156" lon="4.93144">
        <ele>175</ele>
        <time>2012-03-03T10:06:53Z</time>
      </trkpt>
      <trkpt lat="45.81168" lon="4.93165">
        <ele>172</ele>
        <time>2012-03-03T10:06:57Z</time>
      </trkpt>
      <trkpt lat="45.81179" lon="4.93185">
        <ele>173</ele>
        <time>2012-03-03T10:07:01Z</time>
      </trkpt>
      <trkpt lat="45.81192" lon="4.93204">
        <ele>171</ele>
        <time>2012-03-03T10:07:05Z</time>
      </trkpt>
      <trkpt lat="45.81204" lon="4.93222">
        <ele>179</ele>
        <time>2012-03-03T10:07:09Z</time>
      </trkpt>
      <trkpt lat="45.81216" lon="4.93246">
        <ele>177</ele>
        <time>2012-03-03T10:07:13Z</time>
      </trkpt>
      <trkpt lat="45.81228" lon="4.93272">
        <ele>176</ele>
        <time>2012-03-03T10:07:17Z</time>
      </trkpt>
      <trkpt lat="45.81241" lon="4.93297">
        <ele>175</ele>
        <time>2012-03-03T10:07:21Z</time>
      </trkpt>
      <trkpt lat="45.81249" lon="4.93323">
        <ele>173</ele>
        <time>2012-03-03T10:07:25Z</time>
      </trkpt>
      <trkpt lat="45.81256" lon="4.93349">
        <ele>173</ele>
        <time>2012-03-03T10:07:29Z</time>
      </trkpt>
      <trkpt lat="45.81268" lon="4.93373">
        <ele>173</ele>
        <time>2012-03-03T10:07:33Z</time>
      </trkpt>
      <trkpt lat="45.81279" lon="4.93396">
        <ele>172</ele>
        <time>2012-03-03T10:07:37Z</time>
      </trkpt>
      <trkpt lat="45.81289" lon="4.93418">
        <ele>175</ele>
        <time>2012-03-03T10:07:41Z</time>
      </trkpt>
      <trkpt lat="45.81302" lon="4.93439">
        <ele>176</ele>
        <time>2012-03-03T10:07:45Z</time>
      </trkpt>
      <trkpt lat="45.81315" lon="4.93463">
        <ele>174</ele>
        <time>2012-03-03T10:07:49Z</time>
      </trkpt>
      <trkpt lat="45.81326" lon="4.93489">
        <ele>173</ele>
        <time>2012-03-03T10:07:53Z</time>
      </trkpt>
      <trkpt lat="45.81337" lon="4.93512">
        <ele>173</ele>
        <time>2012-03-03T10:07:57Z</time>
      </trkpt>
      <trkpt lat="45.81349" lon="4.93535">
        <ele>175</ele>
        <time>2012-03-03T10:08:01Z</time>
      </trkpt>
      <trkpt lat="45.81361" lon="4.93555">
        <ele>172</ele>
        <time>2012-03-03T10:08:05Z</time>
      </trkpt>
      <trkpt lat="45.81371" lon="4.93574">
        <ele>171</ele>
        <time>2012-03-03T10:08:09Z</time>
      </trkpt>
      <trkpt lat="45.81381" lon="4.93594">
        <ele>171</ele>
        <time>2012-03-03T10:08:13Z</time>
      </trkpt>
      <trkpt lat="45.81392" lon="4.93617">
        <ele>171</ele>
        <time>2012-03-03T10:08:17Z</time>
      </trkpt>
      <trkpt lat="45.81403" lon="4.9364">
        <ele>171</ele>
        <time>2012-03-03T10:08:21Z</time>
      </trkpt>
      <trkpt lat="45.81412" lon="4.93662">
        <ele>173</ele>
        <time>2012-03-03T10:08:25Z</time>
      </trkpt>
      <trkpt lat="45.81413" lon="4.9368">
        <ele>180</ele>
        <time>2012-03-03T10:08:29Z</time>
      </trkpt>
      <trkpt lat="45.81419" lon="4.93701">
        <ele>181</ele>
        <time>2012-03-03T10:08:33Z</time>
      </trkpt>
      <trkpt lat="45.81429" lon="4.93724">
        <ele>177</ele>
        <time>2012-03-03T10:08:37Z</time>
      </trkpt>
      <trkpt lat="45.81439" lon="4.93747">
        <ele>177</ele>
        <time>2012-03-03T10:08:41Z</time>
      </trkpt>
      <trkpt lat="45.8145" lon="4.9377">
        <ele>176</ele>
        <time>2012-03-03T10:08:45Z</time>
      </trkpt>
      <trkpt lat="45.8146" lon="4.93795">
        <ele>174</ele>
        <time>2012-03-03T10:08:49Z</time>
      </trkpt>
      <trkpt lat="45.81471" lon="4.93819">
        <ele>173</ele>
        <time>2012-03-03T10:08:53Z</time>
      </trkpt>
      <trkpt lat="45.81481" lon="4.93842">
        <ele>176</ele>
        <time>2012-03-03T10:08:57Z</time>
      </trkpt>
      <trkpt lat="45.8149" lon="4.93861">
        <ele>179</ele>
        <time>2012-03-03T10:09:01Z</time>
      </trkpt>
      <trkpt lat="45.81501" lon="4.93885">
        <ele>178</ele>
        <time>2012-03-03T10:09:05Z</time>
      </trkpt>
      <trkpt lat="45.81511" lon="4.9391">
        <ele>175</ele>
        <time>2012-03-03T10:09:09Z</time>
      </trkpt>
      <trkpt lat="45.81522" lon="4.93933">
        <ele>174</ele>
        <time>2012-03-03T10:09:13Z</time>
      </trkpt>
      <trkpt lat="45.81533" lon="4.93959">
        <ele>180</ele>
        <time>2012-03-03T10:09:17Z</time>
      </trkpt>
      <trkpt lat="45.81543" lon="4.93983">
        <ele>177</ele>
        <time>2012-03-03T10:09:21Z</time>
      </trkpt>
      <trkpt lat="45.81553" lon="4.94008">
        <ele>184</ele>
        <time>2012-03-03T10:09:25Z</time>
      </trkpt>
      <trkpt lat="45.81563" lon="4.94032">
        <ele>178</ele>
        <time>2012-03-03T10:09:29Z</time>
      </trkpt>
      <trkpt lat="45.81574" lon="4.94057">
        <ele>177</ele>
        <time>2012-03-03T10:09:33Z</time>
      </trkpt>
      <trkpt lat="45.81585" lon="4.94082">
        <ele>175</ele>
        <time>2012-03-03T10:09:37Z</time>
      </trkpt>
      <trkpt lat="45.81597" lon="4.94109">
        <ele>173</ele>
        <time>2012-03-03T10:09:41Z</time>
      </trkpt>
      <trkpt lat="45.81611" lon="4.94133">
        <ele>170</ele>
        <time>2012-03-03T10:09:45Z</time>
      </trkpt>
      <trkpt lat="45.81622" lon="4.94155">
        <ele>179</ele>
        <time>2012-03-03T10:09:49Z</time>
      </trkpt>
      <trkpt lat="45.81633" lon="4.94182">
        <ele>177</ele>
        <time>2012-03-03T10:09:53Z</time>
      </trkpt>
      <trkpt lat="45.81648" lon="4.94214">
        <ele>176</ele>
        <time>2012-03-03T10:09:57Z</time>
      </trkpt>
      <trkpt lat="45.81661" lon="4.94243">
        <ele>176</ele>
        <time>2012-03-03T10:10:01Z</time>
      </trkpt>
      <trkpt lat="45.81673" lon="4.9427">
        <ele>174</ele>
        <time>2012-03-03T10:10:05Z</time>
      </trkpt>
      <trkpt lat="45.81686" lon="4.94295">
        <ele>172</ele>
        <time>2012-03-03T10:10:09Z</time>
      </trkpt>
      <trkpt lat="45.81698" lon="4.94321">
        <ele>174</ele>
        <time>2012-03-03T10:10:13Z</time>
      </trkpt>
      <trkpt lat="45.81709" lon="4.94347">
        <ele>171</ele>
        <time>2012-03-03T10:10:17Z</time>
      </trkpt>
      <trkpt lat="45.81722" lon="4.94373">
        <ele>170</ele>
        <time>2012-03-03T10:10:21Z</time>
      </trkpt>
      <trkpt lat="45.81733" lon="4.944">
        <ele>172</ele>
        <time>2012-03-03T10:10:25Z</time>
      </trkpt>
      <trkpt lat="45.81744" lon="4.94428">
        <ele>171</ele>
        <time>2012-03-03T10:10:29Z</time>
      </trkpt>
      <trkpt lat="45.81757" lon="4.94456">
        <ele>170</ele>
        <time>2012-03-03T10:10:33Z</time>
      </trkpt>
      <trkpt lat="45.81768" lon="4.94485">
        <ele>170</ele>
        <time>2012-03-03T10:10:37Z</time>
      </trkpt>
      <trkpt lat="45.8178" lon="4.94512">
        <ele>171</ele>
        <time>2012-03-03T10:10:41Z</time>
      </trkpt>
      <trkpt lat="45.81791" lon="4.9454">
        <ele>171</ele>
        <time>2012-03-03T10:10:45Z</time>
      </trkpt>
      <trkpt lat="45.81804" lon="4.94567">
        <ele>172</ele>
        <time>2012-03-03T10:10:49Z</time>
      </trkpt>
      <trkpt lat="45.81815" lon="4.94594">
        <ele>172</ele>
        <time>2012-03-03T10:10:53Z</time>
      </trkpt>
      <trkpt lat="45.81826" lon="4.9462">
        <ele>176</ele>
        <time>2012-03-03T10:10:57Z</time>
      </trkpt>
      <trkpt lat="45.81835" lon="4.94647">
        <ele>177</ele>
        <time>2012-03-03T10:11:01Z</time>
      </trkpt>
      <trkpt lat="45.81846" lon="4.94675">
        <ele>178</ele>
        <time>2012-03-03T10:11:05Z</time>
      </trkpt>
      <trkpt lat="45.81855" lon="4.94704">
        <ele>173</ele>
        <time>2012-03-03T10:11:09Z</time>
      </trkpt>
      <trkpt lat="45.81865" lon="4.94735">
        <ele>171</ele>
        <time>2012-03-03T10:11:13Z</time>
      </trkpt>
      <trkpt lat="45.81872" lon="4.94759">
        <ele>169</ele>
        <time>2012-03-03T10:11:17Z</time>
      </trkpt>
      <trkpt lat="45.81879" lon="4.9478">
        <ele>170</ele>
        <time>2012-03-03T10:11:21Z</time>
      </trkpt>
      <trkpt lat="45.81886" lon="4.94798">
        <ele>172</ele>
        <time>2012-03-03T10:11:25Z</time>
      </trkpt>
      <trkpt lat="45.81893" lon="4.9481">
        <ele>179</ele>
        <time>2012-03-03T10:11:29Z</time>
      </trkpt>
      <trkpt lat="45.81903" lon="4.94808">
        <ele>179</ele>
        <time>2012-03-03T10:11:33Z</time>
      </trkpt>
      <trkpt lat="45.81915" lon="4.94796">
        <ele>185</ele>
        <time>2012-03-03T10:11:37Z</time>
      </trkpt>
      <trkpt lat="45.8193" lon="4.94784">
        <ele>191</ele>
        <time>2012-03-03T10:11:41Z</time>
      </trkpt>
      <trkpt lat="45.81946" lon="4.94771">
        <ele>192</ele>
        <time>2012-03-03T10:11:45Z</time>
      </trkpt>
      <trkpt lat="45.81963" lon="4.94757">
        <ele>195</ele>
        <time>2012-03-03T10:11:49Z</time>
      </trkpt>
      <trkpt lat="45.8198" lon="4.94745">
        <ele>193</ele>
        <time>2012-03-03T10:11:53Z</time>
      </trkpt>
      <trkpt lat="45.81993" lon="4.94737">
        <ele>189</ele>
        <time>2012-03-03T10:11:57Z</time>
      </trkpt>
      <trkpt lat="45.81998" lon="4.94723">
        <ele>183</ele>
        <time>2012-03-03T10:12:01Z</time>
      </trkpt>
      <trkpt lat="45.81993" lon="4.94697">
        <ele>181</ele>
        <time>2012-03-03T10:12:05Z</time>
      </trkpt>
      <trkpt lat="45.81986" lon="4.94659">
        <ele>177</ele>
        <time>2012-03-03T10:12:09Z</time>
      </trkpt>
      <trkpt lat="45.81976" lon="4.94629">
        <ele>174</ele>
        <time>2012-03-03T10:12:13Z</time>
      </trkpt>
      <trkpt lat="45.81962" lon="4.94638">
        <ele>176</ele>
        <time>2012-03-03T10:12:17Z</time>
      </trkpt>
      <trkpt lat="45.81965" lon="4.94668">
        <ele>176</ele>
        <time>2012-03-03T10:12:21Z</time>
      </trkpt>
      <trkpt lat="45.81977" lon="4.947">
        <ele>177</ele>
        <time>2012-03-03T10:12:25Z</time>
      </trkpt>
      <trkpt lat="45.81987" lon="4.9473">
        <ele>173</ele>
        <time>2012-03-03T10:12:29Z</time>
      </trkpt>
      <trkpt lat="45.81997" lon="4.94758">
        <ele>177</ele>
        <time>2012-03-03T10:12:33Z</time>
      </trkpt>
      <trkpt lat="45.82009" lon="4.94789">
        <ele>176</ele>
        <time>2012-03-03T10:12:37Z</time>
      </trkpt>
      <trkpt lat="45.82021" lon="4.94821">
        <ele>175</ele>
        <time>2012-03-03T10:12:41Z</time>
      </trkpt>
      <trkpt lat="45.82032" lon="4.9485">
        <ele>175</ele>
        <time>2012-03-03T10:12:45Z</time>
      </trkpt>
      <trkpt lat="45.82041" lon="4.9488">
        <ele>177</ele>
        <time>2012-03-03T10:12:49Z</time>
      </trkpt>
      <trkpt lat="45.8205" lon="4.9491">
        <ele>178</ele>
        <time>2012-03-03T10:12:53Z</time>
      </trkpt>
      <trkpt lat="45.82059" lon="4.9494">
        <ele>176</ele>
        <time>2012-03-03T10:12:57Z</time>
      </trkpt>
      <trkpt lat="45.82069" lon="4.94972">
        <ele>176</ele>
        <time>2012-03-03T10:13:01Z</time>
      </trkpt>
      <trkpt lat="45.82076" lon="4.95004">
        <ele>176</ele>
        <time>2012-03-03T10:13:05Z</time>
      </trkpt>
      <trkpt lat="45.82084" lon="4.95035">
        <ele>176</ele>
        <time>2012-03-03T10:13:09Z</time>
      </trkpt>
      <trkpt lat="45.82092" lon="4.95066">
        <ele>175</ele>
        <time>2012-03-03T10:13:13Z</time>
      </trkpt>
      <trkpt lat="45.82099" lon="4.95098">
        <ele>177</ele>
        <time>2012-03-03T10:13:17Z</time>
      </trkpt>
      <trkpt lat="45.82107" lon="4.95129">
        <ele>178</ele>
        <time>2012-03-03T10:13:21Z</time>
      </trkpt>
      <trkpt lat="45.82113" lon="4.95161">
        <ele>176</ele>
        <time>2012-03-03T10:13:25Z</time>
      </trkpt>
      <trkpt lat="45.82118" lon="4.95193">
        <ele>175</ele>
        <time>2012-03-03T10:13:29Z</time>
      </trkpt>
      <trkpt lat="45.82124" lon="4.95226">
        <ele>174</ele>
        <time>2012-03-03T10:13:33Z</time>
      </trkpt>
      <trkpt lat="45.82129" lon="4.95258">
        <ele>171</ele>
        <time>2012-03-03T10:13:37Z</time>
      </trkpt>
      <trkpt lat="45.82135" lon="4.95289">
        <ele>172</ele>
        <time>2012-03-03T10:13:41Z</time>
      </trkpt>
      <trkpt lat="45.82142" lon="4.9532">
        <ele>173</ele>
        <time>2012-03-03T10:13:45Z</time>
      </trkpt>
      <trkpt lat="45.82146" lon="4.95353">
        <ele>173</ele>
        <time>2012-03-03T10:13:49Z</time>
      </trkpt>
      <trkpt lat="45.82152" lon="4.95386">
        <ele>173</ele>
        <time>2012-03-03T10:13:53Z</time>
      </trkpt>
      <trkpt lat="45.82158" lon="4.95417">
        <ele>174</ele>
        <time>2012-03-03T10:13:57Z</time>
      </trkpt>
      <trkpt lat="45.82164" lon="4.95449">
        <ele>172</ele>
        <time>2012-03-03T10:14:01Z</time>
      </trkpt>
      <trkpt lat="45.8217" lon="4.95481">
        <ele>177</ele>
        <time>2012-03-03T10:14:05Z</time>
      </trkpt>
      <trkpt lat="45.82176" lon="4.95509">
        <ele>178</ele>
        <time>2012-03-03T10:14:09Z</time>
      </trkpt>
      <trkpt lat="45.82185" lon="4.95531">
        <ele>182</ele>
        <time>2012-03-03T10:14:13Z</time>
      </trkpt>
      <trkpt lat="45.8219" lon="4.95562">
        <ele>183</ele>
        <time>2012-03-03T10:14:17Z</time>
      </trkpt>
      <trkpt lat="45.82194" lon="4.956">
        <ele>177</ele>
        <time>2012-03-03T10:14:21Z</time>
      </trkpt>
      <trkpt lat="45.82198" lon="4.95633">
        <ele>179</ele>
        <time>2012-03-03T10:14:25Z</time>
      </trkpt>
      <trkpt lat="45.82203" lon="4.95664">
        <ele>178</ele>
        <time>2012-03-03T10:14:29Z</time>
      </trkpt>
      <trkpt lat="45.82209" lon="4.95694">
        <ele>176</ele>
        <time>2012-03-03T10:14:33Z</time>
      </trkpt>
      <trkpt lat="45.82214" lon="4.95725">
        <ele>173</ele>
        <time>2012-03-03T10:14:37Z</time>
      </trkpt>
      <trkpt lat="45.82218" lon="4.95757">
        <ele>173</ele>
        <time>2012-03-03T10:14:41Z</time>
      </trkpt>
      <trkpt lat="45.82222" lon="4.95791">
        <ele>173</ele>
        <time>2012-03-03T10:14:45Z</time>
      </trkpt>
      <trkpt lat="45.82223" lon="4.95824">
        <ele>171</ele>
        <time>2012-03-03T10:14:49Z</time>
      </trkpt>
      <trkpt lat="45.82223" lon="4.95856">
        <ele>172</ele>
        <time>2012-03-03T10:14:53Z</time>
      </trkpt>
      <trkpt lat="45.82225" lon="4.95889">
        <ele>173</ele>
        <time>2012-03-03T10:14:57Z</time>
      </trkpt>
      <trkpt lat="45.82225" lon="4.9592">
        <ele>175</ele>
        <time>2012-03-03T10:15:01Z</time>
      </trkpt>
      <trkpt lat="45.82225" lon="4.95954">
        <ele>173</ele>
        <time>2012-03-03T10:15:05Z</time>
      </trkpt>
      <trkpt lat="45.82224" lon="4.95987">
        <ele>171</ele>
        <time>2012-03-03T10:15:09Z</time>
      </trkpt>
      <trkpt lat="45.82224" lon="4.96019">
        <ele>173</ele>
        <time>2012-03-03T10:15:13Z</time>
      </trkpt>
      <trkpt lat="45.82224" lon="4.96051">
        <ele>173</ele>
        <time>2012-03-03T10:15:17Z</time>
      </trkpt>
      <trkpt lat="45.82223" lon="4.96084">
        <ele>171</ele>
        <time>2012-03-03T10:15:21Z</time>
      </trkpt>
      <trkpt lat="45.82224" lon="4.96116">
        <ele>173</ele>
        <time>2012-03-03T10:15:25Z</time>
      </trkpt>
      <trkpt lat="45.82223" lon="4.96148">
        <ele>174</ele>
        <time>2012-03-03T10:15:29Z</time>
      </trkpt>
      <trkpt lat="45.82224" lon="4.96182">
        <ele>174</ele>
        <time>2012-03-03T10:15:33Z</time>
      </trkpt>
      <trkpt lat="45.82225" lon="4.96216">
        <ele>173</ele>
        <time>2012-03-03T10:15:37Z</time>
      </trkpt>
      <trkpt lat="45.82226" lon="4.9625">
        <ele>174</ele>
        <time>2012-03-03T10:15:41Z</time>
      </trkpt>
      <trkpt lat="45.82226" lon="4.96283">
        <ele>174</ele>
        <time>2012-03-03T10:15:45Z</time>
      </trkpt>
      <trkpt lat="45.82225" lon="4.96315">
        <ele>173</ele>
        <time>2012-03-03T10:15:49Z</time>
      </trkpt>
      <trkpt lat="45.82225" lon="4.96346">
        <ele>174</ele>
        <time>2012-03-03T10:15:53Z</time>
      </trkpt>
      <trkpt lat="45.82226" lon="4.9638">
        <ele>174</ele>
        <time>2012-03-03T10:15:57Z</time>
      </trkpt>
      <trkpt lat="45.82227" lon="4.96409">
        <ele>175</ele>
        <time>2012-03-03T10:16:01Z</time>
      </trkpt>
      <trkpt lat="45.8223" lon="4.96437">
        <ele>175</ele>
        <time>2012-03-03T10:16:05Z</time>
      </trkpt>
      <trkpt lat="45.82234" lon="4.9646">
        <ele>178</ele>
        <time>2012-03-03T10:16:09Z</time>
      </trkpt>
      <trkpt lat="45.82233" lon="4.96478">
        <ele>176</ele>
        <time>2012-03-03T10:16:13Z</time>
      </trkpt>
      <trkpt lat="45.8223" lon="4.96491">
        <ele>176</ele>
        <time>2012-03-03T10:16:17Z</time>
      </trkpt>
      <trkpt lat="45.82229" lon="4.96514">
        <ele>174</ele>
        <time>2012-03-03T10:16:21Z</time>
      </trkpt>
      <trkpt lat="45.82229" lon="4.96544">
        <ele>176</ele>
        <time>2012-03-03T10:16:25Z</time>
      </trkpt>
      <trkpt lat="45.82228" lon="4.96574">
        <ele>177</ele>
        <time>2012-03-03T10:16:29Z</time>
      </trkpt>
      <trkpt lat="45.8223" lon="4.96605">
        <ele>183</ele>
        <time>2012-03-03T10:16:33Z</time>
      </trkpt>
      <trkpt lat="45.82232" lon="4.96639">
        <ele>181</ele>
        <time>2012-03-03T10:16:37Z</time>
      </trkpt>
      <trkpt lat="45.82232" lon="4.96671">
        <ele>182</ele>
        <time>2012-03-03T10:16:41Z</time>
      </trkpt>
      <trkpt lat="45.82231" lon="4.96701">
        <ele>181</ele>
        <time>2012-03-03T10:16:45Z</time>
      </trkpt>
      <trkpt lat="45.82229" lon="4.96734">
        <ele>179</ele>
        <time>2012-03-03T10:16:49Z</time>
      </trkpt>
      <trkpt lat="45.82224" lon="4.96768">
        <ele>176</ele>
        <time>2012-03-03T10:16:53Z</time>
      </trkpt>
      <trkpt lat="45.82219" lon="4.96799">
        <ele>173</ele>
        <time>2012-03-03T10:16:57Z</time>
      </trkpt>
      <trkpt lat="45.82215" lon="4.96827">
        <ele>176</ele>
        <time>2012-03-03T10:17:01Z</time>
      </trkpt>
      <trkpt lat="45.82213" lon="4.96859">
        <ele>177</ele>
        <time>2012-03-03T10:17:05Z</time>
      </trkpt>
      <trkpt lat="45.82207" lon="4.96892">
        <ele>175</ele>
        <time>2012-03-03T10:17:09Z</time>
      </trkpt>
      <trkpt lat="45.82202" lon="4.96927">
        <ele>173</ele>
        <time>2012-03-03T10:17:13Z</time>
      </trkpt>
      <trkpt lat="45.82199" lon="4.96959">
        <ele>173</ele>
        <time>2012-03-03T10:17:17Z</time>
      </trkpt>
      <trkpt lat="45.82197" lon="4.9699">
        <ele>173</ele>
        <time>2012-03-03T10:17:21Z</time>
      </trkpt>
      <trkpt lat="45.82193" lon="4.97022">
        <ele>169</ele>
        <time>2012-03-03T10:17:25Z</time>
      </trkpt>
      <trkpt lat="45.82184" lon="4.97049">
        <ele>172</ele>
        <time>2012-03-03T10:17:29Z</time>
      </trkpt>
      <trkpt lat="45.82175" lon="4.97079">
        <ele>175</ele>
        <time>2012-03-03T10:17:33Z</time>
      </trkpt>
      <trkpt lat="45.82169" lon="4.97108">
        <ele>175</ele>
        <time>2012-03-03T10:17:37Z</time>
      </trkpt>
      <trkpt lat="45.82161" lon="4.97138">
        <ele>173</ele>
        <time>2012-03-03T10:17:41Z</time>
      </trkpt>
      <trkpt lat="45.82151" lon="4.97167">
        <ele>173</ele>
        <time>2012-03-03T10:17:45Z</time>
      </trkpt>
      <trkpt lat="45.82139" lon="4.97197">
        <ele>170</ele>
        <time>2012-03-03T10:17:49Z</time>
      </trkpt>
      <trkpt lat="45.8213" lon="4.97226">
        <ele>172</ele>
        <time>2012-03-03T10:17:53Z</time>
      </trkpt>
      <trkpt lat="45.8212" lon="4.97255">
        <ele>171</ele>
        <time>2012-03-03T10:17:57Z</time>
      </trkpt>
      <trkpt lat="45.82111" lon="4.97284">
        <ele>172</ele>
        <time>2012-03-03T10:18:01Z</time>
      </trkpt>
      <trkpt lat="45.82103" lon="4.97313">
        <ele>174</ele>
        <time>2012-03-03T10:18:05Z</time>
      </trkpt>
      <trkpt lat="45.82094" lon="4.97342">
        <ele>174</ele>
        <time>2012-03-03T10:18:09Z</time>
      </trkpt>
      <trkpt lat="45.82086" lon="4.97373">
        <ele>174</ele>
        <time>2012-03-03T10:18:13Z</time>
      </trkpt>
      <trkpt lat="45.82075" lon="4.97399">
        <ele>175</ele>
        <time>2012-03-03T10:18:17Z</time>
      </trkpt>
      <trkpt lat="45.8206" lon="4.97424">
        <ele>176</ele>
        <time>2012-03-03T10:18:21Z</time>
      </trkpt>
      <trkpt lat="45.82044" lon="4.97449">
        <ele>176</ele>
        <time>2012-03-03T10:18:25Z</time>
      </trkpt>
      <trkpt lat="45.82027" lon="4.97472">
        <ele>177</ele>
        <time>2012-03-03T10:18:29Z</time>
      </trkpt>
      <trkpt lat="45.82011" lon="4.97494">
        <ele>177</ele>
        <time>2012-03-03T10:18:33Z</time>
      </trkpt>
      <trkpt lat="45.81995" lon="4.97515">
        <ele>178</ele>
        <time>2012-03-03T10:18:37Z</time>
      </trkpt>
      <trkpt lat="45.8198" lon="4.97537">
        <ele>180</ele>
        <time>2012-03-03T10:18:41Z</time>
      </trkpt>
      <trkpt lat="45.81963" lon="4.97561">
        <ele>176</ele>
        <time>2012-03-03T10:18:45Z</time>
      </trkpt>
      <trkpt lat="45.81948" lon="4.97583">
        <ele>174</ele>
        <time>2012-03-03T10:18:49Z</time>
      </trkpt>
      <trkpt lat="45.81933" lon="4.97604">
        <ele>175</ele>
        <time>2012-03-03T10:18:53Z</time>
      </trkpt>
      <trkpt lat="45.81923" lon="4.97622">
        <ele>179</ele>
        <time>2012-03-03T10:18:57Z</time>
      </trkpt>
      <trkpt lat="45.81911" lon="4.97642">
        <ele>188</ele>
        <time>2012-03-03T10:19:01Z</time>
      </trkpt>
      <trkpt lat="45.81894" lon="4.97667">
        <ele>192</ele>
        <time>2012-03-03T10:19:05Z</time>
      </trkpt>
      <trkpt lat="45.8188" lon="4.97689">
        <ele>190</ele>
        <time>2012-03-03T10:19:09Z</time>
      </trkpt>
      <trkpt lat="45.8187" lon="4.97715">
        <ele>191</ele>
        <time>2012-03-03T10:19:13Z</time>
      </trkpt>
      <trkpt lat="45.81853" lon="4.97744">
        <ele>187</ele>
        <time>2012-03-03T10:19:17Z</time>
      </trkpt>
      <trkpt lat="45.81838" lon="4.97771">
        <ele>187</ele>
        <time>2012-03-03T10:19:21Z</time>
      </trkpt>
      <trkpt lat="45.81821" lon="4.97797">
        <ele>184</ele>
        <time>2012-03-03T10:19:25Z</time>
      </trkpt>
      <trkpt lat="45.8181" lon="4.97821">
        <ele>188</ele>
        <time>2012-03-03T10:19:29Z</time>
      </trkpt>
      <trkpt lat="45.81799" lon="4.97848">
        <ele>189</ele>
        <time>2012-03-03T10:19:33Z</time>
      </trkpt>
      <trkpt lat="45.81784" lon="4.97874">
        <ele>184</ele>
        <time>2012-03-03T10:19:37Z</time>
      </trkpt>
      <trkpt lat="45.81768" lon="4.97895">
        <ele>181</ele>
        <time>2012-03-03T10:19:41Z</time>
      </trkpt>
      <trkpt lat="45.81755" lon="4.9792">
        <ele>178</ele>
        <time>2012-03-03T10:19:45Z</time>
      </trkpt>
      <trkpt lat="45.81742" lon="4.97945">
        <ele>177</ele>
        <time>2012-03-03T10:19:49Z</time>
      </trkpt>
      <trkpt lat="45.8173" lon="4.97967">
        <ele>172</ele>
        <time>2012-03-03T10:19:53Z</time>
      </trkpt>
      <trkpt lat="45.8172" lon="4.97987">
        <ele>173</ele>
        <time>2012-03-03T10:19:57Z</time>
      </trkpt>
      <trkpt lat="45.81709" lon="4.98011">
        <ele>178</ele>
        <time>2012-03-03T10:20:01Z</time>
      </trkpt>
      <trkpt lat="45.81693" lon="4.98038">
        <ele>179</ele>
        <time>2012-03-03T10:20:05Z</time>
      </trkpt>
      <trkpt lat="45.81682" lon="4.98066">
        <ele>176</ele>
        <time>2012-03-03T10:20:09Z</time>
      </trkpt>
      <trkpt lat="45.81675" lon="4.98096">
        <ele>177</ele>
        <time>2012-03-03T10:20:13Z</time>
      </trkpt>
      <trkpt lat="45.81667" lon="4.98125">
        <ele>178</ele>
        <time>2012-03-03T10:20:17Z</time>
      </trkpt>
      <trkpt lat="45.81657" lon="4.98153">
        <ele>175</ele>
        <time>2012-03-03T10:20:21Z</time>
      </trkpt>
      <trkpt lat="45.81647" lon="4.98181">
        <ele>175</ele>
        <time>2012-03-03T10:20:25Z</time>
      </trkpt>
      <trkpt lat="45.81639" lon="4.98212">
        <ele>175</ele>
        <time>2012-03-03T10:20:29Z</time>
      </trkpt>
      <trkpt lat="45.81632" lon="4.98243">
        <ele>173</ele>
        <time>2012-03-03T10:20:33Z</time>
      </trkpt>
      <trkpt lat="45.81624" lon="4.98271">
        <ele>175</ele>
        <time>2012-03-03T10:20:37Z</time>
      </trkpt>
      <trkpt lat="45.81617" lon="4.983">
        <ele>175</ele>
        <time>2012-03-03T10:20:41Z</time>
      </trkpt>
      <trkpt lat="45.81607" lon="4.9833">
        <ele>172</ele>
        <time>2012-03-03T10:20:45Z</time>
      </trkpt>
      <trkpt lat="45.81598" lon="4.98357">
        <ele>174</ele>
        <time>2012-03-03T10:20:49Z</time>
      </trkpt>
      <trkpt lat="45.81591" lon="4.98387">
        <ele>175</ele>
        <time>2012-03-03T10:20:53Z</time>
      </trkpt>
      <trkpt lat="45.81584" lon="4.98417">
        <ele>174</ele>
        <time>2012-03-03T10:20:57Z</time>
      </trkpt>
      <trkpt lat="45.81582" lon="4.98447">
        <ele>173</ele>
        <time>2012-03-03T10:21:01Z</time>
      </trkpt>
      <trkpt lat="45.81578" lon="4.98476">
        <ele>174</ele>
        <time>2012-03-03T10:21:05Z</time>
      </trkpt>
      <trkpt lat="45.81577" lon="4.98508">
        <ele>172</ele>
        <time>2012-03-03T10:21:09Z</time>
      </trkpt>
      <trkpt lat="45.81577" lon="4.98539">
        <ele>175</ele>
        <time>2012-03-03T10:21:13Z</time>
      </trkpt>
      <trkpt lat="45.81578" lon="4.98571">
        <ele>179</ele>
        <time>2012-03-03T10:21:17Z</time>
      </trkpt>
      <trkpt lat="45.81577" lon="4.98603">
        <ele>179</ele>
        <time>2012-03-03T10:21:21Z</time>
      </trkpt>
      <trkpt lat="45.81577" lon="4.98636">
        <ele>177</ele>
        <time>2012-03-03T10:21:25Z</time>
      </trkpt>
      <trkpt lat="45.81578" lon="4.98666">
        <ele>176</ele>
        <time>2012-03-03T10:21:29Z</time>
      </trkpt>
      <trkpt lat="45.81581" lon="4.98698">
        <ele>176</ele>
        <time>2012-03-03T10:21:33Z</time>
      </trkpt>
      <trkpt lat="45.81587" lon="4.98731">
        <ele>176</ele>
        <time>2012-03-03T10:21:37Z</time>
      </trkpt>
      <trkpt lat="45.81593" lon="4.98764">
        <ele>176</ele>
        <time>2012-03-03T10:21:41Z</time>
      </trkpt>
      <trkpt lat="45.81597" lon="4.98795">
        <ele>175</ele>
        <time>2012-03-03T10:21:45Z</time>
      </trkpt>
      <trkpt lat="45.81602" lon="4.98826">
        <ele>173</ele>
        <time>2012-03-03T10:21:49Z</time>
      </trkpt>
      <trkpt lat="45.81607" lon="4.98857">
        <ele>175</ele>
        <time>2012-03-03T10:21:53Z</time>
      </trkpt>
      <trkpt lat="45.81614" lon="4.98886">
        <ele>177</ele>
        <time>2012-03-03T10:21:57Z</time>
      </trkpt>
      <trkpt lat="45.81621" lon="4.98916">
        <ele>176</ele>
        <time>2012-03-03T10:22:01Z</time>
      </trkpt>
      <trkpt lat="45.81629" lon="4.98945">
        <ele>176</ele>
        <time>2012-03-03T10:22:05Z</time>
      </trkpt>
      <trkpt lat="45.8164" lon="4.98973">
        <ele>180</ele>
        <time>2012-03-03T10:22:09Z</time>
      </trkpt>
      <trkpt lat="45.81649" lon="4.99">
        <ele>181</ele>
        <time>2012-03-03T10:22:13Z</time>
      </trkpt>
      <trkpt lat="45.81656" lon="4.99028">
        <ele>183</ele>
        <time>2012-03-03T10:22:17Z</time>
      </trkpt>
      <trkpt lat="45.81666" lon="4.99055">
        <ele>188</ele>
        <time>2012-03-03T10:22:21Z</time>
      </trkpt>
      <trkpt lat="45.81677" lon="4.99082">
        <ele>185</ele>
        <time>2012-03-03T10:22:25Z</time>
      </trkpt>
      <trkpt lat="45.81686" lon="4.99109">
        <ele>179</ele>
        <time>2012-03-03T10:22:29Z</time>
      </trkpt>
      <trkpt lat="45.81693" lon="4.99138">
        <ele>177</ele>
        <time>2012-03-03T10:22:33Z</time>
      </trkpt>
      <trkpt lat="45.81703" lon="4.99167">
        <ele>181</ele>
        <time>2012-03-03T10:22:37Z</time>
      </trkpt>
      <trkpt lat="45.81712" lon="4.99194">
        <ele>183</ele>
        <time>2012-03-03T10:22:41Z</time>
      </trkpt>
      <trkpt lat="45.81725" lon="4.99217">
        <ele>186</ele>
        <time>2012-03-03T10:22:45Z</time>
      </trkpt>
      <trkpt lat="45.81741" lon="4.99238">
        <ele>184</ele>
        <time>2012-03-03T10:22:49Z</time>
      </trkpt>
      <trkpt lat="45.81757" lon="4.99261">
        <ele>186</ele>
        <time>2012-03-03T10:22:53Z</time>
      </trkpt>
      <trkpt lat="45.81771" lon="4.99285">
        <ele>184</ele>
        <time>2012-03-03T10:22:57Z</time>
      </trkpt>
      <trkpt lat="45.81784" lon="4.99311">
        <ele>180</ele>
        <time>2012-03-03T10:23:01Z</time>
      </trkpt>
      <trkpt lat="45.81797" lon="4.99337">
        <ele>177</ele>
        <time>2012-03-03T10:23:05Z</time>
      </trkpt>
      <trkpt lat="45.81812" lon="4.9936">
        <ele>174</ele>
        <time>2012-03-03T10:23:09Z</time>
      </trkpt>
      <trkpt lat="45.81832" lon="4.99373">
        <ele>175</ele>
        <time>2012-03-03T10:23:13Z</time>
      </trkpt>
      <trkpt lat="45.81852" lon="4.9938">
        <ele>179</ele>
        <time>2012-03-03T10:23:17Z</time>
      </trkpt>
      <trkpt lat="45.81872" lon="4.99379">
        <ele>183</ele>
        <time>2012-03-03T10:23:21Z</time>
      </trkpt>
      <trkpt lat="45.81892" lon="4.99375">
        <ele>186</ele>
        <time>2012-03-03T10:23:25Z</time>
      </trkpt>
      <trkpt lat="45.81912" lon="4.99371">
        <ele>188</ele>
        <time>2012-03-03T10:23:29Z</time>
      </trkpt>
      <trkpt lat="45.81931" lon="4.99366">
        <ele>188</ele>
        <time>2012-03-03T10:23:33Z</time>
      </trkpt>
      <trkpt lat="45.81945" lon="4.99364">
        <ele>192</ele>
        <time>2012-03-03T10:23:37Z</time>
      </trkpt>
      <trkpt lat="45.81958" lon="4.99364">
        <ele>188</ele>
        <time>2012-03-03T10:23:41Z</time>
      </trkpt>
      <trkpt lat="45.81962" lon="4.99381">
        <ele>185</ele>
        <time>2012-03-03T10:23:45Z</time>
      </trkpt>
      <trkpt lat="45.81962" lon="4.99411">
        <ele>183</ele>
        <time>2012-03-03T10:23:49Z</time>
      </trkpt>
      <trkpt lat="45.81963" lon="4.99439">
        <ele>179</ele>
        <time>2012-03-03T10:23:53Z</time>
      </trkpt>
      <trkpt lat="45.81963" lon="4.99468">
        <ele>181</ele>
        <time>2012-03-03T10:23:57Z</time>
      </trkpt>
      <trkpt lat="45.81965" lon="4.99499">
        <ele>180</ele>
        <time>2012-03-03T10:24:01Z</time>
      </trkpt>
      <trkpt lat="45.81965" lon="4.99532">
        <ele>178</ele>
        <time>2012-03-03T10:24:05Z</time>
      </trkpt>
      <trkpt lat="45.81966" lon="4.99567">
        <ele>180</ele>
        <time>2012-03-03T10:24:09Z</time>
      </trkpt>
      <trkpt lat="45.81966" lon="4.99603">
        <ele>182</ele>
        <time>2012-03-03T10:24:13Z</time>
      </trkpt>
      <trkpt lat="45.81966" lon="4.99639">
        <ele>180</ele>
        <time>2012-03-03T10:24:17Z</time>
      </trkpt>
      <trkpt lat="45.81965" lon="4.99675">
        <ele>179</ele>
        <time>2012-03-03T10:24:21Z</time>
      </trkpt>
      <trkpt lat="45.81963" lon="4.99711">
        <ele>179</ele>
        <time>2012-03-03T10:24:25Z</time>
      </trkpt>
      <trkpt lat="45.81961" lon="4.99744">
        <ele>179</ele>
        <time>2012-03-03T10:24:29Z</time>
      </trkpt>
      <trkpt lat="45.8196" lon="4.99777">
        <ele>181</ele>
        <time>2012-03-03T10:24:33Z</time>
      </trkpt>
      <trkpt lat="45.81957" lon="4.99811">
        <ele>179</ele>
        <time>2012-03-03T10:24:37Z</time>
      </trkpt>
      <trkpt lat="45.81953" lon="4.99844">
        <ele>178</ele>
        <time>2012-03-03T10:24:41Z</time>
      </trkpt>
      <trkpt lat="45.8195" lon="4.99876">
        <ele>175</ele>
        <time>2012-03-03T10:24:45Z</time>
      </trkpt>
      <trkpt lat="45.81948" lon="4.99904">
        <ele>175</ele>
        <time>2012-03-03T10:24:49Z</time>
      </trkpt>
      <trkpt lat="45.81939" lon="4.99931">
        <ele>177</ele>
        <time>2012-03-03T10:24:53Z</time>
      </trkpt>
      <trkpt lat="45.81919" lon="4.9995">
        <ele>180</ele>
        <time>2012-03-03T10:24:57Z</time>
      </trkpt>
      <trkpt lat="45.81896" lon="4.99957">
        <ele>184</ele>
        <time>2012-03-03T10:25:01Z</time>
      </trkpt>
      <trkpt lat="45.81878" lon="4.99965">
        <ele>191</ele>
        <time>2012-03-03T10:25:05Z</time>
      </trkpt>
      <trkpt lat="45.81862" lon="4.99976">
        <ele>193</ele>
        <time>2012-03-03T10:25:09Z</time>
      </trkpt>
      <trkpt lat="45.81839" lon="4.99989">
        <ele>194</ele>
        <time>2012-03-03T10:25:13Z</time>
      </trkpt>
      <trkpt lat="45.81815" lon="4.99995">
        <ele>190</ele>
        <time>2012-03-03T10:25:17Z</time>
      </trkpt>
      <trkpt lat="45.81791" lon="4.99994">
        <ele>188</ele>
        <time>2012-03-03T10:25:21Z</time>
      </trkpt>
      <trkpt lat="45.81768" lon="4.99984">
        <ele>182</ele>
        <time>2012-03-03T10:25:25Z</time>
      </trkpt>
      <trkpt lat="45.81744" lon="4.99975">
        <ele>182</ele>
        <time>2012-03-03T10:25:29Z</time>
      </trkpt>
      <trkpt lat="45.8172" lon="4.99971">
        <ele>178</ele>
        <time>2012-03-03T10:25:33Z</time>
      </trkpt>
      <trkpt lat="45.81699" lon="4.99976">
        <ele>175</ele>
        <time>2012-03-03T10:25:37Z</time>
      </trkpt>
      <trkpt lat="45.81679" lon="4.9999">
        <ele>175</ele>
        <time>2012-03-03T10:25:41Z</time>
      </trkpt>
      <trkpt lat="45.8166" lon="5.00004">
        <ele>176</ele>
        <time>2012-03-03T10:25:45Z</time>
      </trkpt>
      <trkpt lat="45.81638" lon="5.00016">
        <ele>176</ele>
        <time>2012-03-03T10:25:49Z</time>
      </trkpt>
      <trkpt lat="45.81617" lon="5.00019">
        <ele>173</ele>
        <time>2012-03-03T10:25:53Z</time>
      </trkpt>
      <trkpt lat="45.81604" lon="5.00031">
        <ele>178</ele>
        <time>2012-03-03T10:25:57Z</time>
      </trkpt>
      <trkpt lat="45.81596" lon="5.00059">
        <ele>182</ele>
        <time>2012-03-03T10:26:01Z</time>
      </trkpt>
      <trkpt lat="45.81588" lon="5.00087">
        <ele>184</ele>
        <time>2012-03-03T10:26:05Z</time>
      </trkpt>
      <trkpt lat="45.81581" lon="5.00112">
        <ele>184</ele>
        <time>2012-03-03T10:26:09Z</time>
      </trkpt>
      <trkpt lat="45.81575" lon="5.0014">
        <ele>187</ele>
        <time>2012-03-03T10:26:13Z</time>
      </trkpt>
      <trkpt lat="45.81565" lon="5.0017">
        <ele>185</ele>
        <time>2012-03-03T10:26:17Z</time>
      </trkpt>
      <trkpt lat="45.8155" lon="5.00194">
        <ele>180</ele>
        <time>2012-03-03T10:26:21Z</time>
      </trkpt>
      <trkpt lat="45.8154" lon="5.00216">
        <ele>184</ele>
        <time>2012-03-03T10:26:25Z</time>
      </trkpt>
      <trkpt lat="45.81531" lon="5.00243">
        <ele>184</ele>
        <time>2012-03-03T10:26:29Z</time>
      </trkpt>
      <trkpt lat="45.81525" lon="5.00268">
        <ele>184</ele>
        <time>2012-03-03T10:26:33Z</time>
      </trkpt>
      <trkpt lat="45.81515" lon="5.00292">
        <ele>184</ele>
        <time>2012-03-03T10:26:37Z</time>
      </trkpt>
      <trkpt lat="45.81506" lon="5.00318">
        <ele>184</ele>
        <time>2012-03-03T10:26:41Z</time>
      </trkpt>
      <trkpt lat="45.81496" lon="5.00347">
        <ele>177</ele>
        <time>2012-03-03T10:26:45Z</time>
      </trkpt>
      <trkpt lat="45.81487" lon="5.00373">
        <ele>178</ele>
        <time>2012-03-03T10:26:49Z</time>
      </trkpt>
      <trkpt lat="45.81478" lon="5.00399">
        <ele>178</ele>
        <time>2012-03-03T10:26:53Z</time>
      </trkpt>
      <trkpt lat="45.81471" lon="5.00423">
        <ele>183</ele>
        <time>2012-03-03T10:26:57Z</time>
      </trkpt>
      <trkpt lat="45.8146" lon="5.00444">
        <ele>184</ele>
        <time>2012-03-03T10:27:01Z</time>
      </trkpt>
      <trkpt lat="45.81451" lon="5.00469">
        <ele>188</ele>
        <time>2012-03-03T10:27:05Z</time>
      </trkpt>
      <trkpt lat="45.81442" lon="5.00497">
        <ele>190</ele>
        <time>2012-03-03T10:27:09Z</time>
      </trkpt>
      <trkpt lat="45.81432" lon="5.00524">
        <ele>187</ele>
        <time>2012-03-03T10:27:13Z</time>
      </trkpt>
      <trkpt lat="45.8142" lon="5.00549">
        <ele>187</ele>
        <time>2012-03-03T10:27:17Z</time>
      </trkpt>
      <trkpt lat="45.81408" lon="5.00574">
        <ele>186</ele>
        <time>2012-03-03T10:27:21Z</time>
      </trkpt>
      <trkpt lat="45.81397" lon="5.00597">
        <ele>187</ele>
        <time>2012-03-03T10:27:25Z</time>
      </trkpt>
      <trkpt lat="45.81387" lon="5.00619">
        <ele>192</ele>
        <time>2012-03-03T10:27:29Z</time>
      </trkpt>
      <trkpt lat="45.81379" lon="5.00643">
        <ele>193</ele>
        <time>2012-03-03T10:27:33Z</time>
      </trkpt>
      <trkpt lat="45.81373" lon="5.00666">
        <ele>195</ele>
        <time>2012-03-03T10:27:37Z</time>
      </trkpt>
      <trkpt lat="45.81365" lon="5.00694">
        <ele>199</ele>
        <time>2012-03-03T10:27:41Z</time>
      </trkpt>
      <trkpt lat="45.81356" lon="5.00722">
        <ele>201</ele>
        <time>2012-03-03T10:27:45Z</time>
      </trkpt>
      <trkpt lat="45.81347" lon="5.00747">
        <ele>197</ele>
        <time>2012-03-03T10:27:49Z</time>
      </trkpt>
      <trkpt lat="45.81337" lon="5.00775">
        <ele>197</ele>
        <time>2012-03-03T10:27:53Z</time>
      </trkpt>
      <trkpt lat="45.81327" lon="5.00806">
        <ele>193</ele>
        <time>2012-03-03T10:27:57Z</time>
      </trkpt>
      <trkpt lat="45.81321" lon="5.0083">
        <ele>198</ele>
        <time>2012-03-03T10:28:01Z</time>
      </trkpt>
      <trkpt lat="45.81308" lon="5.00855">
        <ele>199</ele>
        <time>2012-03-03T10:28:05Z</time>
      </trkpt>
      <trkpt lat="45.81298" lon="5.00883">
        <ele>204</ele>
        <time>2012-03-03T10:28:09Z</time>
      </trkpt>
      <trkpt lat="45.81291" lon="5.00912">
        <ele>203</ele>
        <time>2012-03-03T10:28:13Z</time>
      </trkpt>
      <trkpt lat="45.81284" lon="5.0094">
        <ele>206</ele>
        <time>2012-03-03T10:28:17Z</time>
      </trkpt>
      <trkpt lat="45.81278" lon="5.00971">
        <ele>205</ele>
        <time>2012-03-03T10:28:21Z</time>
      </trkpt>
      <trkpt lat="45.8127" lon="5.01001">
        <ele>205</ele>
        <time>2012-03-03T10:28:25Z</time>
      </trkpt>
      <trkpt lat="45.81263" lon="5.01031">
        <ele>205</ele>
        <time>2012-03-03T10:28:29Z</time>
      </trkpt>
      <trkpt lat="45.81255" lon="5.01063">
        <ele>204</ele>
        <time>2012-03-03T10:28:33Z</time>
      </trkpt>
      <trkpt lat="45.81246" lon="5.01091">
        <ele>206</ele>
        <time>2012-03-03T10:28:37Z</time>
      </trkpt>
      <trkpt lat="45.8124" lon="5.01125">
        <ele>199</ele>
        <time>2012-03-03T10:28:41Z</time>
      </trkpt>
      <trkpt lat="45.81235" lon="5.01159">
        <ele>189</ele>
        <time>2012-03-03T10:28:45Z</time>
      </trkpt>
      <trkpt lat="45.81228" lon="5.0119">
        <ele>190</ele>
        <time>2012-03-03T10:28:49Z</time>
      </trkpt>
      <trkpt lat="45.81222" lon="5.01221">
        <ele>192</ele>
        <time>2012-03-03T10:28:53Z</time>
      </trkpt>
      <trkpt lat="45.81218" lon="5.01246">
        <ele>196</ele>
        <time>2012-03-03T10:28:57Z</time>
      </trkpt>
      <trkpt lat="45.81212" lon="5.01272">
        <ele>201</ele>
        <time>2012-03-03T10:29:01Z</time>
      </trkpt>
      <trkpt lat="45.81205" lon="5.01303">
        <ele>202</ele>
        <time>2012-03-03T10:29:05Z</time>
      </trkpt>
      <trkpt lat="45.812" lon="5.01334">
        <ele>203</ele>
        <time>2012-03-03T10:29:09Z</time>
      </trkpt>
      <trkpt lat="45.81196" lon="5.01369">
        <ele>199</ele>
        <time>2012-03-03T10:29:13Z</time>
      </trkpt>
      <trkpt lat="45.81194" lon="5.01402">
        <ele>196</ele>
        <time>2012-03-03T10:29:17Z</time>
      </trkpt>
      <trkpt lat="45.8119" lon="5.01438">
        <ele>194</ele>
        <time>2012-03-03T10:29:21Z</time>
      </trkpt>
      <trkpt lat="45.81184" lon="5.01474">
        <ele>191</ele>
        <time>2012-03-03T10:29:25Z</time>
      </trkpt>
      <trkpt lat="45.8118" lon="5.01506">
        <ele>191</ele>
        <time>2012-03-03T10:29:29Z</time>
      </trkpt>
      <trkpt lat="45.81178" lon="5.01535">
        <ele>181</ele>
        <time>2012-03-03T10:29:33Z</time>
      </trkpt>
      <trkpt lat="45.81175" lon="5.01565">
        <ele>185</ele>
        <time>2012-03-03T10:29:37Z</time>
      </trkpt>
      <trkpt lat="45.81169" lon="5.01598">
        <ele>181</ele>
        <time>2012-03-03T10:29:41Z</time>
      </trkpt>
      <trkpt lat="45.81165" lon="5.01633">
        <ele>179</ele>
        <time>2012-03-03T10:29:45Z</time>
      </trkpt>
      <trkpt lat="45.81162" lon="5.01663">
        <ele>180</ele>
        <time>2012-03-03T10:29:49Z</time>
      </trkpt>
      <trkpt lat="45.8116" lon="5.01692">
        <ele>183</ele>
        <time>2012-03-03T10:29:53Z</time>
      </trkpt>
      <trkpt lat="45.81157" lon="5.01721">
        <ele>186</ele>
        <time>2012-03-03T10:29:57Z</time>
      </trkpt>
      <trkpt lat="45.81154" lon="5.0175">
        <ele>191</ele>
        <time>2012-03-03T10:30:01Z</time>
      </trkpt>
      <trkpt lat="45.81153" lon="5.01786">
        <ele>197</ele>
        <time>2012-03-03T10:30:05Z</time>
      </trkpt>
      <trkpt lat="45.81152" lon="5.01821">
        <ele>188</ele>
        <time>2012-03-03T10:30:09Z</time>
      </trkpt>
      <trkpt lat="45.81152" lon="5.01856">
        <ele>181</ele>
        <time>2012-03-03T10:30:13Z</time>
      </trkpt>
      <trkpt lat="45.8115" lon="5.01888">
        <ele>176</ele>
        <time>2012-03-03T10:30:17Z</time>
      </trkpt>
      <trkpt lat="45.81149" lon="5.01916">
        <ele>176</ele>
        <time>2012-03-03T10:30:21Z</time>
      </trkpt>
      <trkpt lat="45.81149" lon="5.01941">
        <ele>182</ele>
        <time>2012-03-03T10:30:25Z</time>
      </trkpt>
      <trkpt lat="45.81147" lon="5.0197">
        <ele>182</ele>
        <time>2012-03-03T10:30:29Z</time>
      </trkpt>
      <trkpt lat="45.81145" lon="5.02001">
        <ele>186</ele>
        <time>2012-03-03T10:30:33Z</time>
      </trkpt>
      <trkpt lat="45.81146" lon="5.02033">
        <ele>192</ele>
        <time>2012-03-03T10:30:37Z</time>
      </trkpt>
      <trkpt lat="45.81142" lon="5.02067">
        <ele>190</ele>
        <time>2012-03-03T10:30:41Z</time>
      </trkpt>
      <trkpt lat="45.81138" lon="5.02095">
        <ele>183</ele>
        <time>2012-03-03T10:30:45Z</time>
      </trkpt>
      <trkpt lat="45.81137" lon="5.02122">
        <ele>180</ele>
        <time>2012-03-03T10:30:49Z</time>
      </trkpt>
      <trkpt lat="45.81134" lon="5.02148">
        <ele>184</ele>
        <time>2012-03-03T10:30:53Z</time>
      </trkpt>
      <trkpt lat="45.81133" lon="5.02174">
        <ele>185</ele>
        <time>2012-03-03T10:30:57Z</time>
      </trkpt>
      <trkpt lat="45.81133" lon="5.02203">
        <ele>185</ele>
        <time>2012-03-03T10:31:01Z</time>
      </trkpt>
      <trkpt lat="45.81134" lon="5.02235">
        <ele>182</ele>
        <time>2012-03-03T10:31:05Z</time>
      </trkpt>
      <trkpt lat="45.81138" lon="5.02269">
        <ele>179</ele>
        <time>2012-03-03T10:31:09Z</time>
      </trkpt>
      <trkpt lat="45.81138" lon="5.02302">
        <ele>179</ele>
        <time>2012-03-03T10:31:13Z</time>
      </trkpt>
      <trkpt lat="45.81135" lon="5.02335">
        <ele>176</ele>
        <time>2012-03-03T10:31:17Z</time>
      </trkpt>
      <trkpt lat="45.81134" lon="5.02367">
        <ele>177</ele>
        <time>2012-03-03T10:31:21Z</time>
      </trkpt>
      <trkpt lat="45.81136" lon="5.02398">
        <ele>178</ele>
        <time>2012-03-03T10:31:25Z</time>
      </trkpt>
      <trkpt lat="45.81134" lon="5.0243">
        <ele>176</ele>
        <time>2012-03-03T10:31:29Z</time>
      </trkpt>
      <trkpt lat="45.8113" lon="5.02456">
        <ele>173</ele>
        <time>2012-03-03T10:31:33Z</time>
      </trkpt>
      <trkpt lat="45.81131" lon="5.02482">
        <ele>174</ele>
        <time>2012-03-03T10:31:37Z</time>
      </trkpt>
      <trkpt lat="45.81131" lon="5.02509">
        <ele>185</ele>
        <time>2012-03-03T10:31:41Z</time>
      </trkpt>
      <trkpt lat="45.81131" lon="5.0254">
        <ele>194</ele>
        <time>2012-03-03T10:31:45Z</time>
      </trkpt>
      <trkpt lat="45.81133" lon="5.02574">
        <ele>182</ele>
        <time>2012-03-03T10:31:49Z</time>
      </trkpt>
      <trkpt lat="45.81134" lon="5.02608">
        <ele>185</ele>
        <time>2012-03-03T10:31:53Z</time>
      </trkpt>
      <trkpt lat="45.81133" lon="5.02638">
        <ele>185</ele>
        <time>2012-03-03T10:31:57Z</time>
      </trkpt>
      <trkpt lat="45.81129" lon="5.02666">
        <ele>183</ele>
        <time>2012-03-03T10:32:01Z</time>
      </trkpt>
      <trkpt lat="45.81127" lon="5.02694">
        <ele>180</ele>
        <time>2012-03-03T10:32:05Z</time>
      </trkpt>
      <trkpt lat="45.81125" lon="5.02718">
        <ele>180</ele>
        <time>2012-03-03T10:32:09Z</time>
      </trkpt>
      <trkpt lat="45.81123" lon="5.02744">
        <ele>183</ele>
        <time>2012-03-03T10:32:13Z</time>
      </trkpt>
      <trkpt lat="45.81122" lon="5.02774">
        <ele>180</ele>
        <time>2012-03-03T10:32:17Z</time>
      </trkpt>
      <trkpt lat="45.8112" lon="5.02802">
        <ele>185</ele>
        <time>2012-03-03T10:32:21Z</time>
      </trkpt>
      <trkpt lat="45.81117" lon="5.02832">
        <ele>183</ele>
        <time>2012-03-03T10:32:25Z</time>
      </trkpt>
      <trkpt lat="45.81112" lon="5.02855">
        <ele>192</ele>
        <time>2012-03-03T10:32:29Z</time>
      </trkpt>
      <trkpt lat="45.81104" lon="5.02878">
        <ele>197</ele>
        <time>2012-03-03T10:32:33Z</time>
      </trkpt>
      <trkpt lat="45.81099" lon="5.02907">
        <ele>196</ele>
        <time>2012-03-03T10:32:37Z</time>
      </trkpt>
      <trkpt lat="45.81088" lon="5.02939">
        <ele>187</ele>
        <time>2012-03-03T10:32:41Z</time>
      </trkpt>
      <trkpt lat="45.81081" lon="5.02966">
        <ele>188</ele>
        <time>2012-03-03T10:32:45Z</time>
      </trkpt>
      <trkpt lat="45.81072" lon="5.02995">
        <ele>188</ele>
        <time>2012-03-03T10:32:49Z</time>
      </trkpt>
      <trkpt lat="45.81064" lon="5.03024">
        <ele>188</ele>
        <time>2012-03-03T10:32:53Z</time>
      </trkpt>
      <trkpt lat="45.81058" lon="5.03054">
        <ele>185</ele>
        <time>2012-03-03T10:32:57Z</time>
      </trkpt>
      <trkpt lat="45.81052" lon="5.03084">
        <ele>184</ele>
        <time>2012-03-03T10:33:01Z</time>
      </trkpt>
      <trkpt lat="45.81046" lon="5.03112">
        <ele>186</ele>
        <time>2012-03-03T10:33:05Z</time>
      </trkpt>
      <trkpt lat="45.8104" lon="5.03139">
        <ele>186</ele>
        <time>2012-03-03T10:33:09Z</time>
      </trkpt>
      <trkpt lat="45.81036" lon="5.03168">
        <ele>187</ele>
        <time>2012-03-03T10:33:13Z</time>
      </trkpt>
      <trkpt lat="45.81033" lon="5.03197">
        <ele>185</ele>
        <time>2012-03-03T10:33:17Z</time>
      </trkpt>
      <trkpt lat="45.81033" lon="5.03227">
        <ele>182</ele>
        <time>2012-03-03T10:33:21Z</time>
      </trkpt>
      <trkpt lat="45.81031" lon="5.03256">
        <ele>179</ele>
        <time>2012-03-03T10:33:25Z</time>
      </trkpt>
      <trkpt lat="45.8103" lon="5.03285">
        <ele>179</ele>
        <time>2012-03-03T10:33:29Z</time>
      </trkpt>
      <trkpt lat="45.8103" lon="5.03314">
        <ele>178</ele>
        <time>2012-03-03T10:33:33Z</time>
      </trkpt>
      <trkpt lat="45.8103" lon="5.0334">
        <ele>180</ele>
        <time>2012-03-03T10:33:37Z</time>
      </trkpt>
      <trkpt lat="45.81031" lon="5.03369">
        <ele>179</ele>
        <time>2012-03-03T10:33:41Z</time>
      </trkpt>
      <trkpt lat="45.81035" lon="5.03399">
        <ele>178</ele>
        <time>2012-03-03T10:33:45Z</time>
      </trkpt>
      <trkpt lat="45.81039" lon="5.03433">
        <ele>181</ele>
        <time>2012-03-03T10:33:49Z</time>
      </trkpt>
      <trkpt lat="45.81041" lon="5.03463">
        <ele>177</ele>
        <time>2012-03-03T10:33:53Z</time>
      </trkpt>
      <trkpt lat="45.81044" lon="5.03491">
        <ele>187</ele>
        <time>2012-03-03T10:33:57Z</time>
      </trkpt>
      <trkpt lat="45.81049" lon="5.03519">
        <ele>190</ele>
        <time>2012-03-03T10:34:01Z</time>
      </trkpt>
      <trkpt lat="45.81053" lon="5.03548">
        <ele>187</ele>
        <time>2012-03-03T10:34:05Z</time>
      </trkpt>
      <trkpt lat="45.81057" lon="5.03576">
        <ele>190</ele>
        <time>2012-03-03T10:34:09Z</time>
      </trkpt>
      <trkpt lat="45.81062" lon="5.03605">
        <ele>191</ele>
        <time>2012-03-03T10:34:13Z</time>
      </trkpt>
      <trkpt lat="45.81068" lon="5.03642">
        <ele>190</ele>
        <time>2012-03-03T10:34:17Z</time>
      </trkpt>
      <trkpt lat="45.81073" lon="5.03673">
        <ele>193</ele>
        <time>2012-03-03T10:34:21Z</time>
      </trkpt>
      <trkpt lat="45.8108" lon="5.03703">
        <ele>189</ele>
        <time>2012-03-03T10:34:25Z</time>
      </trkpt>
      <trkpt lat="45.81088" lon="5.03735">
        <ele>190</ele>
        <time>2012-03-03T10:34:29Z</time>
      </trkpt>
      <trkpt lat="45.81099" lon="5.03766">
        <ele>186</ele>
        <time>2012-03-03T10:34:33Z</time>
      </trkpt>
      <trkpt lat="45.81109" lon="5.03794">
        <ele>186</ele>
        <time>2012-03-03T10:34:37Z</time>
      </trkpt>
      <trkpt lat="45.8112" lon="5.03823">
        <ele>185</ele>
        <time>2012-03-03T10:34:41Z</time>
      </trkpt>
      <trkpt lat="45.81128" lon="5.03847">
        <ele>191</ele>
        <time>2012-03-03T10:34:45Z</time>
      </trkpt>
      <trkpt lat="45.81136" lon="5.03873">
        <ele>190</ele>
        <time>2012-03-03T10:34:49Z</time>
      </trkpt>
      <trkpt lat="45.81147" lon="5.03904">
        <ele>188</ele>
        <time>2012-03-03T10:34:53Z</time>
      </trkpt>
      <trkpt lat="45.81158" lon="5.03933">
        <ele>188</ele>
        <time>2012-03-03T10:34:57Z</time>
      </trkpt>
      <trkpt lat="45.81168" lon="5.0396">
        <ele>186</ele>
        <time>2012-03-03T10:35:01Z</time>
      </trkpt>
      <trkpt lat="45.81178" lon="5.03986">
        <ele>187</ele>
        <time>2012-03-03T10:35:05Z</time>
      </trkpt>
      <trkpt lat="45.81187" lon="5.04009">
        <ele>187</ele>
        <time>2012-03-03T10:35:09Z</time>
      </trkpt>
      <trkpt lat="45.81197" lon="5.04033">
        <ele>184</ele>
        <time>2012-03-03T10:35:13Z</time>
      </trkpt>
      <trkpt lat="45.81205" lon="5.04058">
        <ele>184</ele>
        <time>2012-03-03T10:35:17Z</time>
      </trkpt>
      <trkpt lat="45.81213" lon="5.04086">
        <ele>184</ele>
        <time>2012-03-03T10:35:21Z</time>
      </trkpt>
      <trkpt lat="45.81223" lon="5.04108">
        <ele>188</ele>
        <time>2012-03-03T10:35:25Z</time>
      </trkpt>
      <trkpt lat="45.81233" lon="5.04135">
        <ele>191</ele>
        <time>2012-03-03T10:35:29Z</time>
      </trkpt>
      <trkpt lat="45.81243" lon="5.04162">
        <ele>188</ele>
        <time>2012-03-03T10:35:33Z</time>
      </trkpt>
      <trkpt lat="45.81252" lon="5.04191">
        <ele>186</ele>
        <time>2012-03-03T10:35:37Z</time>
      </trkpt>
      <trkpt lat="45.8126" lon="5.04219">
        <ele>181</ele>
        <time>2012-03-03T10:35:41Z</time>
      </trkpt>
      <trkpt lat="45.81268" lon="5.04247">
        <ele>181</ele>
        <time>2012-03-03T10:35:45Z</time>
      </trkpt>
      <trkpt lat="45.81277" lon="5.04279">
        <ele>179</ele>
        <time>2012-03-03T10:35:49Z</time>
      </trkpt>
      <trkpt lat="45.81283" lon="5.04308">
        <ele>177</ele>
        <time>2012-03-03T10:35:53Z</time>
      </trkpt>
      <trkpt lat="45.81289" lon="5.04336">
        <ele>175</ele>
        <time>2012-03-03T10:35:57Z</time>
      </trkpt>
      <trkpt lat="45.81295" lon="5.04364">
        <ele>178</ele>
        <time>2012-03-03T10:36:01Z</time>
      </trkpt>
      <trkpt lat="45.81302" lon="5.04392">
        <ele>180</ele>
        <time>2012-03-03T10:36:05Z</time>
      </trkpt>
      <trkpt lat="45.81307" lon="5.04415">
        <ele>178</ele>
        <time>2012-03-03T10:36:09Z</time>
      </trkpt>
      <trkpt lat="45.81312" lon="5.04444">
        <ele>184</ele>
        <time>2012-03-03T10:36:13Z</time>
      </trkpt>
      <trkpt lat="45.81316" lon="5.04476">
        <ele>184</ele>
        <time>2012-03-03T10:36:17Z</time>
      </trkpt>
      <trkpt lat="45.81322" lon="5.04506">
        <ele>182</ele>
        <time>2012-03-03T10:36:21Z</time>
      </trkpt>
      <trkpt lat="45.81324" lon="5.04534">
        <ele>178</ele>
        <time>2012-03-03T10:36:25Z</time>
      </trkpt>
      <trkpt lat="45.81328" lon="5.0456">
        <ele>178</ele>
        <time>2012-03-03T10:36:29Z</time>
      </trkpt>
      <trkpt lat="45.81333" lon="5.0459">
        <ele>178</ele>
        <time>2012-03-03T10:36:33Z</time>
      </trkpt>
      <trkpt lat="45.81337" lon="5.04616">
        <ele>175</ele>
        <time>2012-03-03T10:36:37Z</time>
      </trkpt>
      <trkpt lat="45.8134" lon="5.04645">
        <ele>180</ele>
        <time>2012-03-03T10:36:41Z</time>
      </trkpt>
      <trkpt lat="45.81344" lon="5.04677">
        <ele>179</ele>
        <time>2012-03-03T10:36:45Z</time>
      </trkpt>
      <trkpt lat="45.81346" lon="5.04707">
        <ele>177</ele>
        <time>2012-03-03T10:36:49Z</time>
      </trkpt>
      <trkpt lat="45.81346" lon="5.04736">
        <ele>175</ele>
        <time>2012-03-03T10:36:53Z</time>
      </trkpt>
      <trkpt lat="45.81347" lon="5.04763">
        <ele>174</ele>
        <time>2012-03-03T10:36:57Z</time>
      </trkpt>
      <trkpt lat="45.8135" lon="5.04792">
        <ele>178</ele>
        <time>2012-03-03T10:37:01Z</time>
      </trkpt>
      <trkpt lat="45.81351" lon="5.04821">
        <ele>179</ele>
        <time>2012-03-03T10:37:05Z</time>
      </trkpt>
      <trkpt lat="45.81351" lon="5.04849">
        <ele>182</ele>
        <time>2012-03-03T10:37:09Z</time>
      </trkpt>
      <trkpt lat="45.81352" lon="5.04878">
        <ele>185</ele>
        <time>2012-03-03T10:37:13Z</time>
      </trkpt>
      <trkpt lat="45.81352" lon="5.04906">
        <ele>190</ele>
        <time>2012-03-03T10:37:17Z</time>
      </trkpt>
      <trkpt lat="45.81349" lon="5.04936">
        <ele>191</ele>
        <time>2012-03-03T10:37:21Z</time>
      </trkpt>
      <trkpt lat="45.81349" lon="5.04962">
        <ele>194</ele>
        <time>2012-03-03T10:37:25Z</time>
      </trkpt>
      <trkpt lat="45.81349" lon="5.0499">
        <ele>191</ele>
        <time>2012-03-03T10:37:29Z</time>
      </trkpt>
      <trkpt lat="45.81349" lon="5.05018">
        <ele>191</ele>
        <time>2012-03-03T10:37:33Z</time>
      </trkpt>
      <trkpt lat="45.81346" lon="5.05045">
        <ele>192</ele>
        <time>2012-03-03T10:37:37Z</time>
      </trkpt>
      <trkpt lat="45.81344" lon="5.05073">
        <ele>188</ele>
        <time>2012-03-03T10:37:41Z</time>
      </trkpt>
      <trkpt lat="45.81342" lon="5.05104">
        <ele>184</ele>
        <time>2012-03-03T10:37:45Z</time>
      </trkpt>
      <trkpt lat="45.8134" lon="5.05133">
        <ele>182</ele>
        <time>2012-03-03T10:37:49Z</time>
      </trkpt>
      <trkpt lat="45.81338" lon="5.05162">
        <ele>181</ele>
        <time>2012-03-03T10:37:53Z</time>
      </trkpt>
      <trkpt lat="45.81336" lon="5.05191">
        <ele>181</ele>
        <time>2012-03-03T10:37:57Z</time>
      </trkpt>
      <trkpt lat="45.81332" lon="5.05218">
        <ele>181</ele>
        <time>2012-03-03T10:38:01Z</time>
      </trkpt>
      <trkpt lat="45.81329" lon="5.05245">
        <ele>181</ele>
        <time>2012-03-03T10:38:05Z</time>
      </trkpt>
      <trkpt lat="45.81326" lon="5.05274">
        <ele>182</ele>
        <time>2012-03-03T10:38:09Z</time>
      </trkpt>
      <trkpt lat="45.81323" lon="5.05302">
        <ele>182</ele>
        <time>2012-03-03T10:38:13Z</time>
      </trkpt>
      <trkpt lat="45.81321" lon="5.05331">
        <ele>181</ele>
        <time>2012-03-03T10:38:17Z</time>
      </trkpt>
      <trkpt lat="45.81318" lon="5.05359">
        <ele>180</ele>
        <time>2012-03-03T10:38:21Z</time>
      </trkpt>
      <trkpt lat="45.81315" lon="5.05385">
        <ele>181</ele>
        <time>2012-03-03T10:38:25Z</time>
      </trkpt>
      <trkpt lat="45.81314" lon="5.05411">
        <ele>181</ele>
        <time>2012-03-03T10:38:29Z</time>
      </trkpt>
      <trkpt lat="45.81311" lon="5.05435">
        <ele>183</ele>
        <time>2012-03-03T10:38:33Z</time>
      </trkpt>
      <trkpt lat="45.81307" lon="5.0546">
        <ele>179</ele>
        <time>2012-03-03T10:38:37Z</time>
      </trkpt>
      <trkpt lat="45.81302" lon="5.05486">
        <ele>173</ele>
        <time>2012-03-03T10:38:41Z</time>
      </trkpt>
      <trkpt lat="45.81299" lon="5.0551">
        <ele>175</ele>
        <time>2012-03-03T10:38:45Z</time>
      </trkpt>
      <trkpt lat="45.81297" lon="5.05539">
        <ele>175</ele>
        <time>2012-03-03T10:38:49Z</time>
      </trkpt>
      <trkpt lat="45.81295" lon="5.05568">
        <ele>175</ele>
        <time>2012-03-03T10:38:53Z</time>
      </trkpt>
      <trkpt lat="45.8129" lon="5.05595">
        <ele>172</ele>
        <time>2012-03-03T10:38:57Z</time>
      </trkpt>
      <trkpt lat="45.81284" lon="5.05619">
        <ele>171</ele>
        <time>2012-03-03T10:39:01Z</time>
      </trkpt>
      <trkpt lat="45.8127" lon="5.05637">
        <ele>173</ele>
        <time>2012-03-03T10:39:05Z</time>
      </trkpt>
      <trkpt lat="45.81249" lon="5.05651">
        <ele>177</ele>
        <time>2012-03-03T10:39:09Z</time>
      </trkpt>
      <trkpt lat="45.81234" lon="5.05665">
        <ele>178</ele>
        <time>2012-03-03T10:39:13Z</time>
      </trkpt>
      <trkpt lat="45.81224" lon="5.05683">
        <ele>177</ele>
        <time>2012-03-03T10:39:17Z</time>
      </trkpt>
      <trkpt lat="45.81212" lon="5.05703">
        <ele>179</ele>
        <time>2012-03-03T10:39:21Z</time>
      </trkpt>
      <trkpt lat="45.81203" lon="5.05723">
        <ele>180</ele>
        <time>2012-03-03T10:39:25Z</time>
      </trkpt>
      <trkpt lat="45.81191" lon="5.05746">
        <ele>183</ele>
        <time>2012-03-03T10:39:29Z</time>
      </trkpt>
      <trkpt lat="45.81176" lon="5.05767">
        <ele>186</ele>
        <time>2012-03-03T10:39:33Z</time>
      </trkpt>
      <trkpt lat="45.81161" lon="5.05791">
        <ele>183</ele>
        <time>2012-03-03T10:39:37Z</time>
      </trkpt>
      <trkpt lat="45.8115" lon="5.05814">
        <ele>182</ele>
        <time>2012-03-03T10:39:41Z</time>
      </trkpt>
      <trkpt lat="45.81148" lon="5.05839">
        <ele>186</ele>
        <time>2012-03-03T10:39:45Z</time>
      </trkpt>
      <trkpt lat="45.81144" lon="5.05862">
        <ele>187</ele>
        <time>2012-03-03T10:39:49Z</time>
      </trkpt>
      <trkpt lat="45.81132" lon="5.05885">
        <ele>188</ele>
        <time>2012-03-03T10:39:53Z</time>
      </trkpt>
      <trkpt lat="45.81118" lon="5.05905">
        <ele>196</ele>
        <time>2012-03-03T10:39:57Z</time>
      </trkpt>
      <trkpt lat="45.81103" lon="5.05926">
        <ele>195</ele>
        <time>2012-03-03T10:40:01Z</time>
      </trkpt>
      <trkpt lat="45.81091" lon="5.05947">
        <ele>196</ele>
        <time>2012-03-03T10:40:05Z</time>
      </trkpt>
      <trkpt lat="45.81077" lon="5.05969">
        <ele>195</ele>
        <time>2012-03-03T10:40:09Z</time>
      </trkpt>
      <trkpt lat="45.81064" lon="5.0599">
        <ele>188</ele>
        <time>2012-03-03T10:40:13Z</time>
      </trkpt>
      <trkpt lat="45.81051" lon="5.06008">
        <ele>186</ele>
        <time>2012-03-03T10:40:17Z</time>
      </trkpt>
      <trkpt lat="45.81041" lon="5.06027">
        <ele>187</ele>
        <time>2012-03-03T10:40:21Z</time>
      </trkpt>
      <trkpt lat="45.81039" lon="5.06046">
        <ele>187</ele>
        <time>2012-03-03T10:40:25Z</time>
      </trkpt>
      <trkpt lat="45.81043" lon="5.06061">
        <ele>186</ele>
        <time>2012-03-03T10:40:29Z</time>
      </trkpt>
      <trkpt lat="45.81048" lon="5.06081">
        <ele>190</ele>
        <time>2012-03-03T10:40:33Z</time>
      </trkpt>
      <trkpt lat="45.81047" lon="5.06104">
        <ele>188</ele>
        <time>2012-03-03T10:40:37Z</time>
      </trkpt>
      <trkpt lat="45.81049" lon="5.06125">
        <ele>185</ele>
        <time>2012-03-03T10:40:41Z</time>
      </trkpt>
      <trkpt lat="45.81053" lon="5.06144">
        <ele>181</ele>
        <time>2012-03-03T10:40:45Z</time>
      </trkpt>
      <trkpt lat="45.81054" lon="5.06169">
        <ele>193</ele>
        <time>2012-03-03T10:40:49Z</time>
      </trkpt>
      <trkpt lat="45.81057" lon="5.0619">
        <ele>193</ele>
        <time>2012-03-03T10:40:53Z</time>
      </trkpt>
      <trkpt lat="45.81056" lon="5.06208">
        <ele>193</ele>
        <time>2012-03-03T10:40:57Z</time>
      </trkpt>
      <trkpt lat="45.81047" lon="5.06227">
        <ele>193</ele>
        <time>2012-03-03T10:41:01Z</time>
      </trkpt>
      <trkpt lat="45.81036" lon="5.06246">
        <ele>192</ele>
        <time>2012-03-03T10:41:05Z</time>
      </trkpt>
      <trkpt lat="45.81026" lon="5.06265">
        <ele>189</ele>
        <time>2012-03-03T10:41:09Z</time>
      </trkpt>
      <trkpt lat="45.81018" lon="5.06286">
        <ele>185</ele>
        <time>2012-03-03T10:41:13Z</time>
      </trkpt>
      <trkpt lat="45.81016" lon="5.0631">
        <ele>179</ele>
        <time>2012-03-03T10:41:17Z</time>
      </trkpt>
      <trkpt lat="45.81019" lon="5.06333">
        <ele>179</ele>
        <time>2012-03-03T10:41:21Z</time>
      </trkpt>
      <trkpt lat="45.81014" lon="5.0635">
        <ele>178</ele>
        <time>2012-03-03T10:41:25Z</time>
      </trkpt>
      <trkpt lat="45.81012" lon="5.06371">
        <ele>183</ele>
        <time>2012-03-03T10:41:29Z</time>
      </trkpt>
      <trkpt lat="45.81014" lon="5.0639">
        <ele>188</ele>
        <time>2012-03-03T10:41:33Z</time>
      </trkpt>
      <trkpt lat="45.81013" lon="5.06411">
        <ele>185</ele>
        <time>2012-03-03T10:41:37Z</time>
      </trkpt>
      <trkpt lat="45.81005" lon="5.06434">
        <ele>178</ele>
        <time>2012-03-03T10:41:41Z</time>
      </trkpt>
      <trkpt lat="45.81006" lon="5.06463">
        <ele>176</ele>
        <time>2012-03-03T10:41:45Z</time>
      </trkpt>
      <trkpt lat="45.81007" lon="5.06475">
        <ele>174</ele>
        <time>2012-03-03T10:41:49Z</time>
      </trkpt>
      <trkpt lat="45.81008" lon="5.06476">
        <ele>176</ele>
        <time>2012-03-03T10:42:01Z</time>
      </trkpt>
      <trkpt lat="45.81008" lon="5.06475">
        <ele>177</ele>
        <time>2012-03-03T10:42:05Z</time>
      </trkpt>
      <trkpt lat="45.81008" lon="5.06475">
        <ele>175</ele>
        <time>2012-03-03T10:42:09Z</time>
      </trkpt>
      <trkpt lat="45.81008" lon="5.06473">
        <ele>172</ele>
        <time>2012-03-03T10:42:13Z</time>
      </trkpt>
      <trkpt lat="45.81008" lon="5.06465">
        <ele>182</ele>
        <time>2012-03-03T10:42:17Z</time>
      </trkpt>
      <trkpt lat="45.81005" lon="5.06452">
        <ele>186</ele>
        <time>2012-03-03T10:42:21Z</time>
      </trkpt>
      <trkpt lat="45.81006" lon="5.06441">
        <ele>188</ele>
        <time>2012-03-03T10:42:25Z</time>
      </trkpt>
      <trkpt lat="45.81009" lon="5.06427">
        <ele>188</ele>
        <time>2012-03-03T10:42:29Z</time>
      </trkpt>
      <trkpt lat="45.81013" lon="5.06415">
        <ele>189</ele>
        <time>2012-03-03T10:42:33Z</time>
      </trkpt>
      <trkpt lat="45.81014" lon="5.06404">
        <ele>186</ele>
        <time>2012-03-03T10:42:37Z</time>
      </trkpt>
      <trkpt lat="45.81016" lon="5.06392">
        <ele>185</ele>
        <time>2012-03-03T10:42:41Z</time>
      </trkpt>
      <trkpt lat="45.81018" lon="5.06382">
        <ele>186</ele>
        <time>2012-03-03T10:42:45Z</time>
      </trkpt>
      <trkpt lat="45.81023" lon="5.06372">
        <ele>188</ele>
        <time>2012-03-03T10:42:49Z</time>
      </trkpt>
      <trkpt lat="45.81029" lon="5.06359">
        <ele>185</ele>
        <time>2012-03-03T10:42:53Z</time>
      </trkpt>
      <trkpt lat="45.81041" lon="5.06354">
        <ele>184</ele>
        <time>2012-03-03T10:42:57Z</time>
      </trkpt>
      <trkpt lat="45.81053" lon="5.06358">
        <ele>182</ele>
        <time>2012-03-03T10:43:01Z</time>
      </trkpt>
      <trkpt lat="45.81066" lon="5.06364">
        <ele>181</ele>
        <time>2012-03-03T10:43:05Z</time>
      </trkpt>
      <trkpt lat="45.81077" lon="5.06366">
        <ele>181</ele>
        <time>2012-03-03T10:43:09Z</time>
      </trkpt>
      <trkpt lat="45.81082" lon="5.06372">
        <ele>182</ele>
        <time>2012-03-03T10:43:13Z</time>
      </trkpt>
      <trkpt lat="45.81082" lon="5.06391">
        <ele>183</ele>
        <time>2012-03-03T10:43:17Z</time>
      </trkpt>
      <trkpt lat="45.81078" lon="5.06412">
        <ele>181</ele>
        <time>2012-03-03T10:43:21Z</time>
      </trkpt>
      <trkpt lat="45.81081" lon="5.06434">
        <ele>180</ele>
        <time>2012-03-03T10:43:25Z</time>
      </trkpt>
      <trkpt lat="45.81084" lon="5.06457">
        <ele>176</ele>
        <time>2012-03-03T10:43:29Z</time>
      </trkpt>
      <trkpt lat="45.81088" lon="5.06479">
        <ele>178</ele>
        <time>2012-03-03T10:43:33Z</time>
      </trkpt>
      <trkpt lat="45.81091" lon="5.065">
        <ele>180</ele>
        <time>2012-03-03T10:43:37Z</time>
      </trkpt>
      <trkpt lat="45.81093" lon="5.06525">
        <ele>181</ele>
        <time>2012-03-03T10:43:41Z</time>
      </trkpt>
      <trkpt lat="45.81092" lon="5.06547">
        <ele>187</ele>
        <time>2012-03-03T10:43:45Z</time>
      </trkpt>
      <trkpt lat="45.81088" lon="5.06569">
        <ele>186</ele>
        <time>2012-03-03T10:43:49Z</time>
      </trkpt>
      <trkpt lat="45.81089" lon="5.06597">
        <ele>183</ele>
        <time>2012-03-03T10:43:53Z</time>
      </trkpt>
      <trkpt lat="45.81094" lon="5.0662">
        <ele>178</ele>
        <time>2012-03-03T10:43:57Z</time>
      </trkpt>
      <trkpt lat="45.81107" lon="5.06636">
        <ele>179</ele>
        <time>2012-03-03T10:44:01Z</time>
      </trkpt>
      <trkpt lat="45.8112" lon="5.06654">
        <ele>181</ele>
        <time>2012-03-03T10:44:05Z</time>
      </trkpt>
      <trkpt lat="45.81122" lon="5.06668">
        <ele>183</ele>
        <time>2012-03-03T10:44:09Z</time>
      </trkpt>
      <trkpt lat="45.81126" lon="5.06686">
        <ele>177</ele>
        <time>2012-03-03T10:44:13Z</time>
      </trkpt>
      <trkpt lat="45.81132" lon="5.06712">
        <ele>180</ele>
        <time>2012-03-03T10:44:17Z</time>
      </trkpt>
      <trkpt lat="45.81145" lon="5.06737">
        <ele>179</ele>
        <time>2012-03-03T10:44:21Z</time>
      </trkpt>
      <trkpt lat="45.81159" lon="5.06761">
        <ele>184</ele>
        <time>2012-03-03T10:44:25Z</time>
      </trkpt>
      <trkpt lat="45.81173" lon="5.06778">
        <ele>183</ele>
        <time>2012-03-03T10:44:29Z</time>
      </trkpt>
      <trkpt lat="45.81188" lon="5.06795">
        <ele>184</ele>
        <time>2012-03-03T10:44:33Z</time>
      </trkpt>
      <trkpt lat="45.81203" lon="5.06813">
        <ele>189</ele>
        <time>2012-03-03T10:44:37Z</time>
      </trkpt>
      <trkpt lat="45.81218" lon="5.06831">
        <ele>188</ele>
        <time>2012-03-03T10:44:41Z</time>
      </trkpt>
      <trkpt lat="45.81233" lon="5.0685">
        <ele>188</ele>
        <time>2012-03-03T10:44:45Z</time>
      </trkpt>
      <trkpt lat="45.81247" lon="5.0687">
        <ele>188</ele>
        <time>2012-03-03T10:44:49Z</time>
      </trkpt>
      <trkpt lat="45.81263" lon="5.06888">
        <ele>187</ele>
        <time>2012-03-03T10:44:53Z</time>
      </trkpt>
      <trkpt lat="45.81278" lon="5.06907">
        <ele>186</ele>
        <time>2012-03-03T10:44:57Z</time>
      </trkpt>
      <trkpt lat="45.81293" lon="5.06926">
        <ele>186</ele>
        <time>2012-03-03T10:45:01Z</time>
      </trkpt>
      <trkpt lat="45.8131" lon="5.06945">
        <ele>191</ele>
        <time>2012-03-03T10:45:05Z</time>
      </trkpt>
      <trkpt lat="45.81324" lon="5.06964">
        <ele>187</ele>
        <time>2012-03-03T10:45:09Z</time>
      </trkpt>
      <trkpt lat="45.81341" lon="5.06988">
        <ele>185</ele>
        <time>2012-03-03T10:45:13Z</time>
      </trkpt>
      <trkpt lat="45.81356" lon="5.07013">
        <ele>185</ele>
        <time>2012-03-03T10:45:17Z</time>
      </trkpt>
      <trkpt lat="45.81371" lon="5.07036">
        <ele>185</ele>
        <time>2012-03-03T10:45:21Z</time>
      </trkpt>
      <trkpt lat="45.81386" lon="5.07056">
        <ele>182</ele>
        <time>2012-03-03T10:45:25Z</time>
      </trkpt>
      <trkpt lat="45.81398" lon="5.07073">
        <ele>184</ele>
        <time>2012-03-03T10:45:29Z</time>
      </trkpt>
      <trkpt lat="45.8141" lon="5.07091">
        <ele>185</ele>
        <time>2012-03-03T10:45:33Z</time>
      </trkpt>
      <trkpt lat="45.81418" lon="5.07115">
        <ele>185</ele>
        <time>2012-03-03T10:45:37Z</time>
      </trkpt>
      <trkpt lat="45.81429" lon="5.07138">
        <ele>189</ele>
        <time>2012-03-03T10:45:41Z</time>
      </trkpt>
      <trkpt lat="45.81441" lon="5.07169">
        <ele>189</ele>
        <time>2012-03-03T10:45:45Z</time>
      </trkpt>
      <trkpt lat="45.81451" lon="5.072">
        <ele>186</ele>
        <time>2012-03-03T10:45:49Z</time>
      </trkpt>
      <trkpt lat="45.81462" lon="5.07229">
        <ele>188</ele>
        <time>2012-03-03T10:45:53Z</time>
      </trkpt>
      <trkpt lat="45.8147" lon="5.0726">
        <ele>191</ele>
        <time>2012-03-03T10:45:57Z</time>
      </trkpt>
      <trkpt lat="45.81478" lon="5.0729">
        <ele>188</ele>
        <time>2012-03-03T10:46:01Z</time>
      </trkpt>
      <trkpt lat="45.81485" lon="5.07321">
        <ele>188</ele>
        <time>2012-03-03T10:46:05Z</time>
      </trkpt>
      <trkpt lat="45.81491" lon="5.07351">
        <ele>184</ele>
        <time>2012-03-03T10:46:09Z</time>
      </trkpt>
      <trkpt lat="45.81499" lon="5.07383">
        <ele>184</ele>
        <time>2012-03-03T10:46:13Z</time>
      </trkpt>
      <trkpt lat="45.81506" lon="5.07416">
        <ele>183</ele>
        <time>2012-03-03T10:46:17Z</time>
      </trkpt>
      <trkpt lat="45.81512" lon="5.07449">
        <ele>181</ele>
        <time>2012-03-03T10:46:21Z</time>
      </trkpt>
      <trkpt lat="45.81513" lon="5.07481">
        <ele>178</ele>
        <time>2012-03-03T10:46:25Z</time>
      </trkpt>
      <trkpt lat="45.81516" lon="5.07509">
        <ele>185</ele>
        <time>2012-03-03T10:46:29Z</time>
      </trkpt>
      <trkpt lat="45.81521" lon="5.07538">
        <ele>188</ele>
        <time>2012-03-03T10:46:33Z</time>
      </trkpt>
      <trkpt lat="45.81529" lon="5.07569">
        <ele>188</ele>
        <time>2012-03-03T10:46:37Z</time>
      </trkpt>
      <trkpt lat="45.81537" lon="5.07597">
        <ele>183</ele>
        <time>2012-03-03T10:46:41Z</time>
      </trkpt>
      <trkpt lat="45.81546" lon="5.07621">
        <ele>183</ele>
        <time>2012-03-03T10:46:45Z</time>
      </trkpt>
      <trkpt lat="45.81559" lon="5.07651">
        <ele>185</ele>
        <time>2012-03-03T10:46:49Z</time>
      </trkpt>
      <trkpt lat="45.81572" lon="5.07681">
        <ele>185</ele>
        <time>2012-03-03T10:46:53Z</time>
      </trkpt>
      <trkpt lat="45.81583" lon="5.07711">
        <ele>184</ele>
        <time>2012-03-03T10:46:57Z</time>
      </trkpt>
      <trkpt lat="45.81594" lon="5.07739">
        <ele>184</ele>
        <time>2012-03-03T10:47:01Z</time>
      </trkpt>
      <trkpt lat="45.81607" lon="5.07765">
        <ele>184</ele>
        <time>2012-03-03T10:47:05Z</time>
      </trkpt>
      <trkpt lat="45.81622" lon="5.07789">
        <ele>184</ele>
        <time>2012-03-03T10:47:09Z</time>
      </trkpt>
      <trkpt lat="45.81628" lon="5.07814">
        <ele>188</ele>
        <time>2012-03-03T10:47:13Z</time>
      </trkpt>
      <trkpt lat="45.81622" lon="5.07844">
        <ele>186</ele>
        <time>2012-03-03T10:47:17Z</time>
      </trkpt>
      <trkpt lat="45.81612" lon="5.07874">
        <ele>183</ele>
        <time>2012-03-03T10:47:21Z</time>
      </trkpt>
      <trkpt lat="45.81601" lon="5.07904">
        <ele>183</ele>
        <time>2012-03-03T10:47:25Z</time>
      </trkpt>
      <trkpt lat="45.81591" lon="5.07936">
        <ele>180</ele>
        <time>2012-03-03T10:47:29Z</time>
      </trkpt>
      <trkpt lat="45.81582" lon="5.07967">
        <ele>177</ele>
        <time>2012-03-03T10:47:33Z</time>
      </trkpt>
      <trkpt lat="45.81572" lon="5.07997">
        <ele>177</ele>
        <time>2012-03-03T10:47:37Z</time>
      </trkpt>
      <trkpt lat="45.81564" lon="5.08027">
        <ele>177</ele>
        <time>2012-03-03T10:47:41Z</time>
      </trkpt>
      <trkpt lat="45.81553" lon="5.08058">
        <ele>178</ele>
        <time>2012-03-03T10:47:45Z</time>
      </trkpt>
      <trkpt lat="45.81544" lon="5.08088">
        <ele>182</ele>
        <time>2012-03-03T10:47:49Z</time>
      </trkpt>
      <trkpt lat="45.81535" lon="5.08115">
        <ele>189</ele>
        <time>2012-03-03T10:47:53Z</time>
      </trkpt>
      <trkpt lat="45.81526" lon="5.08138">
        <ele>199</ele>
        <time>2012-03-03T10:47:57Z</time>
      </trkpt>
      <trkpt lat="45.81518" lon="5.08165">
        <ele>204</ele>
        <time>2012-03-03T10:48:01Z</time>
      </trkpt>
      <trkpt lat="45.81508" lon="5.08194">
        <ele>204</ele>
        <time>2012-03-03T10:48:05Z</time>
      </trkpt>
      <trkpt lat="45.81496" lon="5.08226">
        <ele>200</ele>
        <time>2012-03-03T10:48:09Z</time>
      </trkpt>
      <trkpt lat="45.81485" lon="5.08261">
        <ele>192</ele>
        <time>2012-03-03T10:48:13Z</time>
      </trkpt>
      <trkpt lat="45.81474" lon="5.08295">
        <ele>187</ele>
        <time>2012-03-03T10:48:17Z</time>
      </trkpt>
      <trkpt lat="45.81465" lon="5.08328">
        <ele>186</ele>
        <time>2012-03-03T10:48:21Z</time>
      </trkpt>
      <trkpt lat="45.81455" lon="5.08357">
        <ele>189</ele>
        <time>2012-03-03T10:48:25Z</time>
      </trkpt>
      <trkpt lat="45.81443" lon="5.08387">
        <ele>190</ele>
        <time>2012-03-03T10:48:29Z</time>
      </trkpt>
      <trkpt lat="45.81433" lon="5.08416">
        <ele>192</ele>
        <time>2012-03-03T10:48:33Z</time>
      </trkpt>
      <trkpt lat="45.81427" lon="5.08449">
        <ele>192</ele>
        <time>2012-03-03T10:48:37Z</time>
      </trkpt>
      <trkpt lat="45.81424" lon="5.08483">
        <ele>187</ele>
        <time>2012-03-03T10:48:41Z</time>
      </trkpt>
      <trkpt lat="45.81424" lon="5.08516">
        <ele>184</ele>
        <time>2012-03-03T10:48:45Z</time>
      </trkpt>
      <trkpt lat="45.81427" lon="5.0855">
        <ele>184</ele>
        <time>2012-03-03T10:48:49Z</time>
      </trkpt>
      <trkpt lat="45.8143" lon="5.08583">
        <ele>185</ele>
        <time>2012-03-03T10:48:53Z</time>
      </trkpt>
      <trkpt lat="45.81434" lon="5.08617">
        <ele>184</ele>
        <time>2012-03-03T10:48:57Z</time>
      </trkpt>
      <trkpt lat="45.81436" lon="5.08648">
        <ele>185</ele>
        <time>2012-03-03T10:49:01Z</time>
      </trkpt>
      <trkpt lat="45.81438" lon="5.08679">
        <ele>186</ele>
        <time>2012-03-03T10:49:05Z</time>
      </trkpt>
      <trkpt lat="45.8144" lon="5.0871">
        <ele>187</ele>
        <time>2012-03-03T10:49:09Z</time>
      </trkpt>
      <trkpt lat="45.81438" lon="5.08741">
        <ele>186</ele>
        <time>2012-03-03T10:49:13Z</time>
      </trkpt>
      <trkpt lat="45.81433" lon="5.08773">
        <ele>185</ele>
        <time>2012-03-03T10:49:17Z</time>
      </trkpt>
      <trkpt lat="45.81424" lon="5.08802">
        <ele>185</ele>
        <time>2012-03-03T10:49:21Z</time>
      </trkpt>
      <trkpt lat="45.81413" lon="5.08827">
        <ele>183</ele>
        <time>2012-03-03T10:49:25Z</time>
      </trkpt>
      <trkpt lat="45.81398" lon="5.08847">
        <ele>182</ele>
        <time>2012-03-03T10:49:29Z</time>
      </trkpt>
      <trkpt lat="45.81382" lon="5.08863">
        <ele>183</ele>
        <time>2012-03-03T10:49:33Z</time>
      </trkpt>
      <trkpt lat="45.81364" lon="5.08877">
        <ele>185</ele>
        <time>2012-03-03T10:49:37Z</time>
      </trkpt>
      <trkpt lat="45.81346" lon="5.08887">
        <ele>184</ele>
        <time>2012-03-03T10:49:41Z</time>
      </trkpt>
      <trkpt lat="45.81328" lon="5.08895">
        <ele>181</ele>
        <time>2012-03-03T10:49:45Z</time>
      </trkpt>
      <trkpt lat="45.81309" lon="5.089">
        <ele>186</ele>
        <time>2012-03-03T10:49:49Z</time>
      </trkpt>
      <trkpt lat="45.8129" lon="5.08904">
        <ele>188</ele>
        <time>2012-03-03T10:49:53Z</time>
      </trkpt>
      <trkpt lat="45.81272" lon="5.08905">
        <ele>190</ele>
        <time>2012-03-03T10:49:57Z</time>
      </trkpt>
      <trkpt lat="45.81255" lon="5.08906">
        <ele>193</ele>
        <time>2012-03-03T10:50:01Z</time>
      </trkpt>
      <trkpt lat="45.81235" lon="5.08904">
        <ele>192</ele>
        <time>2012-03-03T10:50:05Z</time>
      </trkpt>
      <trkpt lat="45.81214" lon="5.08904">
        <ele>192</ele>
        <time>2012-03-03T10:50:09Z</time>
      </trkpt>
      <trkpt lat="45.81195" lon="5.08902">
        <ele>189</ele>
        <time>2012-03-03T10:50:13Z</time>
      </trkpt>
      <trkpt lat="45.81177" lon="5.08901">
        <ele>189</ele>
        <time>2012-03-03T10:50:17Z</time>
      </trkpt>
      <trkpt lat="45.8116" lon="5.08898">
        <ele>188</ele>
        <time>2012-03-03T10:50:21Z</time>
      </trkpt>
      <trkpt lat="45.81139" lon="5.08897">
        <ele>188</ele>
        <time>2012-03-03T10:50:25Z</time>
      </trkpt>
      <trkpt lat="45.81121" lon="5.08896">
        <ele>189</ele>
        <time>2012-03-03T10:50:29Z</time>
      </trkpt>
      <trkpt lat="45.81103" lon="5.08896">
        <ele>192</ele>
        <time>2012-03-03T10:50:33Z</time>
      </trkpt>
      <trkpt lat="45.81087" lon="5.08896">
        <ele>191</ele>
        <time>2012-03-03T10:50:37Z</time>
      </trkpt>
      <trkpt lat="45.8107" lon="5.08895">
        <ele>191</ele>
        <time>2012-03-03T10:50:41Z</time>
      </trkpt>
      <trkpt lat="45.81056" lon="5.08893">
        <ele>190</ele>
        <time>2012-03-03T10:50:45Z</time>
      </trkpt>
      <trkpt lat="45.8104" lon="5.08888">
        <ele>189</ele>
        <time>2012-03-03T10:50:49Z</time>
      </trkpt>
      <trkpt lat="45.81025" lon="5.08886">
        <ele>190</ele>
        <time>2012-03-03T10:50:53Z</time>
      </trkpt>
      <trkpt lat="45.81019" lon="5.08897">
        <ele>192</ele>
        <time>2012-03-03T10:50:57Z</time>
      </trkpt>
      <trkpt lat="45.81025" lon="5.08895">
        <ele>197</ele>
        <time>2012-03-03T10:51:01Z</time>
      </trkpt>
      <trkpt lat="45.8104" lon="5.08897">
        <ele>199</ele>
        <time>2012-03-03T10:51:05Z</time>
      </trkpt>
      <trkpt lat="45.81051" lon="5.08894">
        <ele>202</ele>
        <time>2012-03-03T10:51:09Z</time>
      </trkpt>
      <trkpt lat="45.81052" lon="5.08889">
        <ele>197</ele>
        <time>2012-03-03T10:51:33Z</time>
      </trkpt>
      <trkpt lat="45.81057" lon="5.08887">
        <ele>203</ele>
        <time>2012-03-03T10:51:37Z</time>
      </trkpt>
      <trkpt lat="45.8106" lon="5.08884">
        <ele>200</ele>
        <time>2012-03-03T10:51:41Z</time>
      </trkpt>
      <trkpt lat="45.81064" lon="5.08883">
        <ele>192</ele>
        <time>2012-03-03T10:52:01Z</time>
      </trkpt>
      <trkpt lat="45.81063" lon="5.08894">
        <ele>185</ele>
        <time>2012-03-03T10:52:09Z</time>
      </trkpt>
      <trkpt lat="45.81071" lon="5.08887">
        <ele>194</ele>
        <time>2012-03-03T10:52:21Z</time>
      </trkpt>
      <trkpt lat="45.81071" lon="5.08874">
        <ele>194</ele>
        <time>2012-03-03T10:52:25Z</time>
      </trkpt>
      <trkpt lat="45.8107" lon="5.08855">
        <ele>190</ele>
        <time>2012-03-03T10:52:29Z</time>
      </trkpt>
      <trkpt lat="45.8107" lon="5.08829">
        <ele>184</ele>
        <time>2012-03-03T10:52:33Z</time>
      </trkpt>
      <trkpt lat="45.81068" lon="5.08803">
        <ele>184</ele>
        <time>2012-03-03T10:52:37Z</time>
      </trkpt>
      <trkpt lat="45.81068" lon="5.08777">
        <ele>186</ele>
        <time>2012-03-03T10:52:41Z</time>
      </trkpt>
      <trkpt lat="45.81065" lon="5.08748">
        <ele>185</ele>
        <time>2012-03-03T10:52:45Z</time>
      </trkpt>
      <trkpt lat="45.81062" lon="5.08721">
        <ele>182</ele>
        <time>2012-03-03T10:52:49Z</time>
      </trkpt>
      <trkpt lat="45.81062" lon="5.08696">
        <ele>184</ele>
        <time>2012-03-03T10:52:53Z</time>
      </trkpt>
      <trkpt lat="45.81062" lon="5.0867">
        <ele>184</ele>
        <time>2012-03-03T10:52:57Z</time>
      </trkpt>
      <trkpt lat="45.81058" lon="5.08644">
        <ele>186</ele>
        <time>2012-03-03T10:53:01Z</time>
      </trkpt>
      <trkpt lat="45.81055" lon="5.08615">
        <ele>184</ele>
        <time>2012-03-03T10:53:05Z</time>
      </trkpt>
      <trkpt lat="45.81052" lon="5.08588">
        <ele>185</ele>
        <time>2012-03-03T10:53:09Z</time>
      </trkpt>
      <trkpt lat="45.81049" lon="5.08561">
        <ele>187</ele>
        <time>2012-03-03T10:53:13Z</time>
      </trkpt>
      <trkpt lat="45.81046" lon="5.08533">
        <ele>185</ele>
        <time>2012-03-03T10:53:17Z</time>
      </trkpt>
      <trkpt lat="45.81043" lon="5.08505">
        <ele>188</ele>
        <time>2012-03-03T10:53:21Z</time>
      </trkpt>
      <trkpt lat="45.81041" lon="5.08477">
        <ele>192</ele>
        <time>2012-03-03T10:53:25Z</time>
      </trkpt>
      <trkpt lat="45.81039" lon="5.08445">
        <ele>188</ele>
        <time>2012-03-03T10:53:29Z</time>
      </trkpt>
      <trkpt lat="45.81037" lon="5.08416">
        <ele>186</ele>
        <time>2012-03-03T10:53:33Z</time>
      </trkpt>
      <trkpt lat="45.81036" lon="5.08385">
        <ele>185</ele>
        <time>2012-03-03T10:53:37Z</time>
      </trkpt>
      <trkpt lat="45.81034" lon="5.08356">
        <ele>186</ele>
        <time>2012-03-03T10:53:41Z</time>
      </trkpt>
      <trkpt lat="45.81033" lon="5.08327">
        <ele>184</ele>
        <time>2012-03-03T10:53:45Z</time>
      </trkpt>
      <trkpt lat="45.81033" lon="5.083">
        <ele>185</ele>
        <time>2012-03-03T10:53:49Z</time>
      </trkpt>
      <trkpt lat="45.81031" lon="5.08271">
        <ele>189</ele>
        <time>2012-03-03T10:53:53Z</time>
      </trkpt>
      <trkpt lat="45.81021" lon="5.08241">
        <ele>189</ele>
        <time>2012-03-03T10:53:57Z</time>
      </trkpt>
      <trkpt lat="45.81013" lon="5.08214">
        <ele>189</ele>
        <time>2012-03-03T10:54:01Z</time>
      </trkpt>
      <trkpt lat="45.81007" lon="5.08183">
        <ele>188</ele>
        <time>2012-03-03T10:54:05Z</time>
      </trkpt>
      <trkpt lat="45.81002" lon="5.08155">
        <ele>187</ele>
        <time>2012-03-03T10:54:09Z</time>
      </trkpt>
      <trkpt lat="45.81001" lon="5.08125">
        <ele>190</ele>
        <time>2012-03-03T10:54:13Z</time>
      </trkpt>
      <trkpt lat="45.80999" lon="5.08093">
        <ele>190</ele>
        <time>2012-03-03T10:54:17Z</time>
      </trkpt>
      <trkpt lat="45.81" lon="5.08062">
        <ele>189</ele>
        <time>2012-03-03T10:54:21Z</time>
      </trkpt>
      <trkpt lat="45.80998" lon="5.08031">
        <ele>189</ele>
        <time>2012-03-03T10:54:25Z</time>
      </trkpt>
      <trkpt lat="45.80996" lon="5.08">
        <ele>188</ele>
        <time>2012-03-03T10:54:29Z</time>
      </trkpt>
      <trkpt lat="45.80995" lon="5.0797">
        <ele>191</ele>
        <time>2012-03-03T10:54:33Z</time>
      </trkpt>
      <trkpt lat="45.80994" lon="5.07937">
        <ele>192</ele>
        <time>2012-03-03T10:54:37Z</time>
      </trkpt>
      <trkpt lat="45.80992" lon="5.07903">
        <ele>192</ele>
        <time>2012-03-03T10:54:41Z</time>
      </trkpt>
      <trkpt lat="45.80991" lon="5.07876">
        <ele>194</ele>
        <time>2012-03-03T10:54:45Z</time>
      </trkpt>
      <trkpt lat="45.80991" lon="5.07843">
        <ele>198</ele>
        <time>2012-03-03T10:54:49Z</time>
      </trkpt>
      <trkpt lat="45.80987" lon="5.07813">
        <ele>201</ele>
        <time>2012-03-03T10:54:53Z</time>
      </trkpt>
      <trkpt lat="45.80981" lon="5.07781">
        <ele>195</ele>
        <time>2012-03-03T10:54:57Z</time>
      </trkpt>
      <trkpt lat="45.80975" lon="5.07755">
        <ele>197</ele>
        <time>2012-03-03T10:55:01Z</time>
      </trkpt>
      <trkpt lat="45.8097" lon="5.07727">
        <ele>195</ele>
        <time>2012-03-03T10:55:05Z</time>
      </trkpt>
      <trkpt lat="45.80967" lon="5.07696">
        <ele>196</ele>
        <time>2012-03-03T10:55:09Z</time>
      </trkpt>
      <trkpt lat="45.80965" lon="5.07663">
        <ele>199</ele>
        <time>2012-03-03T10:55:13Z</time>
      </trkpt>
      <trkpt lat="45.80962" lon="5.07628">
        <ele>197</ele>
        <time>2012-03-03T10:55:17Z</time>
      </trkpt>
      <trkpt lat="45.80959" lon="5.07597">
        <ele>199</ele>
        <time>2012-03-03T10:55:21Z</time>
      </trkpt>
      <trkpt lat="45.80955" lon="5.07569">
        <ele>204</ele>
        <time>2012-03-03T10:55:25Z</time>
      </trkpt>
      <trkpt lat="45.80951" lon="5.07533">
        <ele>208</ele>
        <time>2012-03-03T10:55:29Z</time>
      </trkpt>
      <trkpt lat="45.80947" lon="5.07501">
        <ele>206</ele>
        <time>2012-03-03T10:55:33Z</time>
      </trkpt>
      <trkpt lat="45.8094" lon="5.07469">
        <ele>205</ele>
        <time>2012-03-03T10:55:37Z</time>
      </trkpt>
      <trkpt lat="45.80934" lon="5.07438">
        <ele>198</ele>
        <time>2012-03-03T10:55:41Z</time>
      </trkpt>
      <trkpt lat="45.80924" lon="5.07409">
        <ele>201</ele>
        <time>2012-03-03T10:55:45Z</time>
      </trkpt>
      <trkpt lat="45.80916" lon="5.07379">
        <ele>200</ele>
        <time>2012-03-03T10:55:49Z</time>
      </trkpt>
      <trkpt lat="45.80907" lon="5.07349">
        <ele>200</ele>
        <time>2012-03-03T10:55:53Z</time>
      </trkpt>
      <trkpt lat="45.80897" lon="5.07319">
        <ele>196</ele>
        <time>2012-03-03T10:55:57Z</time>
      </trkpt>
      <trkpt lat="45.80885" lon="5.0729">
        <ele>198</ele>
        <time>2012-03-03T10:56:01Z</time>
      </trkpt>
      <trkpt lat="45.80871" lon="5.0726">
        <ele>200</ele>
        <time>2012-03-03T10:56:05Z</time>
      </trkpt>
      <trkpt lat="45.80861" lon="5.0723">
        <ele>197</ele>
        <time>2012-03-03T10:56:09Z</time>
      </trkpt>
      <trkpt lat="45.8085" lon="5.072">
        <ele>196</ele>
        <time>2012-03-03T10:56:13Z</time>
      </trkpt>
      <trkpt lat="45.8084" lon="5.07172">
        <ele>194</ele>
        <time>2012-03-03T10:56:17Z</time>
      </trkpt>
      <trkpt lat="45.80831" lon="5.07144">
        <ele>197</ele>
        <time>2012-03-03T10:56:21Z</time>
      </trkpt>
      <trkpt lat="45.80817" lon="5.07116">
        <ele>199</ele>
        <time>2012-03-03T10:56:25Z</time>
      </trkpt>
      <trkpt lat="45.80808" lon="5.07086">
        <ele>203</ele>
        <time>2012-03-03T10:56:29Z</time>
      </trkpt>
      <trkpt lat="45.80803" lon="5.07052">
        <ele>212</ele>
        <time>2012-03-03T10:56:33Z</time>
      </trkpt>
      <trkpt lat="45.808" lon="5.0702">
        <ele>211</ele>
        <time>2012-03-03T10:56:37Z</time>
      </trkpt>
      <trkpt lat="45.80798" lon="5.06986">
        <ele>212</ele>
        <time>2012-03-03T10:56:41Z</time>
      </trkpt>
      <trkpt lat="45.80795" lon="5.06952">
        <ele>207</ele>
        <time>2012-03-03T10:56:45Z</time>
      </trkpt>
      <trkpt lat="45.80792" lon="5.06915">
        <ele>201</ele>
        <time>2012-03-03T10:56:49Z</time>
      </trkpt>
      <trkpt lat="45.80789" lon="5.06881">
        <ele>203</ele>
        <time>2012-03-03T10:56:53Z</time>
      </trkpt>
      <trkpt lat="45.80787" lon="5.06851">
        <ele>203</ele>
        <time>2012-03-03T10:56:57Z</time>
      </trkpt>
      <trkpt lat="45.80782" lon="5.06816">
        <ele>211</ele>
        <time>2012-03-03T10:57:01Z</time>
      </trkpt>
      <trkpt lat="45.80777" lon="5.06787">
        <ele>209</ele>
        <time>2012-03-03T10:57:05Z</time>
      </trkpt>
      <trkpt lat="45.80771" lon="5.06753">
        <ele>212</ele>
        <time>2012-03-03T10:57:09Z</time>
      </trkpt>
      <trkpt lat="45.80764" lon="5.06715">
        <ele>207</ele>
        <time>2012-03-03T10:57:13Z</time>
      </trkpt>
      <trkpt lat="45.80755" lon="5.06682">
        <ele>200</ele>
        <time>2012-03-03T10:57:17Z</time>
      </trkpt>
      <trkpt lat="45.80746" lon="5.06646">
        <ele>198</ele>
        <time>2012-03-03T10:57:21Z</time>
      </trkpt>
      <trkpt lat="45.80735" lon="5.06612">
        <ele>194</ele>
        <time>2012-03-03T10:57:25Z</time>
      </trkpt>
      <trkpt lat="45.80726" lon="5.06585">
        <ele>196</ele>
        <time>2012-03-03T10:57:29Z</time>
      </trkpt>
      <trkpt lat="45.80716" lon="5.06547">
        <ele>202</ele>
        <time>2012-03-03T10:57:33Z</time>
      </trkpt>
      <trkpt lat="45.80705" lon="5.06517">
        <ele>195</ele>
        <time>2012-03-03T10:57:37Z</time>
      </trkpt>
      <trkpt lat="45.80693" lon="5.06484">
        <ele>187</ele>
        <time>2012-03-03T10:57:41Z</time>
      </trkpt>
      <trkpt lat="45.80684" lon="5.06452">
        <ele>187</ele>
        <time>2012-03-03T10:57:45Z</time>
      </trkpt>
      <trkpt lat="45.80675" lon="5.06424">
        <ele>189</ele>
        <time>2012-03-03T10:57:49Z</time>
      </trkpt>
      <trkpt lat="45.80667" lon="5.06395">
        <ele>190</ele>
        <time>2012-03-03T10:57:53Z</time>
      </trkpt>
      <trkpt lat="45.80658" lon="5.06363">
        <ele>191</ele>
        <time>2012-03-03T10:57:57Z</time>
      </trkpt>
      <trkpt lat="45.80652" lon="5.06337">
        <ele>195</ele>
        <time>2012-03-03T10:58:01Z</time>
      </trkpt>
      <trkpt lat="45.80645" lon="5.06306">
        <ele>198</ele>
        <time>2012-03-03T10:58:05Z</time>
      </trkpt>
      <trkpt lat="45.80636" lon="5.06271">
        <ele>195</ele>
        <time>2012-03-03T10:58:09Z</time>
      </trkpt>
      <trkpt lat="45.80627" lon="5.06238">
        <ele>193</ele>
        <time>2012-03-03T10:58:13Z</time>
      </trkpt>
      <trkpt lat="45.80617" lon="5.0621">
        <ele>192</ele>
        <time>2012-03-03T10:58:17Z</time>
      </trkpt>
      <trkpt lat="45.80609" lon="5.0618">
        <ele>192</ele>
        <time>2012-03-03T10:58:21Z</time>
      </trkpt>
      <trkpt lat="45.806" lon="5.06147">
        <ele>190</ele>
        <time>2012-03-03T10:58:25Z</time>
      </trkpt>
      <trkpt lat="45.8059" lon="5.06112">
        <ele>186</ele>
        <time>2012-03-03T10:58:29Z</time>
      </trkpt>
      <trkpt lat="45.80577" lon="5.06078">
        <ele>184</ele>
        <time>2012-03-03T10:58:33Z</time>
      </trkpt>
      <trkpt lat="45.80567" lon="5.0605">
        <ele>182</ele>
        <time>2012-03-03T10:58:37Z</time>
      </trkpt>
      <trkpt lat="45.8056" lon="5.06021">
        <ele>183</ele>
        <time>2012-03-03T10:58:41Z</time>
      </trkpt>
      <trkpt lat="45.80555" lon="5.05991">
        <ele>186</ele>
        <time>2012-03-03T10:58:45Z</time>
      </trkpt>
      <trkpt lat="45.8055" lon="5.05961">
        <ele>192</ele>
        <time>2012-03-03T10:58:49Z</time>
      </trkpt>
      <trkpt lat="45.80544" lon="5.05931">
        <ele>196</ele>
        <time>2012-03-03T10:58:53Z</time>
      </trkpt>
      <trkpt lat="45.80537" lon="5.059">
        <ele>203</ele>
        <time>2012-03-03T10:58:57Z</time>
      </trkpt>
      <trkpt lat="45.80528" lon="5.05871">
        <ele>207</ele>
        <time>2012-03-03T10:59:01Z</time>
      </trkpt>
      <trkpt lat="45.80521" lon="5.05842">
        <ele>208</ele>
        <time>2012-03-03T10:59:05Z</time>
      </trkpt>
      <trkpt lat="45.80515" lon="5.05811">
        <ele>208</ele>
        <time>2012-03-03T10:59:09Z</time>
      </trkpt>
      <trkpt lat="45.80511" lon="5.05781">
        <ele>207</ele>
        <time>2012-03-03T10:59:13Z</time>
      </trkpt>
      <trkpt lat="45.80505" lon="5.05749">
        <ele>209</ele>
        <time>2012-03-03T10:59:17Z</time>
      </trkpt>
      <trkpt lat="45.805" lon="5.05715">
        <ele>201</ele>
        <time>2012-03-03T10:59:21Z</time>
      </trkpt>
      <trkpt lat="45.80495" lon="5.05682">
        <ele>206</ele>
        <time>2012-03-03T10:59:25Z</time>
      </trkpt>
      <trkpt lat="45.8049" lon="5.05656">
        <ele>209</ele>
        <time>2012-03-03T10:59:29Z</time>
      </trkpt>
      <trkpt lat="45.80482" lon="5.05626">
        <ele>201</ele>
        <time>2012-03-03T10:59:33Z</time>
      </trkpt>
      <trkpt lat="45.80474" lon="5.05595">
        <ele>205</ele>
        <time>2012-03-03T10:59:37Z</time>
      </trkpt>
      <trkpt lat="45.8047" lon="5.05565">
        <ele>210</ele>
        <time>2012-03-03T10:59:41Z</time>
      </trkpt>
      <trkpt lat="45.80465" lon="5.05534">
        <ele>214</ele>
        <time>2012-03-03T10:59:45Z</time>
      </trkpt>
      <trkpt lat="45.80459" lon="5.05503">
        <ele>210</ele>
        <time>2012-03-03T10:59:49Z</time>
      </trkpt>
      <trkpt lat="45.80454" lon="5.05473">
        <ele>212</ele>
        <time>2012-03-03T10:59:53Z</time>
      </trkpt>
      <trkpt lat="45.80446" lon="5.05438">
        <ele>216</ele>
        <time>2012-03-03T10:59:57Z</time>
      </trkpt>
      <trkpt lat="45.80441" lon="5.05397">
        <ele>210</ele>
        <time>2012-03-03T11:00:01Z</time>
      </trkpt>
      <trkpt lat="45.80436" lon="5.05364">
        <ele>209</ele>
        <time>2012-03-03T11:00:05Z</time>
      </trkpt>
      <trkpt lat="45.80433" lon="5.05335">
        <ele>206</ele>
        <time>2012-03-03T11:00:09Z</time>
      </trkpt>
      <trkpt lat="45.80429" lon="5.05303">
        <ele>209</ele>
        <time>2012-03-03T11:00:13Z</time>
      </trkpt>
      <trkpt lat="45.80421" lon="5.05273">
        <ele>212</ele>
        <time>2012-03-03T11:00:17Z</time>
      </trkpt>
      <trkpt lat="45.80413" lon="5.05241">
        <ele>209</ele>
        <time>2012-03-03T11:00:21Z</time>
      </trkpt>
      <trkpt lat="45.80405" lon="5.05212">
        <ele>206</ele>
        <time>2012-03-03T11:00:25Z</time>
      </trkpt>
      <trkpt lat="45.80394" lon="5.05177">
        <ele>207</ele>
        <time>2012-03-03T11:00:29Z</time>
      </trkpt>
      <trkpt lat="45.80384" lon="5.05145">
        <ele>199</ele>
        <time>2012-03-03T11:00:33Z</time>
      </trkpt>
      <trkpt lat="45.80372" lon="5.05118">
        <ele>201</ele>
        <time>2012-03-03T11:00:37Z</time>
      </trkpt>
      <trkpt lat="45.80359" lon="5.05094">
        <ele>204</ele>
        <time>2012-03-03T11:00:41Z</time>
      </trkpt>
      <trkpt lat="45.80341" lon="5.05066">
        <ele>202</ele>
        <time>2012-03-03T11:00:45Z</time>
      </trkpt>
      <trkpt lat="45.80328" lon="5.05039">
        <ele>205</ele>
        <time>2012-03-03T11:00:49Z</time>
      </trkpt>
      <trkpt lat="45.80312" lon="5.05014">
        <ele>203</ele>
        <time>2012-03-03T11:00:53Z</time>
      </trkpt>
      <trkpt lat="45.80303" lon="5.04983">
        <ele>201</ele>
        <time>2012-03-03T11:00:57Z</time>
      </trkpt>
      <trkpt lat="45.80296" lon="5.04953">
        <ele>199</ele>
        <time>2012-03-03T11:01:01Z</time>
      </trkpt>
      <trkpt lat="45.80291" lon="5.04921">
        <ele>193</ele>
        <time>2012-03-03T11:01:05Z</time>
      </trkpt>
      <trkpt lat="45.8028" lon="5.0489">
        <ele>193</ele>
        <time>2012-03-03T11:01:09Z</time>
      </trkpt>
      <trkpt lat="45.80267" lon="5.04861">
        <ele>191</ele>
        <time>2012-03-03T11:01:13Z</time>
      </trkpt>
      <trkpt lat="45.80258" lon="5.04828">
        <ele>188</ele>
        <time>2012-03-03T11:01:17Z</time>
      </trkpt>
      <trkpt lat="45.80249" lon="5.04796">
        <ele>188</ele>
        <time>2012-03-03T11:01:21Z</time>
      </trkpt>
      <trkpt lat="45.80236" lon="5.04771">
        <ele>189</ele>
        <time>2012-03-03T11:01:25Z</time>
      </trkpt>
      <trkpt lat="45.80227" lon="5.04742">
        <ele>191</ele>
        <time>2012-03-03T11:01:29Z</time>
      </trkpt>
      <trkpt lat="45.80219" lon="5.04712">
        <ele>190</ele>
        <time>2012-03-03T11:01:33Z</time>
      </trkpt>
      <trkpt lat="45.80216" lon="5.0468">
        <ele>192</ele>
        <time>2012-03-03T11:01:37Z</time>
      </trkpt>
      <trkpt lat="45.80209" lon="5.04646">
        <ele>194</ele>
        <time>2012-03-03T11:01:41Z</time>
      </trkpt>
      <trkpt lat="45.802" lon="5.04614">
        <ele>191</ele>
        <time>2012-03-03T11:01:45Z</time>
      </trkpt>
      <trkpt lat="45.8019" lon="5.04585">
        <ele>192</ele>
        <time>2012-03-03T11:01:49Z</time>
      </trkpt>
      <trkpt lat="45.80179" lon="5.04556">
        <ele>193</ele>
        <time>2012-03-03T11:01:53Z</time>
      </trkpt>
      <trkpt lat="45.80169" lon="5.04523">
        <ele>190</ele>
        <time>2012-03-03T11:01:57Z</time>
      </trkpt>
      <trkpt lat="45.80158" lon="5.04495">
        <ele>194</ele>
        <time>2012-03-03T11:02:01Z</time>
      </trkpt>
      <trkpt lat="45.80148" lon="5.04467">
        <ele>195</ele>
        <time>2012-03-03T11:02:05Z</time>
      </trkpt>
      <trkpt lat="45.80133" lon="5.04443">
        <ele>196</ele>
        <time>2012-03-03T11:02:09Z</time>
      </trkpt>
      <trkpt lat="45.80117" lon="5.04422">
        <ele>201</ele>
        <time>2012-03-03T11:02:13Z</time>
      </trkpt>
      <trkpt lat="45.80097" lon="5.04403">
        <ele>200</ele>
        <time>2012-03-03T11:02:17Z</time>
      </trkpt>
      <trkpt lat="45.80077" lon="5.04387">
        <ele>201</ele>
        <time>2012-03-03T11:02:21Z</time>
      </trkpt>
      <trkpt lat="45.80057" lon="5.04363">
        <ele>204</ele>
        <time>2012-03-03T11:02:25Z</time>
      </trkpt>
      <trkpt lat="45.8004" lon="5.04334">
        <ele>202</ele>
        <time>2012-03-03T11:02:29Z</time>
      </trkpt>
      <trkpt lat="45.80026" lon="5.04306">
        <ele>200</ele>
        <time>2012-03-03T11:02:33Z</time>
      </trkpt>
      <trkpt lat="45.80013" lon="5.04279">
        <ele>200</ele>
        <time>2012-03-03T11:02:37Z</time>
      </trkpt>
      <trkpt lat="45.80001" lon="5.04252">
        <ele>193</ele>
        <time>2012-03-03T11:02:41Z</time>
      </trkpt>
      <trkpt lat="45.79991" lon="5.04223">
        <ele>192</ele>
        <time>2012-03-03T11:02:45Z</time>
      </trkpt>
      <trkpt lat="45.79976" lon="5.04197">
        <ele>192</ele>
        <time>2012-03-03T11:02:49Z</time>
      </trkpt>
      <trkpt lat="45.79955" lon="5.0417">
        <ele>192</ele>
        <time>2012-03-03T11:02:53Z</time>
      </trkpt>
      <trkpt lat="45.79938" lon="5.04144">
        <ele>185</ele>
        <time>2012-03-03T11:02:57Z</time>
      </trkpt>
      <trkpt lat="45.79922" lon="5.04125">
        <ele>185</ele>
        <time>2012-03-03T11:03:01Z</time>
      </trkpt>
      <trkpt lat="45.79906" lon="5.04108">
        <ele>188</ele>
        <time>2012-03-03T11:03:05Z</time>
      </trkpt>
      <trkpt lat="45.79889" lon="5.04087">
        <ele>187</ele>
        <time>2012-03-03T11:03:09Z</time>
      </trkpt>
      <trkpt lat="45.79877" lon="5.04074">
        <ele>185</ele>
        <time>2012-03-03T11:03:13Z</time>
      </trkpt>
      <trkpt lat="45.79865" lon="5.04063">
        <ele>188</ele>
        <time>2012-03-03T11:03:17Z</time>
      </trkpt>
      <trkpt lat="45.79853" lon="5.04051">
        <ele>194</ele>
        <time>2012-03-03T11:03:21Z</time>
      </trkpt>
      <trkpt lat="45.79839" lon="5.04032">
        <ele>201</ele>
        <time>2012-03-03T11:03:25Z</time>
      </trkpt>
      <trkpt lat="45.79827" lon="5.04013">
        <ele>205</ele>
        <time>2012-03-03T11:03:29Z</time>
      </trkpt>
      <trkpt lat="45.7981" lon="5.03997">
        <ele>208</ele>
        <time>2012-03-03T11:03:33Z</time>
      </trkpt>
      <trkpt lat="45.79786" lon="5.03971">
        <ele>208</ele>
        <time>2012-03-03T11:03:37Z</time>
      </trkpt>
      <trkpt lat="45.79755" lon="5.03939">
        <ele>202</ele>
        <time>2012-03-03T11:03:41Z</time>
      </trkpt>
      <trkpt lat="45.7973" lon="5.03919">
        <ele>193</ele>
        <time>2012-03-03T11:03:45Z</time>
      </trkpt>
      <trkpt lat="45.79708" lon="5.03902">
        <ele>193</ele>
        <time>2012-03-03T11:03:49Z</time>
      </trkpt>
      <trkpt lat="45.79688" lon="5.03887">
        <ele>192</ele>
        <time>2012-03-03T11:03:53Z</time>
      </trkpt>
      <trkpt lat="45.79676" lon="5.03863">
        <ele>187</ele>
        <time>2012-03-03T11:03:57Z</time>
      </trkpt>
      <trkpt lat="45.79665" lon="5.03833">
        <ele>184</ele>
        <time>2012-03-03T11:04:01Z</time>
      </trkpt>
      <trkpt lat="45.79652" lon="5.03805">
        <ele>182</ele>
        <time>2012-03-03T11:04:05Z</time>
      </trkpt>
      <trkpt lat="45.79641" lon="5.03776">
        <ele>182</ele>
        <time>2012-03-03T11:04:09Z</time>
      </trkpt>
      <trkpt lat="45.79629" lon="5.03749">
        <ele>181</ele>
        <time>2012-03-03T11:04:13Z</time>
      </trkpt>
      <trkpt lat="45.79618" lon="5.03725">
        <ele>181</ele>
        <time>2012-03-03T11:04:17Z</time>
      </trkpt>
      <trkpt lat="45.79608" lon="5.03699">
        <ele>182</ele>
        <time>2012-03-03T11:04:21Z</time>
      </trkpt>
      <trkpt lat="45.79598" lon="5.0367">
        <ele>181</ele>
        <time>2012-03-03T11:04:25Z</time>
      </trkpt>
      <trkpt lat="45.79589" lon="5.03643">
        <ele>183</ele>
        <time>2012-03-03T11:04:29Z</time>
      </trkpt>
      <trkpt lat="45.79583" lon="5.03615">
        <ele>183</ele>
        <time>2012-03-03T11:04:33Z</time>
      </trkpt>
      <trkpt lat="45.79576" lon="5.03585">
        <ele>189</ele>
        <time>2012-03-03T11:04:37Z</time>
      </trkpt>
      <trkpt lat="45.79567" lon="5.03552">
        <ele>185</ele>
        <time>2012-03-03T11:04:41Z</time>
      </trkpt>
      <trkpt lat="45.79559" lon="5.0352">
        <ele>186</ele>
        <time>2012-03-03T11:04:45Z</time>
      </trkpt>
      <trkpt lat="45.79554" lon="5.03495">
        <ele>189</ele>
        <time>2012-03-03T11:04:49Z</time>
      </trkpt>
      <trkpt lat="45.79548" lon="5.03467">
        <ele>191</ele>
        <time>2012-03-03T11:04:53Z</time>
      </trkpt>
      <trkpt lat="45.79542" lon="5.03435">
        <ele>193</ele>
        <time>2012-03-03T11:04:57Z</time>
      </trkpt>
      <trkpt lat="45.79537" lon="5.03404">
        <ele>195</ele>
        <time>2012-03-03T11:05:01Z</time>
      </trkpt>
      <trkpt lat="45.79533" lon="5.03371">
        <ele>197</ele>
        <time>2012-03-03T11:05:05Z</time>
      </trkpt>
      <trkpt lat="45.7953" lon="5.03339">
        <ele>203</ele>
        <time>2012-03-03T11:05:09Z</time>
      </trkpt>
      <trkpt lat="45.79527" lon="5.03306">
        <ele>207</ele>
        <time>2012-03-03T11:05:13Z</time>
      </trkpt>
      <trkpt lat="45.79522" lon="5.03267">
        <ele>200</ele>
        <time>2012-03-03T11:05:17Z</time>
      </trkpt>
      <trkpt lat="45.79514" lon="5.03225">
        <ele>188</ele>
        <time>2012-03-03T11:05:21Z</time>
      </trkpt>
      <trkpt lat="45.79502" lon="5.03193">
        <ele>185</ele>
        <time>2012-03-03T11:05:25Z</time>
      </trkpt>
      <trkpt lat="45.79491" lon="5.03163">
        <ele>183</ele>
        <time>2012-03-03T11:05:29Z</time>
      </trkpt>
      <trkpt lat="45.79477" lon="5.03135">
        <ele>183</ele>
        <time>2012-03-03T11:05:33Z</time>
      </trkpt>
      <trkpt lat="45.79462" lon="5.03109">
        <ele>182</ele>
        <time>2012-03-03T11:05:37Z</time>
      </trkpt>
      <trkpt lat="45.79446" lon="5.03084">
        <ele>180</ele>
        <time>2012-03-03T11:05:41Z</time>
      </trkpt>
      <trkpt lat="45.79427" lon="5.03067">
        <ele>180</ele>
        <time>2012-03-03T11:05:45Z</time>
      </trkpt>
      <trkpt lat="45.79408" lon="5.03047">
        <ele>180</ele>
        <time>2012-03-03T11:05:49Z</time>
      </trkpt>
      <trkpt lat="45.79387" lon="5.03026">
        <ele>180</ele>
        <time>2012-03-03T11:05:53Z</time>
      </trkpt>
      <trkpt lat="45.79366" lon="5.03008">
        <ele>180</ele>
        <time>2012-03-03T11:05:57Z</time>
      </trkpt>
      <trkpt lat="45.79345" lon="5.02993">
        <ele>182</ele>
        <time>2012-03-03T11:06:01Z</time>
      </trkpt>
      <trkpt lat="45.79327" lon="5.0298">
        <ele>185</ele>
        <time>2012-03-03T11:06:05Z</time>
      </trkpt>
      <trkpt lat="45.79305" lon="5.02966">
        <ele>186</ele>
        <time>2012-03-03T11:06:09Z</time>
      </trkpt>
      <trkpt lat="45.79288" lon="5.02952">
        <ele>191</ele>
        <time>2012-03-03T11:06:13Z</time>
      </trkpt>
      <trkpt lat="45.79269" lon="5.02932">
        <ele>189</ele>
        <time>2012-03-03T11:06:17Z</time>
      </trkpt>
      <trkpt lat="45.79248" lon="5.02914">
        <ele>192</ele>
        <time>2012-03-03T11:06:21Z</time>
      </trkpt>
      <trkpt lat="45.7923" lon="5.02895">
        <ele>187</ele>
        <time>2012-03-03T11:06:25Z</time>
      </trkpt>
      <trkpt lat="45.79211" lon="5.02876">
        <ele>188</ele>
        <time>2012-03-03T11:06:29Z</time>
      </trkpt>
      <trkpt lat="45.79193" lon="5.0286">
        <ele>191</ele>
        <time>2012-03-03T11:06:33Z</time>
      </trkpt>
      <trkpt lat="45.79173" lon="5.0284">
        <ele>191</ele>
        <time>2012-03-03T11:06:37Z</time>
      </trkpt>
      <trkpt lat="45.79154" lon="5.02821">
        <ele>191</ele>
        <time>2012-03-03T11:06:41Z</time>
      </trkpt>
      <trkpt lat="45.79134" lon="5.02801">
        <ele>190</ele>
        <time>2012-03-03T11:06:45Z</time>
      </trkpt>
      <trkpt lat="45.79115" lon="5.02783">
        <ele>194</ele>
        <time>2012-03-03T11:06:49Z</time>
      </trkpt>
      <trkpt lat="45.79098" lon="5.02763">
        <ele>194</ele>
        <time>2012-03-03T11:06:53Z</time>
      </trkpt>
      <trkpt lat="45.79078" lon="5.02745">
        <ele>189</ele>
        <time>2012-03-03T11:06:57Z</time>
      </trkpt>
      <trkpt lat="45.79059" lon="5.02724">
        <ele>192</ele>
        <time>2012-03-03T11:07:01Z</time>
      </trkpt>
      <trkpt lat="45.79041" lon="5.02704">
        <ele>193</ele>
        <time>2012-03-03T11:07:05Z</time>
      </trkpt>
      <trkpt lat="45.7902" lon="5.02684">
        <ele>192</ele>
        <time>2012-03-03T11:07:09Z</time>
      </trkpt>
      <trkpt lat="45.78996" lon="5.02663">
        <ele>189</ele>
        <time>2012-03-03T11:07:13Z</time>
      </trkpt>
      <trkpt lat="45.78976" lon="5.02645">
        <ele>182</ele>
        <time>2012-03-03T11:07:17Z</time>
      </trkpt>
      <trkpt lat="45.78956" lon="5.02636">
        <ele>180</ele>
        <time>2012-03-03T11:07:21Z</time>
      </trkpt>
      <trkpt lat="45.78937" lon="5.02631">
        <ele>181</ele>
        <time>2012-03-03T11:07:25Z</time>
      </trkpt>
      <trkpt lat="45.78926" lon="5.0262">
        <ele>181</ele>
        <time>2012-03-03T11:07:29Z</time>
      </trkpt>
      <trkpt lat="45.7892" lon="5.02598">
        <ele>181</ele>
        <time>2012-03-03T11:07:33Z</time>
      </trkpt>
      <trkpt lat="45.78911" lon="5.02566">
        <ele>179</ele>
        <time>2012-03-03T11:07:37Z</time>
      </trkpt>
      <trkpt lat="45.78897" lon="5.02528">
        <ele>176</ele>
        <time>2012-03-03T11:07:41Z</time>
      </trkpt>
      <trkpt lat="45.78878" lon="5.02493">
        <ele>174</ele>
        <time>2012-03-03T11:07:45Z</time>
      </trkpt>
      <trkpt lat="45.78864" lon="5.02464">
        <ele>178</ele>
        <time>2012-03-03T11:07:49Z</time>
      </trkpt>
      <trkpt lat="45.78852" lon="5.02436">
        <ele>181</ele>
        <time>2012-03-03T11:07:53Z</time>
      </trkpt>
      <trkpt lat="45.78835" lon="5.02408">
        <ele>184</ele>
        <time>2012-03-03T11:07:57Z</time>
      </trkpt>
      <trkpt lat="45.78819" lon="5.02381">
        <ele>181</ele>
        <time>2012-03-03T11:08:01Z</time>
      </trkpt>
      <trkpt lat="45.78803" lon="5.02356">
        <ele>180</ele>
        <time>2012-03-03T11:08:05Z</time>
      </trkpt>
      <trkpt lat="45.78787" lon="5.02332">
        <ele>179</ele>
        <time>2012-03-03T11:08:09Z</time>
      </trkpt>
      <trkpt lat="45.78768" lon="5.02311">
        <ele>179</ele>
        <time>2012-03-03T11:08:13Z</time>
      </trkpt>
      <trkpt lat="45.78751" lon="5.02291">
        <ele>179</ele>
        <time>2012-03-03T11:08:17Z</time>
      </trkpt>
      <trkpt lat="45.78733" lon="5.02271">
        <ele>182</ele>
        <time>2012-03-03T11:08:21Z</time>
      </trkpt>
      <trkpt lat="45.78713" lon="5.0225">
        <ele>180</ele>
        <time>2012-03-03T11:08:25Z</time>
      </trkpt>
      <trkpt lat="45.78693" lon="5.02234">
        <ele>179</ele>
        <time>2012-03-03T11:08:29Z</time>
      </trkpt>
      <trkpt lat="45.78679" lon="5.02217">
        <ele>181</ele>
        <time>2012-03-03T11:08:33Z</time>
      </trkpt>
      <trkpt lat="45.78661" lon="5.02198">
        <ele>185</ele>
        <time>2012-03-03T11:08:37Z</time>
      </trkpt>
      <trkpt lat="45.78648" lon="5.02177">
        <ele>185</ele>
        <time>2012-03-03T11:08:41Z</time>
      </trkpt>
      <trkpt lat="45.78634" lon="5.0215">
        <ele>183</ele>
        <time>2012-03-03T11:08:45Z</time>
      </trkpt>
      <trkpt lat="45.78621" lon="5.02119">
        <ele>184</ele>
        <time>2012-03-03T11:08:49Z</time>
      </trkpt>
      <trkpt lat="45.7861" lon="5.02089">
        <ele>184</ele>
        <time>2012-03-03T11:08:53Z</time>
      </trkpt>
      <trkpt lat="45.78597" lon="5.0206">
        <ele>185</ele>
        <time>2012-03-03T11:08:57Z</time>
      </trkpt>
      <trkpt lat="45.78585" lon="5.0203">
        <ele>182</ele>
        <time>2012-03-03T11:09:01Z</time>
      </trkpt>
      <trkpt lat="45.78574" lon="5.02">
        <ele>177</ele>
        <time>2012-03-03T11:09:05Z</time>
      </trkpt>
      <trkpt lat="45.78561" lon="5.01972">
        <ele>182</ele>
        <time>2012-03-03T11:09:09Z</time>
      </trkpt>
      <trkpt lat="45.78556" lon="5.01942">
        <ele>183</ele>
        <time>2012-03-03T11:09:13Z</time>
      </trkpt>
      <trkpt lat="45.78551" lon="5.0191">
        <ele>187</ele>
        <time>2012-03-03T11:09:17Z</time>
      </trkpt>
      <trkpt lat="45.78543" lon="5.01877">
        <ele>186</ele>
        <time>2012-03-03T11:09:21Z</time>
      </trkpt>
      <trkpt lat="45.78536" lon="5.01846">
        <ele>186</ele>
        <time>2012-03-03T11:09:25Z</time>
      </trkpt>
      <trkpt lat="45.78533" lon="5.01816">
        <ele>182</ele>
        <time>2012-03-03T11:09:29Z</time>
      </trkpt>
      <trkpt lat="45.78531" lon="5.01786">
        <ele>181</ele>
        <time>2012-03-03T11:09:33Z</time>
      </trkpt>
      <trkpt lat="45.78528" lon="5.01759">
        <ele>177</ele>
        <time>2012-03-03T11:09:37Z</time>
      </trkpt>
      <trkpt lat="45.78527" lon="5.01727">
        <ele>181</ele>
        <time>2012-03-03T11:09:41Z</time>
      </trkpt>
      <trkpt lat="45.78527" lon="5.01696">
        <ele>186</ele>
        <time>2012-03-03T11:09:45Z</time>
      </trkpt>
      <trkpt lat="45.78529" lon="5.0166">
        <ele>186</ele>
        <time>2012-03-03T11:09:49Z</time>
      </trkpt>
      <trkpt lat="45.78532" lon="5.01627">
        <ele>188</ele>
        <time>2012-03-03T11:09:53Z</time>
      </trkpt>
      <trkpt lat="45.78535" lon="5.01595">
        <ele>189</ele>
        <time>2012-03-03T11:09:57Z</time>
      </trkpt>
      <trkpt lat="45.7854" lon="5.01564">
        <ele>191</ele>
        <time>2012-03-03T11:10:01Z</time>
      </trkpt>
      <trkpt lat="45.78545" lon="5.01537">
        <ele>194</ele>
        <time>2012-03-03T11:10:05Z</time>
      </trkpt>
      <trkpt lat="45.78552" lon="5.01507">
        <ele>196</ele>
        <time>2012-03-03T11:10:09Z</time>
      </trkpt>
      <trkpt lat="45.7856" lon="5.01475">
        <ele>197</ele>
        <time>2012-03-03T11:10:13Z</time>
      </trkpt>
      <trkpt lat="45.78571" lon="5.01444">
        <ele>194</ele>
        <time>2012-03-03T11:10:17Z</time>
      </trkpt>
      <trkpt lat="45.78583" lon="5.01412">
        <ele>193</ele>
        <time>2012-03-03T11:10:21Z</time>
      </trkpt>
      <trkpt lat="45.78595" lon="5.01382">
        <ele>193</ele>
        <time>2012-03-03T11:10:25Z</time>
      </trkpt>
      <trkpt lat="45.78605" lon="5.01351">
        <ele>191</ele>
        <time>2012-03-03T11:10:29Z</time>
      </trkpt>
      <trkpt lat="45.78614" lon="5.01318">
        <ele>190</ele>
        <time>2012-03-03T11:10:33Z</time>
      </trkpt>
      <trkpt lat="45.78622" lon="5.01288">
        <ele>190</ele>
        <time>2012-03-03T11:10:37Z</time>
      </trkpt>
      <trkpt lat="45.7863" lon="5.01262">
        <ele>195</ele>
        <time>2012-03-03T11:10:41Z</time>
      </trkpt>
      <trkpt lat="45.78638" lon="5.01236">
        <ele>194</ele>
        <time>2012-03-03T11:10:45Z</time>
      </trkpt>
      <trkpt lat="45.78642" lon="5.01209">
        <ele>193</ele>
        <time>2012-03-03T11:10:49Z</time>
      </trkpt>
      <trkpt lat="45.78646" lon="5.01182">
        <ele>192</ele>
        <time>2012-03-03T11:10:53Z</time>
      </trkpt>
      <trkpt lat="45.78647" lon="5.01157">
        <ele>195</ele>
        <time>2012-03-03T11:10:57Z</time>
      </trkpt>
      <trkpt lat="45.7865" lon="5.01131">
        <ele>194</ele>
        <time>2012-03-03T11:11:01Z</time>
      </trkpt>
      <trkpt lat="45.78645" lon="5.01103">
        <ele>183</ele>
        <time>2012-03-03T11:11:05Z</time>
      </trkpt>
      <trkpt lat="45.78629" lon="5.01081">
        <ele>180</ele>
        <time>2012-03-03T11:11:09Z</time>
      </trkpt>
      <trkpt lat="45.78611" lon="5.0105">
        <ele>181</ele>
        <time>2012-03-03T11:11:13Z</time>
      </trkpt>
      <trkpt lat="45.78598" lon="5.01013">
        <ele>182</ele>
        <time>2012-03-03T11:11:17Z</time>
      </trkpt>
      <trkpt lat="45.7859" lon="5.00973">
        <ele>186</ele>
        <time>2012-03-03T11:11:21Z</time>
      </trkpt>
      <trkpt lat="45.78588" lon="5.00935">
        <ele>188</ele>
        <time>2012-03-03T11:11:25Z</time>
      </trkpt>
      <trkpt lat="45.78586" lon="5.00897">
        <ele>187</ele>
        <time>2012-03-03T11:11:29Z</time>
      </trkpt>
      <trkpt lat="45.78584" lon="5.00863">
        <ele>191</ele>
        <time>2012-03-03T11:11:33Z</time>
      </trkpt>
      <trkpt lat="45.78583" lon="5.0083">
        <ele>192</ele>
        <time>2012-03-03T11:11:37Z</time>
      </trkpt>
      <trkpt lat="45.78583" lon="5.00794">
        <ele>196</ele>
        <time>2012-03-03T11:11:41Z</time>
      </trkpt>
      <trkpt lat="45.78585" lon="5.0076">
        <ele>189</ele>
        <time>2012-03-03T11:11:45Z</time>
      </trkpt>
      <trkpt lat="45.78587" lon="5.00728">
        <ele>190</ele>
        <time>2012-03-03T11:11:49Z</time>
      </trkpt>
      <trkpt lat="45.7859" lon="5.00692">
        <ele>190</ele>
        <time>2012-03-03T11:11:53Z</time>
      </trkpt>
      <trkpt lat="45.78595" lon="5.00655">
        <ele>186</ele>
        <time>2012-03-03T11:11:57Z</time>
      </trkpt>
      <trkpt lat="45.78598" lon="5.00621">
        <ele>188</ele>
        <time>2012-03-03T11:12:01Z</time>
      </trkpt>
      <trkpt lat="45.78602" lon="5.00589">
        <ele>195</ele>
        <time>2012-03-03T11:12:05Z</time>
      </trkpt>
      <trkpt lat="45.78606" lon="5.0056">
        <ele>188</ele>
        <time>2012-03-03T11:12:09Z</time>
      </trkpt>
      <trkpt lat="45.78613" lon="5.00526">
        <ele>191</ele>
        <time>2012-03-03T11:12:13Z</time>
      </trkpt>
      <trkpt lat="45.78619" lon="5.00498">
        <ele>192</ele>
        <time>2012-03-03T11:12:17Z</time>
      </trkpt>
      <trkpt lat="45.78625" lon="5.00466">
        <ele>193</ele>
        <time>2012-03-03T11:12:21Z</time>
      </trkpt>
      <trkpt lat="45.78631" lon="5.00433">
        <ele>193</ele>
        <time>2012-03-03T11:12:25Z</time>
      </trkpt>
      <trkpt lat="45.78639" lon="5.00401">
        <ele>191</ele>
        <time>2012-03-03T11:12:29Z</time>
      </trkpt>
      <trkpt lat="45.78649" lon="5.00367">
        <ele>191</ele>
        <time>2012-03-03T11:12:33Z</time>
      </trkpt>
      <trkpt lat="45.78659" lon="5.00335">
        <ele>194</ele>
        <time>2012-03-03T11:12:37Z</time>
      </trkpt>
      <trkpt lat="45.78667" lon="5.00306">
        <ele>198</ele>
        <time>2012-03-03T11:12:41Z</time>
      </trkpt>
      <trkpt lat="45.78674" lon="5.00279">
        <ele>197</ele>
        <time>2012-03-03T11:12:45Z</time>
      </trkpt>
      <trkpt lat="45.78684" lon="5.00253">
        <ele>201</ele>
        <time>2012-03-03T11:12:49Z</time>
      </trkpt>
      <trkpt lat="45.78696" lon="5.00223">
        <ele>200</ele>
        <time>2012-03-03T11:12:53Z</time>
      </trkpt>
      <trkpt lat="45.78708" lon="5.00193">
        <ele>202</ele>
        <time>2012-03-03T11:12:57Z</time>
      </trkpt>
      <trkpt lat="45.78718" lon="5.00164">
        <ele>199</ele>
        <time>2012-03-03T11:13:01Z</time>
      </trkpt>
      <trkpt lat="45.78731" lon="5.00134">
        <ele>200</ele>
        <time>2012-03-03T11:13:05Z</time>
      </trkpt>
      <trkpt lat="45.78744" lon="5.00108">
        <ele>196</ele>
        <time>2012-03-03T11:13:09Z</time>
      </trkpt>
      <trkpt lat="45.78756" lon="5.00082">
        <ele>201</ele>
        <time>2012-03-03T11:13:13Z</time>
      </trkpt>
      <trkpt lat="45.78773" lon="5.00055">
        <ele>204</ele>
        <time>2012-03-03T11:13:17Z</time>
      </trkpt>
      <trkpt lat="45.78791" lon="5.00026">
        <ele>201</ele>
        <time>2012-03-03T11:13:21Z</time>
      </trkpt>
      <trkpt lat="45.78809" lon="5.00002">
        <ele>200</ele>
        <time>2012-03-03T11:13:25Z</time>
      </trkpt>
      <trkpt lat="45.78827" lon="4.99981">
        <ele>195</ele>
        <time>2012-03-03T11:13:29Z</time>
      </trkpt>
      <trkpt lat="45.78847" lon="4.99959">
        <ele>197</ele>
        <time>2012-03-03T11:13:33Z</time>
      </trkpt>
      <trkpt lat="45.78864" lon="4.99939">
        <ele>199</ele>
        <time>2012-03-03T11:13:37Z</time>
      </trkpt>
      <trkpt lat="45.78884" lon="4.99919">
        <ele>200</ele>
        <time>2012-03-03T11:13:41Z</time>
      </trkpt>
      <trkpt lat="45.78904" lon="4.99901">
        <ele>202</ele>
        <time>2012-03-03T11:13:45Z</time>
      </trkpt>
      <trkpt lat="45.78922" lon="4.99887">
        <ele>203</ele>
        <time>2012-03-03T11:13:49Z</time>
      </trkpt>
      <trkpt lat="45.78947" lon="4.99873">
        <ele>200</ele>
        <time>2012-03-03T11:13:53Z</time>
      </trkpt>
      <trkpt lat="45.7897" lon="4.99858">
        <ele>201</ele>
        <time>2012-03-03T11:13:57Z</time>
      </trkpt>
      <trkpt lat="45.78989" lon="4.9984">
        <ele>201</ele>
        <time>2012-03-03T11:14:01Z</time>
      </trkpt>
      <trkpt lat="45.79006" lon="4.99818">
        <ele>198</ele>
        <time>2012-03-03T11:14:05Z</time>
      </trkpt>
      <trkpt lat="45.79023" lon="4.99798">
        <ele>196</ele>
        <time>2012-03-03T11:14:09Z</time>
      </trkpt>
      <trkpt lat="45.79039" lon="4.99776">
        <ele>197</ele>
        <time>2012-03-03T11:14:13Z</time>
      </trkpt>
      <trkpt lat="45.79057" lon="4.9975">
        <ele>197</ele>
        <time>2012-03-03T11:14:17Z</time>
      </trkpt>
      <trkpt lat="45.79071" lon="4.99723">
        <ele>196</ele>
        <time>2012-03-03T11:14:21Z</time>
      </trkpt>
      <trkpt lat="45.79084" lon="4.99697">
        <ele>194</ele>
        <time>2012-03-03T11:14:25Z</time>
      </trkpt>
      <trkpt lat="45.79097" lon="4.99668">
        <ele>195</ele>
        <time>2012-03-03T11:14:29Z</time>
      </trkpt>
      <trkpt lat="45.79111" lon="4.99642">
        <ele>196</ele>
        <time>2012-03-03T11:14:33Z</time>
      </trkpt>
      <trkpt lat="45.7913" lon="4.99621">
        <ele>193</ele>
        <time>2012-03-03T11:14:37Z</time>
      </trkpt>
      <trkpt lat="45.79153" lon="4.99607">
        <ele>196</ele>
        <time>2012-03-03T11:14:41Z</time>
      </trkpt>
      <trkpt lat="45.79175" lon="4.99592">
        <ele>194</ele>
        <time>2012-03-03T11:14:45Z</time>
      </trkpt>
      <trkpt lat="45.79197" lon="4.99575">
        <ele>197</ele>
        <time>2012-03-03T11:14:49Z</time>
      </trkpt>
      <trkpt lat="45.79216" lon="4.99557">
        <ele>197</ele>
        <time>2012-03-03T11:14:53Z</time>
      </trkpt>
      <trkpt lat="45.79238" lon="4.99534">
        <ele>195</ele>
        <time>2012-03-03T11:14:57Z</time>
      </trkpt>
      <trkpt lat="45.79261" lon="4.99514">
        <ele>190</ele>
        <time>2012-03-03T11:15:01Z</time>
      </trkpt>
      <trkpt lat="45.79286" lon="4.995">
        <ele>190</ele>
        <time>2012-03-03T11:15:05Z</time>
      </trkpt>
      <trkpt lat="45.79309" lon="4.99485">
        <ele>188</ele>
        <time>2012-03-03T11:15:09Z</time>
      </trkpt>
      <trkpt lat="45.79329" lon="4.99467">
        <ele>191</ele>
        <time>2012-03-03T11:15:13Z</time>
      </trkpt>
      <trkpt lat="45.7935" lon="4.99448">
        <ele>194</ele>
        <time>2012-03-03T11:15:17Z</time>
      </trkpt>
      <trkpt lat="45.79368" lon="4.9943">
        <ele>196</ele>
        <time>2012-03-03T11:15:21Z</time>
      </trkpt>
      <trkpt lat="45.79387" lon="4.99414">
        <ele>194</ele>
        <time>2012-03-03T11:15:25Z</time>
      </trkpt>
      <trkpt lat="45.79405" lon="4.99397">
        <ele>196</ele>
        <time>2012-03-03T11:15:29Z</time>
      </trkpt>
      <trkpt lat="45.79419" lon="4.99376">
        <ele>190</ele>
        <time>2012-03-03T11:15:33Z</time>
      </trkpt>
      <trkpt lat="45.79431" lon="4.99351">
        <ele>190</ele>
        <time>2012-03-03T11:15:37Z</time>
      </trkpt>
      <trkpt lat="45.79441" lon="4.99322">
        <ele>193</ele>
        <time>2012-03-03T11:15:41Z</time>
      </trkpt>
      <trkpt lat="45.79446" lon="4.99294">
        <ele>186</ele>
        <time>2012-03-03T11:15:45Z</time>
      </trkpt>
      <trkpt lat="45.79451" lon="4.99266">
        <ele>183</ele>
        <time>2012-03-03T11:15:49Z</time>
      </trkpt>
      <trkpt lat="45.79456" lon="4.99233">
        <ele>184</ele>
        <time>2012-03-03T11:15:53Z</time>
      </trkpt>
      <trkpt lat="45.7946" lon="4.99202">
        <ele>186</ele>
        <time>2012-03-03T11:15:57Z</time>
      </trkpt>
      <trkpt lat="45.79462" lon="4.99176">
        <ele>191</ele>
        <time>2012-03-03T11:16:01Z</time>
      </trkpt>
      <trkpt lat="45.79463" lon="4.99153">
        <ele>187</ele>
        <time>2012-03-03T11:16:05Z</time>
      </trkpt>
      <trkpt lat="45.79461" lon="4.99129">
        <ele>189</ele>
        <time>2012-03-03T11:16:09Z</time>
      </trkpt>
      <trkpt lat="45.79465" lon="4.99109">
        <ele>190</ele>
        <time>2012-03-03T11:16:13Z</time>
      </trkpt>
      <trkpt lat="45.79476" lon="4.99102">
        <ele>193</ele>
        <time>2012-03-03T11:16:17Z</time>
      </trkpt>
      <trkpt lat="45.79496" lon="4.99095">
        <ele>193</ele>
        <time>2012-03-03T11:16:21Z</time>
      </trkpt>
      <trkpt lat="45.79517" lon="4.99092">
        <ele>192</ele>
        <time>2012-03-03T11:16:25Z</time>
      </trkpt>
      <trkpt lat="45.79535" lon="4.99089">
        <ele>192</ele>
        <time>2012-03-03T11:16:29Z</time>
      </trkpt>
      <trkpt lat="45.79549" lon="4.99088">
        <ele>196</ele>
        <time>2012-03-03T11:16:33Z</time>
      </trkpt>
      <trkpt lat="45.79561" lon="4.99096">
        <ele>190</ele>
        <time>2012-03-03T11:16:37Z</time>
      </trkpt>
      <trkpt lat="45.79568" lon="4.99119">
        <ele>194</ele>
        <time>2012-03-03T11:16:41Z</time>
      </trkpt>
      <trkpt lat="45.7957" lon="4.99153">
        <ele>195</ele>
        <time>2012-03-03T11:16:45Z</time>
      </trkpt>
      <trkpt lat="45.79568" lon="4.99185">
        <ele>199</ele>
        <time>2012-03-03T11:16:49Z</time>
      </trkpt>
      <trkpt lat="45.79561" lon="4.9923">
        <ele>190</ele>
        <time>2012-03-03T11:16:53Z</time>
      </trkpt>
      <trkpt lat="45.79553" lon="4.99271">
        <ele>183</ele>
        <time>2012-03-03T11:16:57Z</time>
      </trkpt>
      <trkpt lat="45.79546" lon="4.99308">
        <ele>179</ele>
        <time>2012-03-03T11:17:01Z</time>
      </trkpt>
      <trkpt lat="45.79539" lon="4.99339">
        <ele>178</ele>
        <time>2012-03-03T11:17:05Z</time>
      </trkpt>
      <trkpt lat="45.79531" lon="4.99366">
        <ele>181</ele>
        <time>2012-03-03T11:17:09Z</time>
      </trkpt>
      <trkpt lat="45.79525" lon="4.99394">
        <ele>186</ele>
        <time>2012-03-03T11:17:13Z</time>
      </trkpt>
      <trkpt lat="45.79515" lon="4.99421">
        <ele>188</ele>
        <time>2012-03-03T11:17:17Z</time>
      </trkpt>
      <trkpt lat="45.79503" lon="4.99449">
        <ele>189</ele>
        <time>2012-03-03T11:17:21Z</time>
      </trkpt>
      <trkpt lat="45.7949" lon="4.99478">
        <ele>187</ele>
        <time>2012-03-03T11:17:25Z</time>
      </trkpt>
      <trkpt lat="45.79477" lon="4.99504">
        <ele>185</ele>
        <time>2012-03-03T11:17:29Z</time>
      </trkpt>
      <trkpt lat="45.79468" lon="4.99532">
        <ele>182</ele>
        <time>2012-03-03T11:17:33Z</time>
      </trkpt>
      <trkpt lat="45.79459" lon="4.99567">
        <ele>184</ele>
        <time>2012-03-03T11:17:37Z</time>
      </trkpt>
      <trkpt lat="45.79444" lon="4.99593">
        <ele>184</ele>
        <time>2012-03-03T11:17:41Z</time>
      </trkpt>
      <trkpt lat="45.79452" lon="4.99614">
        <ele>180</ele>
        <time>2012-03-03T11:17:45Z</time>
      </trkpt>
      <trkpt lat="45.7947" lon="4.99626">
        <ele>182</ele>
        <time>2012-03-03T11:17:49Z</time>
      </trkpt>
      <trkpt lat="45.79488" lon="4.99638">
        <ele>184</ele>
        <time>2012-03-03T11:17:53Z</time>
      </trkpt>
      <trkpt lat="45.79504" lon="4.99652">
        <ele>184</ele>
        <time>2012-03-03T11:17:57Z</time>
      </trkpt>
      <trkpt lat="45.79525" lon="4.99667">
        <ele>186</ele>
        <time>2012-03-03T11:18:01Z</time>
      </trkpt>
      <trkpt lat="45.79544" lon="4.99682">
        <ele>189</ele>
        <time>2012-03-03T11:18:05Z</time>
      </trkpt>
      <trkpt lat="45.79563" lon="4.99697">
        <ele>190</ele>
        <time>2012-03-03T11:18:09Z</time>
      </trkpt>
      <trkpt lat="45.79582" lon="4.99712">
        <ele>189</ele>
        <time>2012-03-03T11:18:13Z</time>
      </trkpt>
      <trkpt lat="45.79602" lon="4.99727">
        <ele>189</ele>
        <time>2012-03-03T11:18:17Z</time>
      </trkpt>
      <trkpt lat="45.79621" lon="4.99744">
        <ele>188</ele>
        <time>2012-03-03T11:18:21Z</time>
      </trkpt>
      <trkpt lat="45.79638" lon="4.9976">
        <ele>191</ele>
        <time>2012-03-03T11:18:25Z</time>
      </trkpt>
      <trkpt lat="45.79655" lon="4.99775">
        <ele>190</ele>
        <time>2012-03-03T11:18:29Z</time>
      </trkpt>
      <trkpt lat="45.79675" lon="4.99792">
        <ele>186</ele>
        <time>2012-03-03T11:18:33Z</time>
      </trkpt>
      <trkpt lat="45.79693" lon="4.99807">
        <ele>187</ele>
        <time>2012-03-03T11:18:37Z</time>
      </trkpt>
      <trkpt lat="45.79709" lon="4.99814">
        <ele>187</ele>
        <time>2012-03-03T11:18:41Z</time>
      </trkpt>
      <trkpt lat="45.79723" lon="4.99806">
        <ele>188</ele>
        <time>2012-03-03T11:18:45Z</time>
      </trkpt>
      <trkpt lat="45.79734" lon="4.99793">
        <ele>196</ele>
        <time>2012-03-03T11:18:49Z</time>
      </trkpt>
      <trkpt lat="45.7975" lon="4.99771">
        <ele>193</ele>
        <time>2012-03-03T11:18:53Z</time>
      </trkpt>
      <trkpt lat="45.79761" lon="4.99747">
        <ele>197</ele>
        <time>2012-03-03T11:18:57Z</time>
      </trkpt>
      <trkpt lat="45.79774" lon="4.9972">
        <ele>194</ele>
        <time>2012-03-03T11:19:01Z</time>
      </trkpt>
      <trkpt lat="45.79786" lon="4.99693">
        <ele>193</ele>
        <time>2012-03-03T11:19:05Z</time>
      </trkpt>
      <trkpt lat="45.79801" lon="4.99666">
        <ele>189</ele>
        <time>2012-03-03T11:19:09Z</time>
      </trkpt>
      <trkpt lat="45.79818" lon="4.99647">
        <ele>190</ele>
        <time>2012-03-03T11:19:13Z</time>
      </trkpt>
      <trkpt lat="45.79834" lon="4.9963">
        <ele>192</ele>
        <time>2012-03-03T11:19:17Z</time>
      </trkpt>
      <trkpt lat="45.7985" lon="4.99611">
        <ele>194</ele>
        <time>2012-03-03T11:19:21Z</time>
      </trkpt>
      <trkpt lat="45.79866" lon="4.99587">
        <ele>193</ele>
        <time>2012-03-03T11:19:25Z</time>
      </trkpt>
      <trkpt lat="45.79868" lon="4.99563">
        <ele>189</ele>
        <time>2012-03-03T11:19:29Z</time>
      </trkpt>
      <trkpt lat="45.79857" lon="4.99552">
        <ele>187</ele>
        <time>2012-03-03T11:19:33Z</time>
      </trkpt>
      <trkpt lat="45.79845" lon="4.99541">
        <ele>185</ele>
        <time>2012-03-03T11:19:37Z</time>
      </trkpt>
      <trkpt lat="45.79832" lon="4.99533">
        <ele>186</ele>
        <time>2012-03-03T11:19:41Z</time>
      </trkpt>
      <trkpt lat="45.79816" lon="4.99523">
        <ele>190</ele>
        <time>2012-03-03T11:19:45Z</time>
      </trkpt>
      <trkpt lat="45.79802" lon="4.99511">
        <ele>192</ele>
        <time>2012-03-03T11:19:49Z</time>
      </trkpt>
      <trkpt lat="45.79783" lon="4.99502">
        <ele>199</ele>
        <time>2012-03-03T11:19:53Z</time>
      </trkpt>
      <trkpt lat="45.79759" lon="4.99489">
        <ele>198</ele>
        <time>2012-03-03T11:19:57Z</time>
      </trkpt>
      <trkpt lat="45.79744" lon="4.99476">
        <ele>199</ele>
        <time>2012-03-03T11:20:01Z</time>
      </trkpt>
      <trkpt lat="45.79726" lon="4.99463">
        <ele>198</ele>
        <time>2012-03-03T11:20:05Z</time>
      </trkpt>
      <trkpt lat="45.79708" lon="4.99446">
        <ele>203</ele>
        <time>2012-03-03T11:20:09Z</time>
      </trkpt>
      <trkpt lat="45.79684" lon="4.99432">
        <ele>193</ele>
        <time>2012-03-03T11:20:13Z</time>
      </trkpt>
      <trkpt lat="45.79664" lon="4.99418">
        <ele>189</ele>
        <time>2012-03-03T11:20:17Z</time>
      </trkpt>
      <trkpt lat="45.79645" lon="4.994">
        <ele>194</ele>
        <time>2012-03-03T11:20:21Z</time>
      </trkpt>
      <trkpt lat="45.79629" lon="4.99391">
        <ele>199</ele>
        <time>2012-03-03T11:20:25Z</time>
      </trkpt>
      <trkpt lat="45.7961" lon="4.99382">
        <ele>195</ele>
        <time>2012-03-03T11:20:29Z</time>
      </trkpt>
      <trkpt lat="45.79591" lon="4.9937">
        <ele>191</ele>
        <time>2012-03-03T11:20:33Z</time>
      </trkpt>
      <trkpt lat="45.79573" lon="4.99361">
        <ele>195</ele>
        <time>2012-03-03T11:20:37Z</time>
      </trkpt>
      <trkpt lat="45.79558" lon="4.99348">
        <ele>192</ele>
        <time>2012-03-03T11:20:41Z</time>
      </trkpt>
      <trkpt lat="45.79547" lon="4.99325">
        <ele>185</ele>
        <time>2012-03-03T11:20:45Z</time>
      </trkpt>
      <trkpt lat="45.79548" lon="4.99303">
        <ele>187</ele>
        <time>2012-03-03T11:20:49Z</time>
      </trkpt>
      <trkpt lat="45.79553" lon="4.99278">
        <ele>186</ele>
        <time>2012-03-03T11:20:53Z</time>
      </trkpt>
      <trkpt lat="45.79559" lon="4.99251">
        <ele>186</ele>
        <time>2012-03-03T11:20:57Z</time>
      </trkpt>
      <trkpt lat="45.79564" lon="4.99225">
        <ele>185</ele>
        <time>2012-03-03T11:21:01Z</time>
      </trkpt>
      <trkpt lat="45.79568" lon="4.992">
        <ele>185</ele>
        <time>2012-03-03T11:21:05Z</time>
      </trkpt>
      <trkpt lat="45.79572" lon="4.99174">
        <ele>183</ele>
        <time>2012-03-03T11:21:09Z</time>
      </trkpt>
      <trkpt lat="45.79574" lon="4.99149">
        <ele>183</ele>
        <time>2012-03-03T11:21:13Z</time>
      </trkpt>
      <trkpt lat="45.79574" lon="4.99123">
        <ele>186</ele>
        <time>2012-03-03T11:21:17Z</time>
      </trkpt>
      <trkpt lat="45.79573" lon="4.99094">
        <ele>187</ele>
        <time>2012-03-03T11:21:21Z</time>
      </trkpt>
      <trkpt lat="45.7957" lon="4.99067">
        <ele>184</ele>
        <time>2012-03-03T11:21:25Z</time>
      </trkpt>
      <trkpt lat="45.79569" lon="4.99039">
        <ele>188</ele>
        <time>2012-03-03T11:21:29Z</time>
      </trkpt>
      <trkpt lat="45.79563" lon="4.99004">
        <ele>185</ele>
        <time>2012-03-03T11:21:33Z</time>
      </trkpt>
      <trkpt lat="45.79552" lon="4.98964">
        <ele>180</ele>
        <time>2012-03-03T11:21:37Z</time>
      </trkpt>
      <trkpt lat="45.79542" lon="4.98931">
        <ele>179</ele>
        <time>2012-03-03T11:21:41Z</time>
      </trkpt>
      <trkpt lat="45.79532" lon="4.98902">
        <ele>179</ele>
        <time>2012-03-03T11:21:45Z</time>
      </trkpt>
      <trkpt lat="45.79523" lon="4.98873">
        <ele>180</ele>
        <time>2012-03-03T11:21:49Z</time>
      </trkpt>
      <trkpt lat="45.79512" lon="4.98845">
        <ele>181</ele>
        <time>2012-03-03T11:21:53Z</time>
      </trkpt>
      <trkpt lat="45.79499" lon="4.98816">
        <ele>179</ele>
        <time>2012-03-03T11:21:57Z</time>
      </trkpt>
      <trkpt lat="45.79485" lon="4.98789">
        <ele>177</ele>
        <time>2012-03-03T11:22:01Z</time>
      </trkpt>
      <trkpt lat="45.7947" lon="4.98764">
        <ele>176</ele>
        <time>2012-03-03T11:22:05Z</time>
      </trkpt>
      <trkpt lat="45.79455" lon="4.9874">
        <ele>177</ele>
        <time>2012-03-03T11:22:09Z</time>
      </trkpt>
      <trkpt lat="45.7944" lon="4.98716">
        <ele>178</ele>
        <time>2012-03-03T11:22:13Z</time>
      </trkpt>
      <trkpt lat="45.79425" lon="4.98691">
        <ele>177</ele>
        <time>2012-03-03T11:22:17Z</time>
      </trkpt>
      <trkpt lat="45.7941" lon="4.98668">
        <ele>175</ele>
        <time>2012-03-03T11:22:21Z</time>
      </trkpt>
      <trkpt lat="45.79394" lon="4.98645">
        <ele>174</ele>
        <time>2012-03-03T11:22:25Z</time>
      </trkpt>
      <trkpt lat="45.7938" lon="4.98626">
        <ele>177</ele>
        <time>2012-03-03T11:22:29Z</time>
      </trkpt>
      <trkpt lat="45.79366" lon="4.98604">
        <ele>176</ele>
        <time>2012-03-03T11:22:33Z</time>
      </trkpt>
      <trkpt lat="45.79352" lon="4.98582">
        <ele>177</ele>
        <time>2012-03-03T11:22:37Z</time>
      </trkpt>
      <trkpt lat="45.79337" lon="4.9856">
        <ele>178</ele>
        <time>2012-03-03T11:22:41Z</time>
      </trkpt>
      <trkpt lat="45.79323" lon="4.98538">
        <ele>178</ele>
        <time>2012-03-03T11:22:45Z</time>
      </trkpt>
      <trkpt lat="45.79308" lon="4.98514">
        <ele>178</ele>
        <time>2012-03-03T11:22:49Z</time>
      </trkpt>
      <trkpt lat="45.79293" lon="4.98488">
        <ele>177</ele>
        <time>2012-03-03T11:22:53Z</time>
      </trkpt>
      <trkpt lat="45.79281" lon="4.98462">
        <ele>176</ele>
        <time>2012-03-03T11:22:57Z</time>
      </trkpt>
      <trkpt lat="45.7927" lon="4.98438">
        <ele>176</ele>
        <time>2012-03-03T11:23:01Z</time>
      </trkpt>
      <trkpt lat="45.7926" lon="4.9841">
        <ele>175</ele>
        <time>2012-03-03T11:23:05Z</time>
      </trkpt>
      <trkpt lat="45.79244" lon="4.98379">
        <ele>174</ele>
        <time>2012-03-03T11:23:09Z</time>
      </trkpt>
      <trkpt lat="45.79227" lon="4.98345">
        <ele>174</ele>
        <time>2012-03-03T11:23:13Z</time>
      </trkpt>
      <trkpt lat="45.79216" lon="4.98316">
        <ele>173</ele>
        <time>2012-03-03T11:23:17Z</time>
      </trkpt>
      <trkpt lat="45.79228" lon="4.98293">
        <ele>175</ele>
        <time>2012-03-03T11:23:21Z</time>
      </trkpt>
      <trkpt lat="45.79247" lon="4.9829">
        <ele>178</ele>
        <time>2012-03-03T11:23:25Z</time>
      </trkpt>
      <trkpt lat="45.79269" lon="4.9829">
        <ele>183</ele>
        <time>2012-03-03T11:23:29Z</time>
      </trkpt>
      <trkpt lat="45.7929" lon="4.98289">
        <ele>190</ele>
        <time>2012-03-03T11:23:33Z</time>
      </trkpt>
      <trkpt lat="45.7931" lon="4.98287">
        <ele>181</ele>
        <time>2012-03-03T11:23:37Z</time>
      </trkpt>
      <trkpt lat="45.79334" lon="4.98284">
        <ele>181</ele>
        <time>2012-03-03T11:23:41Z</time>
      </trkpt>
      <trkpt lat="45.79357" lon="4.98278">
        <ele>180</ele>
        <time>2012-03-03T11:23:45Z</time>
      </trkpt>
      <trkpt lat="45.79361" lon="4.98254">
        <ele>178</ele>
        <time>2012-03-03T11:23:49Z</time>
      </trkpt>
      <trkpt lat="45.79362" lon="4.98225">
        <ele>181</ele>
        <time>2012-03-03T11:23:53Z</time>
      </trkpt>
      <trkpt lat="45.79364" lon="4.98192">
        <ele>175</ele>
        <time>2012-03-03T11:23:57Z</time>
      </trkpt>
      <trkpt lat="45.79367" lon="4.98159">
        <ele>175</ele>
        <time>2012-03-03T11:24:01Z</time>
      </trkpt>
      <trkpt lat="45.79371" lon="4.98124">
        <ele>174</ele>
        <time>2012-03-03T11:24:05Z</time>
      </trkpt>
      <trkpt lat="45.79372" lon="4.9809">
        <ele>174</ele>
        <time>2012-03-03T11:24:09Z</time>
      </trkpt>
      <trkpt lat="45.79366" lon="4.98053">
        <ele>177</ele>
        <time>2012-03-03T11:24:13Z</time>
      </trkpt>
      <trkpt lat="45.79367" lon="4.98019">
        <ele>178</ele>
        <time>2012-03-03T11:24:17Z</time>
      </trkpt>
      <trkpt lat="45.79369" lon="4.97989">
        <ele>181</ele>
        <time>2012-03-03T11:24:21Z</time>
      </trkpt>
      <trkpt lat="45.79378" lon="4.97958">
        <ele>185</ele>
        <time>2012-03-03T11:24:25Z</time>
      </trkpt>
      <trkpt lat="45.79395" lon="4.97928">
        <ele>187</ele>
        <time>2012-03-03T11:24:29Z</time>
      </trkpt>
      <trkpt lat="45.79418" lon="4.97909">
        <ele>187</ele>
        <time>2012-03-03T11:24:33Z</time>
      </trkpt>
      <trkpt lat="45.79438" lon="4.97892">
        <ele>189</ele>
        <time>2012-03-03T11:24:37Z</time>
      </trkpt>
      <trkpt lat="45.79461" lon="4.97876">
        <ele>190</ele>
        <time>2012-03-03T11:24:41Z</time>
      </trkpt>
      <trkpt lat="45.79487" lon="4.97864">
        <ele>189</ele>
        <time>2012-03-03T11:24:45Z</time>
      </trkpt>
      <trkpt lat="45.79516" lon="4.97857">
        <ele>187</ele>
        <time>2012-03-03T11:24:49Z</time>
      </trkpt>
      <trkpt lat="45.79539" lon="4.97844">
        <ele>187</ele>
        <time>2012-03-03T11:24:53Z</time>
      </trkpt>
      <trkpt lat="45.79551" lon="4.97817">
        <ele>185</ele>
        <time>2012-03-03T11:24:57Z</time>
      </trkpt>
      <trkpt lat="45.79567" lon="4.97795">
        <ele>186</ele>
        <time>2012-03-03T11:25:01Z</time>
      </trkpt>
      <trkpt lat="45.79585" lon="4.97777">
        <ele>186</ele>
        <time>2012-03-03T11:25:05Z</time>
      </trkpt>
      <trkpt lat="45.79599" lon="4.97754">
        <ele>188</ele>
        <time>2012-03-03T11:25:09Z</time>
      </trkpt>
      <trkpt lat="45.79614" lon="4.9773">
        <ele>189</ele>
        <time>2012-03-03T11:25:13Z</time>
      </trkpt>
      <trkpt lat="45.7963" lon="4.97706">
        <ele>189</ele>
        <time>2012-03-03T11:25:17Z</time>
      </trkpt>
      <trkpt lat="45.79641" lon="4.97679">
        <ele>188</ele>
        <time>2012-03-03T11:25:21Z</time>
      </trkpt>
      <trkpt lat="45.79652" lon="4.97648">
        <ele>188</ele>
        <time>2012-03-03T11:25:25Z</time>
      </trkpt>
      <trkpt lat="45.79669" lon="4.97627">
        <ele>190</ele>
        <time>2012-03-03T11:25:29Z</time>
      </trkpt>
      <trkpt lat="45.79685" lon="4.97618">
        <ele>192</ele>
        <time>2012-03-03T11:25:33Z</time>
      </trkpt>
      <trkpt lat="45.79702" lon="4.9761">
        <ele>192</ele>
        <time>2012-03-03T11:25:37Z</time>
      </trkpt>
      <trkpt lat="45.79715" lon="4.9759">
        <ele>195</ele>
        <time>2012-03-03T11:25:41Z</time>
      </trkpt>
      <trkpt lat="45.79719" lon="4.97567">
        <ele>192</ele>
        <time>2012-03-03T11:25:45Z</time>
      </trkpt>
      <trkpt lat="45.7972" lon="4.97538">
        <ele>192</ele>
        <time>2012-03-03T11:25:49Z</time>
      </trkpt>
      <trkpt lat="45.7972" lon="4.97501">
        <ele>190</ele>
        <time>2012-03-03T11:25:53Z</time>
      </trkpt>
      <trkpt lat="45.7972" lon="4.97466">
        <ele>189</ele>
        <time>2012-03-03T11:25:57Z</time>
      </trkpt>
      <trkpt lat="45.79719" lon="4.9743">
        <ele>188</ele>
        <time>2012-03-03T11:26:01Z</time>
      </trkpt>
      <trkpt lat="45.79717" lon="4.97397">
        <ele>187</ele>
        <time>2012-03-03T11:26:05Z</time>
      </trkpt>
      <trkpt lat="45.79715" lon="4.97366">
        <ele>185</ele>
        <time>2012-03-03T11:26:09Z</time>
      </trkpt>
      <trkpt lat="45.79714" lon="4.97336">
        <ele>191</ele>
        <time>2012-03-03T11:26:13Z</time>
      </trkpt>
      <trkpt lat="45.79712" lon="4.97304">
        <ele>192</ele>
        <time>2012-03-03T11:26:17Z</time>
      </trkpt>
      <trkpt lat="45.79712" lon="4.97269">
        <ele>195</ele>
        <time>2012-03-03T11:26:21Z</time>
      </trkpt>
      <trkpt lat="45.79712" lon="4.97233">
        <ele>192</ele>
        <time>2012-03-03T11:26:25Z</time>
      </trkpt>
      <trkpt lat="45.79707" lon="4.97196">
        <ele>184</ele>
        <time>2012-03-03T11:26:29Z</time>
      </trkpt>
      <trkpt lat="45.79697" lon="4.97162">
        <ele>182</ele>
        <time>2012-03-03T11:26:33Z</time>
      </trkpt>
      <trkpt lat="45.79684" lon="4.97119">
        <ele>177</ele>
        <time>2012-03-03T11:26:37Z</time>
      </trkpt>
      <trkpt lat="45.79683" lon="4.97078">
        <ele>174</ele>
        <time>2012-03-03T11:26:41Z</time>
      </trkpt>
      <trkpt lat="45.79691" lon="4.97047">
        <ele>179</ele>
        <time>2012-03-03T11:26:45Z</time>
      </trkpt>
      <trkpt lat="45.79708" lon="4.97023">
        <ele>184</ele>
        <time>2012-03-03T11:26:49Z</time>
      </trkpt>
      <trkpt lat="45.7974" lon="4.9702">
        <ele>182</ele>
        <time>2012-03-03T11:26:53Z</time>
      </trkpt>
      <trkpt lat="45.79767" lon="4.97019">
        <ele>183</ele>
        <time>2012-03-03T11:26:57Z</time>
      </trkpt>
      <trkpt lat="45.79781" lon="4.96995">
        <ele>180</ele>
        <time>2012-03-03T11:27:01Z</time>
      </trkpt>
      <trkpt lat="45.79786" lon="4.9696">
        <ele>180</ele>
        <time>2012-03-03T11:27:05Z</time>
      </trkpt>
      <trkpt lat="45.79789" lon="4.96927">
        <ele>182</ele>
        <time>2012-03-03T11:27:09Z</time>
      </trkpt>
      <trkpt lat="45.79787" lon="4.96896">
        <ele>181</ele>
        <time>2012-03-03T11:27:13Z</time>
      </trkpt>
      <trkpt lat="45.79763" lon="4.96878">
        <ele>178</ele>
        <time>2012-03-03T11:27:17Z</time>
      </trkpt>
      <trkpt lat="45.79743" lon="4.96852">
        <ele>175</ele>
        <time>2012-03-03T11:27:21Z</time>
      </trkpt>
      <trkpt lat="45.79738" lon="4.96815">
        <ele>173</ele>
        <time>2012-03-03T11:27:25Z</time>
      </trkpt>
      <trkpt lat="45.79734" lon="4.96777">
        <ele>172</ele>
        <time>2012-03-03T11:27:29Z</time>
      </trkpt>
      <trkpt lat="45.79733" lon="4.96739">
        <ele>169</ele>
        <time>2012-03-03T11:27:33Z</time>
      </trkpt>
      <trkpt lat="45.79739" lon="4.967">
        <ele>170</ele>
        <time>2012-03-03T11:27:37Z</time>
      </trkpt>
      <trkpt lat="45.79744" lon="4.96664">
        <ele>173</ele>
        <time>2012-03-03T11:27:41Z</time>
      </trkpt>
      <trkpt lat="45.79748" lon="4.96632">
        <ele>176</ele>
        <time>2012-03-03T11:27:45Z</time>
      </trkpt>
      <trkpt lat="45.79752" lon="4.96599">
        <ele>176</ele>
        <time>2012-03-03T11:27:49Z</time>
      </trkpt>
      <trkpt lat="45.79756" lon="4.96566">
        <ele>178</ele>
        <time>2012-03-03T11:27:53Z</time>
      </trkpt>
      <trkpt lat="45.79759" lon="4.96539">
        <ele>179</ele>
        <time>2012-03-03T11:27:57Z</time>
      </trkpt>
      <trkpt lat="45.79762" lon="4.96509">
        <ele>176</ele>
        <time>2012-03-03T11:28:01Z</time>
      </trkpt>
      <trkpt lat="45.7976" lon="4.96484">
        <ele>174</ele>
        <time>2012-03-03T11:28:05Z</time>
      </trkpt>
      <trkpt lat="45.79743" lon="4.9648">
        <ele>173</ele>
        <time>2012-03-03T11:28:09Z</time>
      </trkpt>
      <trkpt lat="45.79722" lon="4.96484">
        <ele>177</ele>
        <time>2012-03-03T11:28:13Z</time>
      </trkpt>
      <trkpt lat="45.797" lon="4.96487">
        <ele>183</ele>
        <time>2012-03-03T11:28:17Z</time>
      </trkpt>
      <trkpt lat="45.79676" lon="4.96487">
        <ele>186</ele>
        <time>2012-03-03T11:28:21Z</time>
      </trkpt>
      <trkpt lat="45.79646" lon="4.96485">
        <ele>180</ele>
        <time>2012-03-03T11:28:25Z</time>
      </trkpt>
      <trkpt lat="45.79618" lon="4.96481">
        <ele>172</ele>
        <time>2012-03-03T11:28:29Z</time>
      </trkpt>
      <trkpt lat="45.79607" lon="4.96453">
        <ele>168</ele>
        <time>2012-03-03T11:28:33Z</time>
      </trkpt>
      <trkpt lat="45.79619" lon="4.96422">
        <ele>177</ele>
        <time>2012-03-03T11:28:37Z</time>
      </trkpt>
      <trkpt lat="45.79631" lon="4.9639">
        <ele>178</ele>
        <time>2012-03-03T11:28:41Z</time>
      </trkpt>
      <trkpt lat="45.79644" lon="4.96357">
        <ele>180</ele>
        <time>2012-03-03T11:28:45Z</time>
      </trkpt>
      <trkpt lat="45.79658" lon="4.96322">
        <ele>180</ele>
        <time>2012-03-03T11:28:49Z</time>
      </trkpt>
      <trkpt lat="45.79672" lon="4.96287">
        <ele>181</ele>
        <time>2012-03-03T11:28:53Z</time>
      </trkpt>
      <trkpt lat="45.79685" lon="4.96254">
        <ele>183</ele>
        <time>2012-03-03T11:28:57Z</time>
      </trkpt>
      <trkpt lat="45.79697" lon="4.96222">
        <ele>182</ele>
        <time>2012-03-03T11:29:01Z</time>
      </trkpt>
      <trkpt lat="45.79697" lon="4.96186">
        <ele>180</ele>
        <time>2012-03-03T11:29:05Z</time>
      </trkpt>
      <trkpt lat="45.79682" lon="4.96158">
        <ele>177</ele>
        <time>2012-03-03T11:29:09Z</time>
      </trkpt>
      <trkpt lat="45.79665" lon="4.96137">
        <ele>175</ele>
        <time>2012-03-03T11:29:13Z</time>
      </trkpt>
      <trkpt lat="45.79646" lon="4.96119">
        <ele>178</ele>
        <time>2012-03-03T11:29:17Z</time>
      </trkpt>
      <trkpt lat="45.79624" lon="4.96103">
        <ele>178</ele>
        <time>2012-03-03T11:29:21Z</time>
      </trkpt>
      <trkpt lat="45.79602" lon="4.96087">
        <ele>176</ele>
        <time>2012-03-03T11:29:25Z</time>
      </trkpt>
      <trkpt lat="45.79582" lon="4.9607">
        <ele>176</ele>
        <time>2012-03-03T11:29:29Z</time>
      </trkpt>
      <trkpt lat="45.79563" lon="4.96054">
        <ele>175</ele>
        <time>2012-03-03T11:29:33Z</time>
      </trkpt>
      <trkpt lat="45.79543" lon="4.96036">
        <ele>173</ele>
        <time>2012-03-03T11:29:37Z</time>
      </trkpt>
      <trkpt lat="45.79522" lon="4.96017">
        <ele>172</ele>
        <time>2012-03-03T11:29:41Z</time>
      </trkpt>
      <trkpt lat="45.79499" lon="4.95999">
        <ele>170</ele>
        <time>2012-03-03T11:29:45Z</time>
      </trkpt>
      <trkpt lat="45.79479" lon="4.9598">
        <ele>171</ele>
        <time>2012-03-03T11:29:49Z</time>
      </trkpt>
      <trkpt lat="45.79463" lon="4.95954">
        <ele>171</ele>
        <time>2012-03-03T11:29:53Z</time>
      </trkpt>
      <trkpt lat="45.79451" lon="4.95929">
        <ele>172</ele>
        <time>2012-03-03T11:29:57Z</time>
      </trkpt>
      <trkpt lat="45.79442" lon="4.95904">
        <ele>172</ele>
        <time>2012-03-03T11:30:01Z</time>
      </trkpt>
      <trkpt lat="45.79433" lon="4.95874">
        <ele>171</ele>
        <time>2012-03-03T11:30:05Z</time>
      </trkpt>
      <trkpt lat="45.79425" lon="4.95843">
        <ele>171</ele>
        <time>2012-03-03T11:30:09Z</time>
      </trkpt>
      <trkpt lat="45.79417" lon="4.95811">
        <ele>172</ele>
        <time>2012-03-03T11:30:13Z</time>
      </trkpt>
      <trkpt lat="45.79411" lon="4.9578">
        <ele>173</ele>
        <time>2012-03-03T11:30:17Z</time>
      </trkpt>
      <trkpt lat="45.79403" lon="4.95746">
        <ele>173</ele>
        <time>2012-03-03T11:30:21Z</time>
      </trkpt>
      <trkpt lat="45.794" lon="4.95711">
        <ele>172</ele>
        <time>2012-03-03T11:30:25Z</time>
      </trkpt>
      <trkpt lat="45.79408" lon="4.9568">
        <ele>176</ele>
        <time>2012-03-03T11:30:29Z</time>
      </trkpt>
      <trkpt lat="45.79424" lon="4.95654">
        <ele>179</ele>
        <time>2012-03-03T11:30:33Z</time>
      </trkpt>
      <trkpt lat="45.79446" lon="4.95637">
        <ele>180</ele>
        <time>2012-03-03T11:30:37Z</time>
      </trkpt>
      <trkpt lat="45.79466" lon="4.9562">
        <ele>181</ele>
        <time>2012-03-03T11:30:41Z</time>
      </trkpt>
      <trkpt lat="45.79485" lon="4.95605">
        <ele>183</ele>
        <time>2012-03-03T11:30:45Z</time>
      </trkpt>
      <trkpt lat="45.79506" lon="4.9559">
        <ele>184</ele>
        <time>2012-03-03T11:30:49Z</time>
      </trkpt>
      <trkpt lat="45.79527" lon="4.95574">
        <ele>185</ele>
        <time>2012-03-03T11:30:53Z</time>
      </trkpt>
      <trkpt lat="45.79546" lon="4.95556">
        <ele>186</ele>
        <time>2012-03-03T11:30:57Z</time>
      </trkpt>
      <trkpt lat="45.79563" lon="4.95535">
        <ele>189</ele>
        <time>2012-03-03T11:31:01Z</time>
      </trkpt>
      <trkpt lat="45.79582" lon="4.95515">
        <ele>190</ele>
        <time>2012-03-03T11:31:05Z</time>
      </trkpt>
      <trkpt lat="45.79595" lon="4.95484">
        <ele>189</ele>
        <time>2012-03-03T11:31:09Z</time>
      </trkpt>
      <trkpt lat="45.79599" lon="4.95451">
        <ele>185</ele>
        <time>2012-03-03T11:31:13Z</time>
      </trkpt>
      <trkpt lat="45.79601" lon="4.95418">
        <ele>184</ele>
        <time>2012-03-03T11:31:17Z</time>
      </trkpt>
      <trkpt lat="45.79601" lon="4.95381">
        <ele>183</ele>
        <time>2012-03-03T11:31:21Z</time>
      </trkpt>
      <trkpt lat="45.79606" lon="4.95345">
        <ele>182</ele>
        <time>2012-03-03T11:31:25Z</time>
      </trkpt>
      <trkpt lat="45.79615" lon="4.95314">
        <ele>184</ele>
        <time>2012-03-03T11:31:29Z</time>
      </trkpt>
      <trkpt lat="45.79635" lon="4.95294">
        <ele>185</ele>
        <time>2012-03-03T11:31:33Z</time>
      </trkpt>
      <trkpt lat="45.79654" lon="4.95277">
        <ele>185</ele>
        <time>2012-03-03T11:31:37Z</time>
      </trkpt>
      <trkpt lat="45.79671" lon="4.95253">
        <ele>185</ele>
        <time>2012-03-03T11:31:41Z</time>
      </trkpt>
      <trkpt lat="45.79682" lon="4.95224">
        <ele>182</ele>
        <time>2012-03-03T11:31:45Z</time>
      </trkpt>
      <trkpt lat="45.79683" lon="4.95188">
        <ele>177</ele>
        <time>2012-03-03T11:31:49Z</time>
      </trkpt>
      <trkpt lat="45.79684" lon="4.95149">
        <ele>173</ele>
        <time>2012-03-03T11:31:53Z</time>
      </trkpt>
      <trkpt lat="45.79692" lon="4.95114">
        <ele>175</ele>
        <time>2012-03-03T11:31:57Z</time>
      </trkpt>
      <trkpt lat="45.79704" lon="4.95084">
        <ele>177</ele>
        <time>2012-03-03T11:32:01Z</time>
      </trkpt>
      <trkpt lat="45.79715" lon="4.95058">
        <ele>181</ele>
        <time>2012-03-03T11:32:05Z</time>
      </trkpt>
      <trkpt lat="45.79728" lon="4.95032">
        <ele>184</ele>
        <time>2012-03-03T11:32:09Z</time>
      </trkpt>
      <trkpt lat="45.79741" lon="4.95006">
        <ele>189</ele>
        <time>2012-03-03T11:32:13Z</time>
      </trkpt>
      <trkpt lat="45.79756" lon="4.9498">
        <ele>188</ele>
        <time>2012-03-03T11:32:17Z</time>
      </trkpt>
      <trkpt lat="45.79771" lon="4.94954">
        <ele>187</ele>
        <time>2012-03-03T11:32:21Z</time>
      </trkpt>
      <trkpt lat="45.79787" lon="4.94927">
        <ele>186</ele>
        <time>2012-03-03T11:32:25Z</time>
      </trkpt>
      <trkpt lat="45.79802" lon="4.94901">
        <ele>186</ele>
        <time>2012-03-03T11:32:29Z</time>
      </trkpt>
      <trkpt lat="45.79815" lon="4.94875">
        <ele>183</ele>
        <time>2012-03-03T11:32:33Z</time>
      </trkpt>
      <trkpt lat="45.7982" lon="4.94845">
        <ele>181</ele>
        <time>2012-03-03T11:32:37Z</time>
      </trkpt>
      <trkpt lat="45.7982" lon="4.94808">
        <ele>181</ele>
        <time>2012-03-03T11:32:41Z</time>
      </trkpt>
      <trkpt lat="45.79818" lon="4.94772">
        <ele>175</ele>
        <time>2012-03-03T11:32:45Z</time>
      </trkpt>
      <trkpt lat="45.79817" lon="4.94738">
        <ele>176</ele>
        <time>2012-03-03T11:32:49Z</time>
      </trkpt>
      <trkpt lat="45.79816" lon="4.94704">
        <ele>174</ele>
        <time>2012-03-03T11:32:53Z</time>
      </trkpt>
      <trkpt lat="45.79816" lon="4.9467">
        <ele>179</ele>
        <time>2012-03-03T11:32:57Z</time>
      </trkpt>
      <trkpt lat="45.79817" lon="4.94637">
        <ele>183</ele>
        <time>2012-03-03T11:33:01Z</time>
      </trkpt>
      <trkpt lat="45.79817" lon="4.94601">
        <ele>186</ele>
        <time>2012-03-03T11:33:05Z</time>
      </trkpt>
      <trkpt lat="45.79816" lon="4.94562">
        <ele>188</ele>
        <time>2012-03-03T11:33:09Z</time>
      </trkpt>
      <trkpt lat="45.79816" lon="4.94526">
        <ele>187</ele>
        <time>2012-03-03T11:33:13Z</time>
      </trkpt>
      <trkpt lat="45.79812" lon="4.94489">
        <ele>186</ele>
        <time>2012-03-03T11:33:17Z</time>
      </trkpt>
      <trkpt lat="45.7981" lon="4.94452">
        <ele>184</ele>
        <time>2012-03-03T11:33:21Z</time>
      </trkpt>
      <trkpt lat="45.79808" lon="4.94416">
        <ele>184</ele>
        <time>2012-03-03T11:33:25Z</time>
      </trkpt>
      <trkpt lat="45.79807" lon="4.94383">
        <ele>185</ele>
        <time>2012-03-03T11:33:29Z</time>
      </trkpt>
      <trkpt lat="45.79807" lon="4.94354">
        <ele>189</ele>
        <time>2012-03-03T11:33:33Z</time>
      </trkpt>
      <trkpt lat="45.79807" lon="4.94318">
        <ele>188</ele>
        <time>2012-03-03T11:33:37Z</time>
      </trkpt>
      <trkpt lat="45.79808" lon="4.9428">
        <ele>182</ele>
        <time>2012-03-03T11:33:41Z</time>
      </trkpt>
      <trkpt lat="45.79809" lon="4.94246">
        <ele>179</ele>
        <time>2012-03-03T11:33:45Z</time>
      </trkpt>
      <trkpt lat="45.79813" lon="4.94218">
        <ele>179</ele>
        <time>2012-03-03T11:33:49Z</time>
      </trkpt>
      <trkpt lat="45.79829" lon="4.94201">
        <ele>185</ele>
        <time>2012-03-03T11:33:53Z</time>
      </trkpt>
      <trkpt lat="45.79844" lon="4.94178">
        <ele>188</ele>
        <time>2012-03-03T11:33:57Z</time>
      </trkpt>
      <trkpt lat="45.7985" lon="4.94153">
        <ele>188</ele>
        <time>2012-03-03T11:34:01Z</time>
      </trkpt>
      <trkpt lat="45.79857" lon="4.94127">
        <ele>190</ele>
        <time>2012-03-03T11:34:05Z</time>
      </trkpt>
      <trkpt lat="45.79863" lon="4.94101">
        <ele>187</ele>
        <time>2012-03-03T11:34:09Z</time>
      </trkpt>
      <trkpt lat="45.79866" lon="4.94089">
        <ele>183</ele>
        <time>2012-03-03T11:34:13Z</time>
      </trkpt>
      <trkpt lat="45.79868" lon="4.94088">
        <ele>179</ele>
        <time>2012-03-03T11:34:17Z</time>
      </trkpt>
      <trkpt lat="45.79869" lon="4.94087">
        <ele>179</ele>
        <time>2012-03-03T11:34:21Z</time>
      </trkpt>
      <trkpt lat="45.79869" lon="4.9409">
        <ele>183</ele>
        <time>2012-03-03T11:34:45Z</time>
      </trkpt>
      <trkpt lat="45.79868" lon="4.94086">
        <ele>188</ele>
        <time>2012-03-03T11:34:49Z</time>
      </trkpt>
      <trkpt lat="45.79863" lon="4.94077">
        <ele>181</ele>
        <time>2012-03-03T11:34:53Z</time>
      </trkpt>
      <trkpt lat="45.79852" lon="4.94063">
        <ele>186</ele>
        <time>2012-03-03T11:34:57Z</time>
      </trkpt>
      <trkpt lat="45.79836" lon="4.94049">
        <ele>188</ele>
        <time>2012-03-03T11:35:01Z</time>
      </trkpt>
      <trkpt lat="45.79818" lon="4.94039">
        <ele>189</ele>
        <time>2012-03-03T11:35:05Z</time>
      </trkpt>
      <trkpt lat="45.79807" lon="4.94015">
        <ele>186</ele>
        <time>2012-03-03T11:35:09Z</time>
      </trkpt>
      <trkpt lat="45.79803" lon="4.93983">
        <ele>184</ele>
        <time>2012-03-03T11:35:13Z</time>
      </trkpt>
      <trkpt lat="45.79799" lon="4.93954">
        <ele>184</ele>
        <time>2012-03-03T11:35:17Z</time>
      </trkpt>
      <trkpt lat="45.79798" lon="4.93925">
        <ele>186</ele>
        <time>2012-03-03T11:35:21Z</time>
      </trkpt>
      <trkpt lat="45.79802" lon="4.93895">
        <ele>187</ele>
        <time>2012-03-03T11:35:25Z</time>
      </trkpt>
      <trkpt lat="45.79808" lon="4.93864">
        <ele>184</ele>
        <time>2012-03-03T11:35:29Z</time>
      </trkpt>
      <trkpt lat="45.7982" lon="4.93837">
        <ele>187</ele>
        <time>2012-03-03T11:35:33Z</time>
      </trkpt>
      <trkpt lat="45.79836" lon="4.93816">
        <ele>188</ele>
        <time>2012-03-03T11:35:37Z</time>
      </trkpt>
      <trkpt lat="45.79856" lon="4.93799">
        <ele>192</ele>
        <time>2012-03-03T11:35:41Z</time>
      </trkpt>
      <trkpt lat="45.79872" lon="4.93788">
        <ele>192</ele>
        <time>2012-03-03T11:35:45Z</time>
      </trkpt>
      <trkpt lat="45.79896" lon="4.93776">
        <ele>190</ele>
        <time>2012-03-03T11:35:49Z</time>
      </trkpt>
      <trkpt lat="45.79922" lon="4.93763">
        <ele>189</ele>
        <time>2012-03-03T11:35:53Z</time>
      </trkpt>
      <trkpt lat="45.79944" lon="4.93754">
        <ele>188</ele>
        <time>2012-03-03T11:35:57Z</time>
      </trkpt>
      <trkpt lat="45.79964" lon="4.93737">
        <ele>192</ele>
        <time>2012-03-03T11:36:01Z</time>
      </trkpt>
      <trkpt lat="45.79985" lon="4.93716">
        <ele>192</ele>
        <time>2012-03-03T11:36:05Z</time>
      </trkpt>
      <trkpt lat="45.80011" lon="4.937">
        <ele>193</ele>
        <time>2012-03-03T11:36:09Z</time>
      </trkpt>
      <trkpt lat="45.80037" lon="4.9369">
        <ele>191</ele>
        <time>2012-03-03T11:36:13Z</time>
      </trkpt>
      <trkpt lat="45.80063" lon="4.93683">
        <ele>185</ele>
        <time>2012-03-03T11:36:17Z</time>
      </trkpt>
      <trkpt lat="45.80084" lon="4.93669">
        <ele>188</ele>
        <time>2012-03-03T11:36:21Z</time>
      </trkpt>
      <trkpt lat="45.80103" lon="4.93655">
        <ele>192</ele>
        <time>2012-03-03T11:36:25Z</time>
      </trkpt>
      <trkpt lat="45.80124" lon="4.93642">
        <ele>194</ele>
        <time>2012-03-03T11:36:29Z</time>
      </trkpt>
      <trkpt lat="45.80145" lon="4.93625">
        <ele>191</ele>
        <time>2012-03-03T11:36:33Z</time>
      </trkpt>
      <trkpt lat="45.80166" lon="4.93608">
        <ele>191</ele>
        <time>2012-03-03T11:36:37Z</time>
      </trkpt>
      <trkpt lat="45.80184" lon="4.93586">
        <ele>188</ele>
        <time>2012-03-03T11:36:41Z</time>
      </trkpt>
      <trkpt lat="45.80202" lon="4.93563">
        <ele>191</ele>
        <time>2012-03-03T11:36:45Z</time>
      </trkpt>
      <trkpt lat="45.8022" lon="4.93536">
        <ele>188</ele>
        <time>2012-03-03T11:36:49Z</time>
      </trkpt>
      <trkpt lat="45.80241" lon="4.93516">
        <ele>185</ele>
        <time>2012-03-03T11:36:53Z</time>
      </trkpt>
      <trkpt lat="45.80261" lon="4.935">
        <ele>184</ele>
        <time>2012-03-03T11:36:57Z</time>
      </trkpt>
      <trkpt lat="45.8028" lon="4.93478">
        <ele>182</ele>
        <time>2012-03-03T11:37:01Z</time>
      </trkpt>
      <trkpt lat="45.80293" lon="4.93451">
        <ele>182</ele>
        <time>2012-03-03T11:37:05Z</time>
      </trkpt>
      <trkpt lat="45.80309" lon="4.93426">
        <ele>187</ele>
        <time>2012-03-03T11:37:09Z</time>
      </trkpt>
      <trkpt lat="45.80316" lon="4.93391">
        <ele>180</ele>
        <time>2012-03-03T11:37:13Z</time>
      </trkpt>
      <trkpt lat="45.80315" lon="4.93354">
        <ele>176</ele>
        <time>2012-03-03T11:37:17Z</time>
      </trkpt>
      <trkpt lat="45.80308" lon="4.93316">
        <ele>173</ele>
        <time>2012-03-03T11:37:21Z</time>
      </trkpt>
      <trkpt lat="45.80304" lon="4.9328">
        <ele>175</ele>
        <time>2012-03-03T11:37:25Z</time>
      </trkpt>
      <trkpt lat="45.80299" lon="4.93241">
        <ele>175</ele>
        <time>2012-03-03T11:37:29Z</time>
      </trkpt>
      <trkpt lat="45.80296" lon="4.93199">
        <ele>179</ele>
        <time>2012-03-03T11:37:33Z</time>
      </trkpt>
      <trkpt lat="45.8029" lon="4.93158">
        <ele>174</ele>
        <time>2012-03-03T11:37:37Z</time>
      </trkpt>
      <trkpt lat="45.80282" lon="4.93118">
        <ele>175</ele>
        <time>2012-03-03T11:37:41Z</time>
      </trkpt>
      <trkpt lat="45.80274" lon="4.93078">
        <ele>173</ele>
        <time>2012-03-03T11:37:45Z</time>
      </trkpt>
      <trkpt lat="45.80268" lon="4.93038">
        <ele>174</ele>
        <time>2012-03-03T11:37:49Z</time>
      </trkpt>
      <trkpt lat="45.80262" lon="4.92998">
        <ele>175</ele>
        <time>2012-03-03T11:37:53Z</time>
      </trkpt>
      <trkpt lat="45.80254" lon="4.9296">
        <ele>179</ele>
        <time>2012-03-03T11:37:57Z</time>
      </trkpt>
      <trkpt lat="45.80244" lon="4.92921">
        <ele>182</ele>
        <time>2012-03-03T11:38:01Z</time>
      </trkpt>
      <trkpt lat="45.80235" lon="4.9288">
        <ele>181</ele>
        <time>2012-03-03T11:38:05Z</time>
      </trkpt>
      <trkpt lat="45.80229" lon="4.92845">
        <ele>180</ele>
        <time>2012-03-03T11:38:09Z</time>
      </trkpt>
      <trkpt lat="45.80224" lon="4.92805">
        <ele>179</ele>
        <time>2012-03-03T11:38:13Z</time>
      </trkpt>
      <trkpt lat="45.80221" lon="4.92758">
        <ele>175</ele>
        <time>2012-03-03T11:38:17Z</time>
      </trkpt>
      <trkpt lat="45.80216" lon="4.92706">
        <ele>170</ele>
        <time>2012-03-03T11:38:21Z</time>
      </trkpt>
      <trkpt lat="45.80206" lon="4.92658">
        <ele>168</ele>
        <time>2012-03-03T11:38:25Z</time>
      </trkpt>
      <trkpt lat="45.80194" lon="4.92616">
        <ele>170</ele>
        <time>2012-03-03T11:38:29Z</time>
      </trkpt>
      <trkpt lat="45.80174" lon="4.9259">
        <ele>171</ele>
        <time>2012-03-03T11:38:33Z</time>
      </trkpt>
      <trkpt lat="45.80147" lon="4.92595">
        <ele>174</ele>
        <time>2012-03-03T11:38:37Z</time>
      </trkpt>
      <trkpt lat="45.8013" lon="4.92626">
        <ele>180</ele>
        <time>2012-03-03T11:38:41Z</time>
      </trkpt>
      <trkpt lat="45.80122" lon="4.9266">
        <ele>185</ele>
        <time>2012-03-03T11:38:45Z</time>
      </trkpt>
      <trkpt lat="45.80104" lon="4.92681">
        <ele>182</ele>
        <time>2012-03-03T11:38:49Z</time>
      </trkpt>
      <trkpt lat="45.80083" lon="4.92692">
        <ele>182</ele>
        <time>2012-03-03T11:38:53Z</time>
      </trkpt>
      <trkpt lat="45.80058" lon="4.92703">
        <ele>182</ele>
        <time>2012-03-03T11:38:57Z</time>
      </trkpt>
      <trkpt lat="45.80032" lon="4.92713">
        <ele>178</ele>
        <time>2012-03-03T11:39:01Z</time>
      </trkpt>
      <trkpt lat="45.80003" lon="4.92718">
        <ele>176</ele>
        <time>2012-03-03T11:39:05Z</time>
      </trkpt>
      <trkpt lat="45.79975" lon="4.92722">
        <ele>174</ele>
        <time>2012-03-03T11:39:09Z</time>
      </trkpt>
      <trkpt lat="45.79947" lon="4.9272">
        <ele>173</ele>
        <time>2012-03-03T11:39:13Z</time>
      </trkpt>
      <trkpt lat="45.79922" lon="4.92714">
        <ele>173</ele>
        <time>2012-03-03T11:39:17Z</time>
      </trkpt>
      <trkpt lat="45.79894" lon="4.92704">
        <ele>172</ele>
        <time>2012-03-03T11:39:21Z</time>
      </trkpt>
      <trkpt lat="45.79866" lon="4.92692">
        <ele>174</ele>
        <time>2012-03-03T11:39:25Z</time>
      </trkpt>
      <trkpt lat="45.79842" lon="4.9268">
        <ele>173</ele>
        <time>2012-03-03T11:39:29Z</time>
      </trkpt>
      <trkpt lat="45.79817" lon="4.92664">
        <ele>175</ele>
        <time>2012-03-03T11:39:33Z</time>
      </trkpt>
      <trkpt lat="45.79795" lon="4.92638">
        <ele>173</ele>
        <time>2012-03-03T11:39:37Z</time>
      </trkpt>
      <trkpt lat="45.79775" lon="4.92612">
        <ele>171</ele>
        <time>2012-03-03T11:39:41Z</time>
      </trkpt>
      <trkpt lat="45.79754" lon="4.92592">
        <ele>176</ele>
        <time>2012-03-03T11:39:45Z</time>
      </trkpt>
      <trkpt lat="45.79729" lon="4.92573">
        <ele>175</ele>
        <time>2012-03-03T11:39:49Z</time>
      </trkpt>
      <trkpt lat="45.79704" lon="4.92559">
        <ele>176</ele>
        <time>2012-03-03T11:39:53Z</time>
      </trkpt>
      <trkpt lat="45.79674" lon="4.92549">
        <ele>172</ele>
        <time>2012-03-03T11:39:57Z</time>
      </trkpt>
      <trkpt lat="45.79645" lon="4.92542">
        <ele>171</ele>
        <time>2012-03-03T11:40:01Z</time>
      </trkpt>
      <trkpt lat="45.79617" lon="4.92533">
        <ele>171</ele>
        <time>2012-03-03T11:40:05Z</time>
      </trkpt>
      <trkpt lat="45.79589" lon="4.92524">
        <ele>172</ele>
        <time>2012-03-03T11:40:09Z</time>
      </trkpt>
      <trkpt lat="45.79561" lon="4.92512">
        <ele>170</ele>
        <time>2012-03-03T11:40:13Z</time>
      </trkpt>
      <trkpt lat="45.79536" lon="4.92496">
        <ele>171</ele>
        <time>2012-03-03T11:40:17Z</time>
      </trkpt>
      <trkpt lat="45.79509" lon="4.92475">
        <ele>168</ele>
        <time>2012-03-03T11:40:21Z</time>
      </trkpt>
      <trkpt lat="45.79487" lon="4.92449">
        <ele>166</ele>
        <time>2012-03-03T11:40:25Z</time>
      </trkpt>
      <trkpt lat="45.79475" lon="4.92418">
        <ele>170</ele>
        <time>2012-03-03T11:40:29Z</time>
      </trkpt>
      <trkpt lat="45.79465" lon="4.92375">
        <ele>173</ele>
        <time>2012-03-03T11:40:33Z</time>
      </trkpt>
      <trkpt lat="45.79453" lon="4.92331">
        <ele>172</ele>
        <time>2012-03-03T11:40:37Z</time>
      </trkpt>
      <trkpt lat="45.79445" lon="4.92292">
        <ele>172</ele>
        <time>2012-03-03T11:40:41Z</time>
      </trkpt>
      <trkpt lat="45.79438" lon="4.92251">
        <ele>175</ele>
        <time>2012-03-03T11:40:45Z</time>
      </trkpt>
      <trkpt lat="45.79432" lon="4.92215">
        <ele>173</ele>
        <time>2012-03-03T11:40:49Z</time>
      </trkpt>
      <trkpt lat="45.79422" lon="4.92178">
        <ele>175</ele>
        <time>2012-03-03T11:40:53Z</time>
      </trkpt>
      <trkpt lat="45.79411" lon="4.92143">
        <ele>179</ele>
        <time>2012-03-03T11:40:57Z</time>
      </trkpt>
      <trkpt lat="45.79401" lon="4.92107">
        <ele>181</ele>
        <time>2012-03-03T11:41:01Z</time>
      </trkpt>
      <trkpt lat="45.79392" lon="4.92069">
        <ele>181</ele>
        <time>2012-03-03T11:41:05Z</time>
      </trkpt>
      <trkpt lat="45.79383" lon="4.92033">
        <ele>184</ele>
        <time>2012-03-03T11:41:09Z</time>
      </trkpt>
      <trkpt lat="45.79374" lon="4.91996">
        <ele>185</ele>
        <time>2012-03-03T11:41:13Z</time>
      </trkpt>
      <trkpt lat="45.79366" lon="4.91956">
        <ele>183</ele>
        <time>2012-03-03T11:41:17Z</time>
      </trkpt>
      <trkpt lat="45.79358" lon="4.91917">
        <ele>181</ele>
        <time>2012-03-03T11:41:21Z</time>
      </trkpt>
      <trkpt lat="45.7935" lon="4.91878">
        <ele>181</ele>
        <time>2012-03-03T11:41:25Z</time>
      </trkpt>
      <trkpt lat="45.79341" lon="4.9184">
        <ele>179</ele>
        <time>2012-03-03T11:41:29Z</time>
      </trkpt>
      <trkpt lat="45.79334" lon="4.91803">
        <ele>182</ele>
        <time>2012-03-03T11:41:33Z</time>
      </trkpt>
      <trkpt lat="45.79324" lon="4.91763">
        <ele>181</ele>
        <time>2012-03-03T11:41:37Z</time>
      </trkpt>
      <trkpt lat="45.79317" lon="4.91726">
        <ele>184</ele>
        <time>2012-03-03T11:41:41Z</time>
      </trkpt>
      <trkpt lat="45.79309" lon="4.91685">
        <ele>179</ele>
        <time>2012-03-03T11:41:45Z</time>
      </trkpt>
      <trkpt lat="45.79302" lon="4.91645">
        <ele>176</ele>
        <time>2012-03-03T11:41:49Z</time>
      </trkpt>
      <trkpt lat="45.79293" lon="4.91609">
        <ele>178</ele>
        <time>2012-03-03T11:41:53Z</time>
      </trkpt>
      <trkpt lat="45.79285" lon="4.91573">
        <ele>175</ele>
        <time>2012-03-03T11:41:57Z</time>
      </trkpt>
      <trkpt lat="45.79275" lon="4.91533">
        <ele>175</ele>
        <time>2012-03-03T11:42:01Z</time>
      </trkpt>
      <trkpt lat="45.79267" lon="4.91498">
        <ele>177</ele>
        <time>2012-03-03T11:42:05Z</time>
      </trkpt>
      <trkpt lat="45.79258" lon="4.91462">
        <ele>176</ele>
        <time>2012-03-03T11:42:09Z</time>
      </trkpt>
      <trkpt lat="45.7925" lon="4.91427">
        <ele>176</ele>
        <time>2012-03-03T11:42:13Z</time>
      </trkpt>
      <trkpt lat="45.7924" lon="4.91387">
        <ele>179</ele>
        <time>2012-03-03T11:42:17Z</time>
      </trkpt>
      <trkpt lat="45.7923" lon="4.91348">
        <ele>180</ele>
        <time>2012-03-03T11:42:21Z</time>
      </trkpt>
      <trkpt lat="45.79222" lon="4.91311">
        <ele>182</ele>
        <time>2012-03-03T11:42:25Z</time>
      </trkpt>
      <trkpt lat="45.79213" lon="4.91276">
        <ele>184</ele>
        <time>2012-03-03T11:42:29Z</time>
      </trkpt>
      <trkpt lat="45.79206" lon="4.91241">
        <ele>185</ele>
        <time>2012-03-03T11:42:33Z</time>
      </trkpt>
      <trkpt lat="45.79196" lon="4.91207">
        <ele>184</ele>
        <time>2012-03-03T11:42:37Z</time>
      </trkpt>
      <trkpt lat="45.79186" lon="4.91168">
        <ele>182</ele>
        <time>2012-03-03T11:42:41Z</time>
      </trkpt>
      <trkpt lat="45.79178" lon="4.91129">
        <ele>185</ele>
        <time>2012-03-03T11:42:45Z</time>
      </trkpt>
      <trkpt lat="45.79167" lon="4.9109">
        <ele>184</ele>
        <time>2012-03-03T11:42:49Z</time>
      </trkpt>
      <trkpt lat="45.79158" lon="4.91052">
        <ele>184</ele>
        <time>2012-03-03T11:42:53Z</time>
      </trkpt>
      <trkpt lat="45.79149" lon="4.91011">
        <ele>182</ele>
        <time>2012-03-03T11:42:57Z</time>
      </trkpt>
      <trkpt lat="45.7914" lon="4.90971">
        <ele>182</ele>
        <time>2012-03-03T11:43:01Z</time>
      </trkpt>
      <trkpt lat="45.79131" lon="4.90933">
        <ele>179</ele>
        <time>2012-03-03T11:43:05Z</time>
      </trkpt>
      <trkpt lat="45.79123" lon="4.90893">
        <ele>183</ele>
        <time>2012-03-03T11:43:09Z</time>
      </trkpt>
      <trkpt lat="45.79117" lon="4.90856">
        <ele>183</ele>
        <time>2012-03-03T11:43:13Z</time>
      </trkpt>
      <trkpt lat="45.79112" lon="4.90816">
        <ele>182</ele>
        <time>2012-03-03T11:43:17Z</time>
      </trkpt>
      <trkpt lat="45.7911" lon="4.90776">
        <ele>183</ele>
        <time>2012-03-03T11:43:21Z</time>
      </trkpt>
      <trkpt lat="45.79112" lon="4.90733">
        <ele>181</ele>
        <time>2012-03-03T11:43:25Z</time>
      </trkpt>
      <trkpt lat="45.79114" lon="4.90694">
        <ele>185</ele>
        <time>2012-03-03T11:43:29Z</time>
      </trkpt>
      <trkpt lat="45.79116" lon="4.90655">
        <ele>185</ele>
        <time>2012-03-03T11:43:33Z</time>
      </trkpt>
      <trkpt lat="45.7912" lon="4.90615">
        <ele>184</ele>
        <time>2012-03-03T11:43:37Z</time>
      </trkpt>
      <trkpt lat="45.79125" lon="4.90573">
        <ele>184</ele>
        <time>2012-03-03T11:43:41Z</time>
      </trkpt>
      <trkpt lat="45.79129" lon="4.90536">
        <ele>183</ele>
        <time>2012-03-03T11:43:45Z</time>
      </trkpt>
      <trkpt lat="45.79132" lon="4.90497">
        <ele>182</ele>
        <time>2012-03-03T11:43:49Z</time>
      </trkpt>
      <trkpt lat="45.79133" lon="4.90458">
        <ele>184</ele>
        <time>2012-03-03T11:43:53Z</time>
      </trkpt>
      <trkpt lat="45.79129" lon="4.90415">
        <ele>182</ele>
        <time>2012-03-03T11:43:57Z</time>
      </trkpt>
      <trkpt lat="45.79121" lon="4.90372">
        <ele>177</ele>
        <time>2012-03-03T11:44:01Z</time>
      </trkpt>
      <trkpt lat="45.7911" lon="4.90333">
        <ele>178</ele>
        <time>2012-03-03T11:44:05Z</time>
      </trkpt>
      <trkpt lat="45.79098" lon="4.90298">
        <ele>180</ele>
        <time>2012-03-03T11:44:09Z</time>
      </trkpt>
      <trkpt lat="45.79081" lon="4.90267">
        <ele>181</ele>
        <time>2012-03-03T11:44:13Z</time>
      </trkpt>
      <trkpt lat="45.79063" lon="4.90237">
        <ele>181</ele>
        <time>2012-03-03T11:44:17Z</time>
      </trkpt>
      <trkpt lat="45.79037" lon="4.90217">
        <ele>178</ele>
        <time>2012-03-03T11:44:21Z</time>
      </trkpt>
      <trkpt lat="45.79012" lon="4.90192">
        <ele>176</ele>
        <time>2012-03-03T11:44:25Z</time>
      </trkpt>
      <trkpt lat="45.78991" lon="4.90162">
        <ele>174</ele>
        <time>2012-03-03T11:44:29Z</time>
      </trkpt>
      <trkpt lat="45.78973" lon="4.90126">
        <ele>174</ele>
        <time>2012-03-03T11:44:33Z</time>
      </trkpt>
      <trkpt lat="45.78958" lon="4.90091">
        <ele>174</ele>
        <time>2012-03-03T11:44:37Z</time>
      </trkpt>
      <trkpt lat="45.78946" lon="4.90057">
        <ele>176</ele>
        <time>2012-03-03T11:44:41Z</time>
      </trkpt>
      <trkpt lat="45.78933" lon="4.90025">
        <ele>179</ele>
        <time>2012-03-03T11:44:45Z</time>
      </trkpt>
      <trkpt lat="45.78922" lon="4.89991">
        <ele>178</ele>
        <time>2012-03-03T11:44:49Z</time>
      </trkpt>
      <trkpt lat="45.78915" lon="4.89952">
        <ele>176</ele>
        <time>2012-03-03T11:44:53Z</time>
      </trkpt>
      <trkpt lat="45.78907" lon="4.89914">
        <ele>181</ele>
        <time>2012-03-03T11:44:57Z</time>
      </trkpt>
      <trkpt lat="45.78898" lon="4.89876">
        <ele>181</ele>
        <time>2012-03-03T11:45:01Z</time>
      </trkpt>
      <trkpt lat="45.78889" lon="4.89836">
        <ele>176</ele>
        <time>2012-03-03T11:45:05Z</time>
      </trkpt>
      <trkpt lat="45.78879" lon="4.89794">
        <ele>179</ele>
        <time>2012-03-03T11:45:09Z</time>
      </trkpt>
      <trkpt lat="45.78871" lon="4.89756">
        <ele>181</ele>
        <time>2012-03-03T11:45:13Z</time>
      </trkpt>
      <trkpt lat="45.78869" lon="4.89716">
        <ele>181</ele>
        <time>2012-03-03T11:45:17Z</time>
      </trkpt>
      <trkpt lat="45.78875" lon="4.89675">
        <ele>180</ele>
        <time>2012-03-03T11:45:21Z</time>
      </trkpt>
      <trkpt lat="45.78883" lon="4.89638">
        <ele>180</ele>
        <time>2012-03-03T11:45:25Z</time>
      </trkpt>
      <trkpt lat="45.78894" lon="4.89602">
        <ele>181</ele>
        <time>2012-03-03T11:45:29Z</time>
      </trkpt>
      <trkpt lat="45.78887" lon="4.89567">
        <ele>179</ele>
        <time>2012-03-03T11:45:33Z</time>
      </trkpt>
      <trkpt lat="45.78871" lon="4.89531">
        <ele>175</ele>
        <time>2012-03-03T11:45:37Z</time>
      </trkpt>
      <trkpt lat="45.78852" lon="4.89496">
        <ele>174</ele>
        <time>2012-03-03T11:45:41Z</time>
      </trkpt>
      <trkpt lat="45.78835" lon="4.89456">
        <ele>173</ele>
        <time>2012-03-03T11:45:45Z</time>
      </trkpt>
      <trkpt lat="45.78816" lon="4.89417">
        <ele>172</ele>
        <time>2012-03-03T11:45:49Z</time>
      </trkpt>
      <trkpt lat="45.78801" lon="4.89378">
        <ele>178</ele>
        <time>2012-03-03T11:45:53Z</time>
      </trkpt>
      <trkpt lat="45.78787" lon="4.89335">
        <ele>172</ele>
        <time>2012-03-03T11:45:57Z</time>
      </trkpt>
      <trkpt lat="45.78776" lon="4.89296">
        <ele>173</ele>
        <time>2012-03-03T11:46:01Z</time>
      </trkpt>
      <trkpt lat="45.78767" lon="4.89252">
        <ele>171</ele>
        <time>2012-03-03T11:46:05Z</time>
      </trkpt>
      <trkpt lat="45.78762" lon="4.89216">
        <ele>168</ele>
        <time>2012-03-03T11:46:09Z</time>
      </trkpt>
      <trkpt lat="45.78748" lon="4.89196">
        <ele>172</ele>
        <time>2012-03-03T11:46:13Z</time>
      </trkpt>
      <trkpt lat="45.78739" lon="4.89205">
        <ele>176</ele>
        <time>2012-03-03T11:46:17Z</time>
      </trkpt>
      <trkpt lat="45.78721" lon="4.8923">
        <ele>184</ele>
        <time>2012-03-03T11:46:21Z</time>
      </trkpt>
      <trkpt lat="45.78698" lon="4.8925">
        <ele>185</ele>
        <time>2012-03-03T11:46:25Z</time>
      </trkpt>
      <trkpt lat="45.7868" lon="4.89263">
        <ele>191</ele>
        <time>2012-03-03T11:46:29Z</time>
      </trkpt>
      <trkpt lat="45.78661" lon="4.89276">
        <ele>187</ele>
        <time>2012-03-03T11:46:33Z</time>
      </trkpt>
      <trkpt lat="45.78644" lon="4.89289">
        <ele>180</ele>
        <time>2012-03-03T11:46:37Z</time>
      </trkpt>
      <trkpt lat="45.78622" lon="4.89312">
        <ele>182</ele>
        <time>2012-03-03T11:46:41Z</time>
      </trkpt>
      <trkpt lat="45.78599" lon="4.89328">
        <ele>177</ele>
        <time>2012-03-03T11:46:45Z</time>
      </trkpt>
      <trkpt lat="45.78576" lon="4.8934">
        <ele>174</ele>
        <time>2012-03-03T11:46:49Z</time>
      </trkpt>
      <trkpt lat="45.78554" lon="4.89351">
        <ele>173</ele>
        <time>2012-03-03T11:46:53Z</time>
      </trkpt>
      <trkpt lat="45.78531" lon="4.89363">
        <ele>171</ele>
        <time>2012-03-03T11:46:57Z</time>
      </trkpt>
      <trkpt lat="45.78509" lon="4.89376">
        <ele>169</ele>
        <time>2012-03-03T11:47:01Z</time>
      </trkpt>
      <trkpt lat="45.78485" lon="4.89386">
        <ele>167</ele>
        <time>2012-03-03T11:47:05Z</time>
      </trkpt>
      <trkpt lat="45.78464" lon="4.89397">
        <ele>172</ele>
        <time>2012-03-03T11:47:09Z</time>
      </trkpt>
      <trkpt lat="45.78446" lon="4.89405">
        <ele>174</ele>
        <time>2012-03-03T11:47:13Z</time>
      </trkpt>
      <trkpt lat="45.78428" lon="4.89413">
        <ele>174</ele>
        <time>2012-03-03T11:47:17Z</time>
      </trkpt>
      <trkpt lat="45.7842" lon="4.89431">
        <ele>175</ele>
        <time>2012-03-03T11:47:21Z</time>
      </trkpt>
      <trkpt lat="45.78425" lon="4.89457">
        <ele>180</ele>
        <time>2012-03-03T11:47:25Z</time>
      </trkpt>
      <trkpt lat="45.78434" lon="4.89482">
        <ele>182</ele>
        <time>2012-03-03T11:47:29Z</time>
      </trkpt>
      <trkpt lat="45.78437" lon="4.89502">
        <ele>180</ele>
        <time>2012-03-03T11:47:33Z</time>
      </trkpt>
      <trkpt lat="45.78443" lon="4.89525">
        <ele>182</ele>
        <time>2012-03-03T11:47:37Z</time>
      </trkpt>
      <trkpt lat="45.78441" lon="4.89538">
        <ele>178</ele>
        <time>2012-03-03T11:47:41Z</time>
      </trkpt>
      <trkpt lat="45.7843" lon="4.8952">
        <ele>170</ele>
        <time>2012-03-03T11:47:45Z</time>
      </trkpt>
      <trkpt lat="45.78418" lon="4.89491">
        <ele>171</ele>
        <time>2012-03-03T11:47:49Z</time>
      </trkpt>
      <trkpt lat="45.78408" lon="4.89464">
        <ele>173</ele>
        <time>2012-03-03T11:47:53Z</time>
      </trkpt>
      <trkpt lat="45.78402" lon="4.89442">
        <ele>176</ele>
        <time>2012-03-03T11:47:57Z</time>
      </trkpt>
      <trkpt lat="45.78395" lon="4.89416">
        <ele>179</ele>
        <time>2012-03-03T11:48:01Z</time>
      </trkpt>
      <trkpt lat="45.78388" lon="4.89388">
        <ele>179</ele>
        <time>2012-03-03T11:48:05Z</time>
      </trkpt>
      <trkpt lat="45.78381" lon="4.89361">
        <ele>178</ele>
        <time>2012-03-03T11:48:09Z</time>
      </trkpt>
      <trkpt lat="45.78374" lon="4.89332">
        <ele>177</ele>
        <time>2012-03-03T11:48:13Z</time>
      </trkpt>
      <trkpt lat="45.78367" lon="4.89303">
        <ele>177</ele>
        <time>2012-03-03T11:48:17Z</time>
      </trkpt>
      <trkpt lat="45.7836" lon="4.8927">
        <ele>175</ele>
        <time>2012-03-03T11:48:21Z</time>
      </trkpt>
      <trkpt lat="45.78358" lon="4.89235">
        <ele>177</ele>
        <time>2012-03-03T11:48:25Z</time>
      </trkpt>
      <trkpt lat="45.78371" lon="4.89205">
        <ele>181</ele>
        <time>2012-03-03T11:48:29Z</time>
      </trkpt>
      <trkpt lat="45.78388" lon="4.89187">
        <ele>182</ele>
        <time>2012-03-03T11:48:33Z</time>
      </trkpt>
      <trkpt lat="45.78405" lon="4.89173">
        <ele>187</ele>
        <time>2012-03-03T11:48:37Z</time>
      </trkpt>
      <trkpt lat="45.78423" lon="4.89163">
        <ele>189</ele>
        <time>2012-03-03T11:48:41Z</time>
      </trkpt>
      <trkpt lat="45.78418" lon="4.89181">
        <ele>186</ele>
        <time>2012-03-03T11:48:45Z</time>
      </trkpt>
      <trkpt lat="45.78396" lon="4.89202">
        <ele>178</ele>
        <time>2012-03-03T11:48:49Z</time>
      </trkpt>
      <trkpt lat="45.78376" lon="4.89192">
        <ele>174</ele>
        <time>2012-03-03T11:48:53Z</time>
      </trkpt>
      <trkpt lat="45.78356" lon="4.89175">
        <ele>178</ele>
        <time>2012-03-03T11:48:57Z</time>
      </trkpt>
      <trkpt lat="45.78339" lon="4.8916">
        <ele>181</ele>
        <time>2012-03-03T11:49:01Z</time>
      </trkpt>
      <trkpt lat="45.7832" lon="4.89126">
        <ele>180</ele>
        <time>2012-03-03T11:49:05Z</time>
      </trkpt>
      <trkpt lat="45.78307" lon="4.89099">
        <ele>177</ele>
        <time>2012-03-03T11:49:09Z</time>
      </trkpt>
      <trkpt lat="45.78295" lon="4.89069">
        <ele>174</ele>
        <time>2012-03-03T11:49:13Z</time>
      </trkpt>
      <trkpt lat="45.7829" lon="4.89032">
        <ele>173</ele>
        <time>2012-03-03T11:49:17Z</time>
      </trkpt>
      <trkpt lat="45.7828" lon="4.88996">
        <ele>175</ele>
        <time>2012-03-03T11:49:21Z</time>
      </trkpt>
      <trkpt lat="45.78268" lon="4.8896">
        <ele>172</ele>
        <time>2012-03-03T11:49:25Z</time>
      </trkpt>
      <trkpt lat="45.78257" lon="4.88925">
        <ele>172</ele>
        <time>2012-03-03T11:49:29Z</time>
      </trkpt>
      <trkpt lat="45.78247" lon="4.88892">
        <ele>175</ele>
        <time>2012-03-03T11:49:33Z</time>
      </trkpt>
      <trkpt lat="45.78236" lon="4.88861">
        <ele>179</ele>
        <time>2012-03-03T11:49:37Z</time>
      </trkpt>
      <trkpt lat="45.78225" lon="4.88831">
        <ele>178</ele>
        <time>2012-03-03T11:49:41Z</time>
      </trkpt>
      <trkpt lat="45.78215" lon="4.88808">
        <ele>181</ele>
        <time>2012-03-03T11:49:45Z</time>
      </trkpt>
      <trkpt lat="45.78207" lon="4.88789">
        <ele>181</ele>
        <time>2012-03-03T11:49:49Z</time>
      </trkpt>
      <trkpt lat="45.782" lon="4.88769">
        <ele>179</ele>
        <time>2012-03-03T11:49:53Z</time>
      </trkpt>
      <trkpt lat="45.78195" lon="4.8875">
        <ele>174</ele>
        <time>2012-03-03T11:49:57Z</time>
      </trkpt>
      <trkpt lat="45.78188" lon="4.88724">
        <ele>171</ele>
        <time>2012-03-03T11:50:01Z</time>
      </trkpt>
      <trkpt lat="45.78181" lon="4.88697">
        <ele>174</ele>
        <time>2012-03-03T11:50:05Z</time>
      </trkpt>
      <trkpt lat="45.78172" lon="4.88669">
        <ele>177</ele>
        <time>2012-03-03T11:50:09Z</time>
      </trkpt>
      <trkpt lat="45.78165" lon="4.88638">
        <ele>184</ele>
        <time>2012-03-03T11:50:13Z</time>
      </trkpt>
      <trkpt lat="45.78154" lon="4.88609">
        <ele>180</ele>
        <time>2012-03-03T11:50:17Z</time>
      </trkpt>
      <trkpt lat="45.78145" lon="4.88581">
        <ele>177</ele>
        <time>2012-03-03T11:50:21Z</time>
      </trkpt>
      <trkpt lat="45.78135" lon="4.8855">
        <ele>177</ele>
        <time>2012-03-03T11:50:25Z</time>
      </trkpt>
      <trkpt lat="45.78127" lon="4.88523">
        <ele>175</ele>
        <time>2012-03-03T11:50:29Z</time>
      </trkpt>
      <trkpt lat="45.78118" lon="4.88495">
        <ele>177</ele>
        <time>2012-03-03T11:50:33Z</time>
      </trkpt>
      <trkpt lat="45.78108" lon="4.88463">
        <ele>182</ele>
        <time>2012-03-03T11:50:37Z</time>
      </trkpt>
      <trkpt lat="45.78099" lon="4.8843">
        <ele>177</ele>
        <time>2012-03-03T11:50:41Z</time>
      </trkpt>
      <trkpt lat="45.78088" lon="4.88391">
        <ele>175</ele>
        <time>2012-03-03T11:50:45Z</time>
      </trkpt>
      <trkpt lat="45.78074" lon="4.8836">
        <ele>173</ele>
        <time>2012-03-03T11:50:49Z</time>
      </trkpt>
      <trkpt lat="45.78058" lon="4.8833">
        <ele>173</ele>
        <time>2012-03-03T11:50:53Z</time>
      </trkpt>
      <trkpt lat="45.78042" lon="4.883">
        <ele>173</ele>
        <time>2012-03-03T11:50:57Z</time>
      </trkpt>
      <trkpt lat="45.78027" lon="4.88268">
        <ele>171</ele>
        <time>2012-03-03T11:51:01Z</time>
      </trkpt>
      <trkpt lat="45.78016" lon="4.88235">
        <ele>172</ele>
        <time>2012-03-03T11:51:05Z</time>
      </trkpt>
      <trkpt lat="45.78008" lon="4.88203">
        <ele>184</ele>
        <time>2012-03-03T11:51:09Z</time>
      </trkpt>
      <trkpt lat="45.77992" lon="4.88173">
        <ele>177</ele>
        <time>2012-03-03T11:51:13Z</time>
      </trkpt>
      <trkpt lat="45.77976" lon="4.88148">
        <ele>179</ele>
        <time>2012-03-03T11:51:17Z</time>
      </trkpt>
      <trkpt lat="45.77957" lon="4.8812">
        <ele>175</ele>
        <time>2012-03-03T11:51:21Z</time>
      </trkpt>
      <trkpt lat="45.7794" lon="4.88093">
        <ele>175</ele>
        <time>2012-03-03T11:51:25Z</time>
      </trkpt>
      <trkpt lat="45.77924" lon="4.88066">
        <ele>174</ele>
        <time>2012-03-03T11:51:29Z</time>
      </trkpt>
      <trkpt lat="45.77908" lon="4.88044">
        <ele>182</ele>
        <time>2012-03-03T11:51:33Z</time>
      </trkpt>
      <trkpt lat="45.77889" lon="4.88022">
        <ele>181</ele>
        <time>2012-03-03T11:51:37Z</time>
      </trkpt>
      <trkpt lat="45.77874" lon="4.88002">
        <ele>174</ele>
        <time>2012-03-03T11:51:41Z</time>
      </trkpt>
      <trkpt lat="45.77863" lon="4.87985">
        <ele>177</ele>
        <time>2012-03-03T11:51:45Z</time>
      </trkpt>
      <trkpt lat="45.77858" lon="4.87966">
        <ele>182</ele>
        <time>2012-03-03T11:51:49Z</time>
      </trkpt>
      <trkpt lat="45.77845" lon="4.87948">
        <ele>187</ele>
        <time>2012-03-03T11:51:53Z</time>
      </trkpt>
      <trkpt lat="45.77834" lon="4.87923">
        <ele>184</ele>
        <time>2012-03-03T11:51:57Z</time>
      </trkpt>
      <trkpt lat="45.77822" lon="4.87897">
        <ele>183</ele>
        <time>2012-03-03T11:52:01Z</time>
      </trkpt>
      <trkpt lat="45.77805" lon="4.87872">
        <ele>182</ele>
        <time>2012-03-03T11:52:05Z</time>
      </trkpt>
      <trkpt lat="45.77787" lon="4.8785">
        <ele>181</ele>
        <time>2012-03-03T11:52:09Z</time>
      </trkpt>
      <trkpt lat="45.77774" lon="4.8782">
        <ele>186</ele>
        <time>2012-03-03T11:52:13Z</time>
      </trkpt>
      <trkpt lat="45.77763" lon="4.87788">
        <ele>184</ele>
        <time>2012-03-03T11:52:17Z</time>
      </trkpt>
      <trkpt lat="45.77751" lon="4.87758">
        <ele>181</ele>
        <time>2012-03-03T11:52:21Z</time>
      </trkpt>
      <trkpt lat="45.77735" lon="4.87732">
        <ele>185</ele>
        <time>2012-03-03T11:52:25Z</time>
      </trkpt>
      <trkpt lat="45.7772" lon="4.87707">
        <ele>181</ele>
        <time>2012-03-03T11:52:29Z</time>
      </trkpt>
      <trkpt lat="45.77701" lon="4.87684">
        <ele>184</ele>
        <time>2012-03-03T11:52:33Z</time>
      </trkpt>
      <trkpt lat="45.77686" lon="4.87653">
        <ele>179</ele>
        <time>2012-03-03T11:52:37Z</time>
      </trkpt>
      <trkpt lat="45.77679" lon="4.87622">
        <ele>175</ele>
        <time>2012-03-03T11:52:41Z</time>
      </trkpt>
      <trkpt lat="45.77676" lon="4.87588">
        <ele>181</ele>
        <time>2012-03-03T11:52:45Z</time>
      </trkpt>
      <trkpt lat="45.77673" lon="4.87556">
        <ele>180</ele>
        <time>2012-03-03T11:52:49Z</time>
      </trkpt>
      <trkpt lat="45.7767" lon="4.87522">
        <ele>184</ele>
        <time>2012-03-03T11:52:53Z</time>
      </trkpt>
      <trkpt lat="45.77668" lon="4.8749">
        <ele>186</ele>
        <time>2012-03-03T11:52:57Z</time>
      </trkpt>
      <trkpt lat="45.77665" lon="4.8746">
        <ele>183</ele>
        <time>2012-03-03T11:53:01Z</time>
      </trkpt>
      <trkpt lat="45.77663" lon="4.87423">
        <ele>182</ele>
        <time>2012-03-03T11:53:05Z</time>
      </trkpt>
      <trkpt lat="45.77655" lon="4.87387">
        <ele>179</ele>
        <time>2012-03-03T11:53:09Z</time>
      </trkpt>
      <trkpt lat="45.77649" lon="4.87348">
        <ele>179</ele>
        <time>2012-03-03T11:53:13Z</time>
      </trkpt>
      <trkpt lat="45.77644" lon="4.87312">
        <ele>178</ele>
        <time>2012-03-03T11:53:17Z</time>
      </trkpt>
      <trkpt lat="45.77638" lon="4.87274">
        <ele>177</ele>
        <time>2012-03-03T11:53:21Z</time>
      </trkpt>
      <trkpt lat="45.77633" lon="4.87239">
        <ele>180</ele>
        <time>2012-03-03T11:53:25Z</time>
      </trkpt>
      <trkpt lat="45.77626" lon="4.87201">
        <ele>179</ele>
        <time>2012-03-03T11:53:29Z</time>
      </trkpt>
      <trkpt lat="45.77618" lon="4.87162">
        <ele>178</ele>
        <time>2012-03-03T11:53:33Z</time>
      </trkpt>
      <trkpt lat="45.77615" lon="4.87126">
        <ele>178</ele>
        <time>2012-03-03T11:53:37Z</time>
      </trkpt>
      <trkpt lat="45.77609" lon="4.87085">
        <ele>176</ele>
        <time>2012-03-03T11:53:41Z</time>
      </trkpt>
      <trkpt lat="45.7759" lon="4.87055">
        <ele>177</ele>
        <time>2012-03-03T11:53:45Z</time>
      </trkpt>
      <trkpt lat="45.77571" lon="4.87023">
        <ele>173</ele>
        <time>2012-03-03T11:53:49Z</time>
      </trkpt>
      <trkpt lat="45.77551" lon="4.86994">
        <ele>172</ele>
        <time>2012-03-03T11:53:53Z</time>
      </trkpt>
      <trkpt lat="45.77528" lon="4.8697">
        <ele>170</ele>
        <time>2012-03-03T11:53:57Z</time>
      </trkpt>
      <trkpt lat="45.77507" lon="4.86942">
        <ele>167</ele>
        <time>2012-03-03T11:54:01Z</time>
      </trkpt>
      <trkpt lat="45.77489" lon="4.86911">
        <ele>168</ele>
        <time>2012-03-03T11:54:05Z</time>
      </trkpt>
      <trkpt lat="45.77472" lon="4.8688">
        <ele>170</ele>
        <time>2012-03-03T11:54:09Z</time>
      </trkpt>
      <trkpt lat="45.77454" lon="4.86851">
        <ele>170</ele>
        <time>2012-03-03T11:54:13Z</time>
      </trkpt>
      <trkpt lat="45.77436" lon="4.86823">
        <ele>170</ele>
        <time>2012-03-03T11:54:17Z</time>
      </trkpt>
      <trkpt lat="45.77428" lon="4.86796">
        <ele>169</ele>
        <time>2012-03-03T11:54:21Z</time>
      </trkpt>
      <trkpt lat="45.77416" lon="4.86774">
        <ele>172</ele>
        <time>2012-03-03T11:54:25Z</time>
      </trkpt>
      <trkpt lat="45.77402" lon="4.86747">
        <ele>174</ele>
        <time>2012-03-03T11:54:29Z</time>
      </trkpt>
      <trkpt lat="45.7738" lon="4.86721">
        <ele>174</ele>
        <time>2012-03-03T11:54:33Z</time>
      </trkpt>
      <trkpt lat="45.77356" lon="4.86692">
        <ele>173</ele>
        <time>2012-03-03T11:54:37Z</time>
      </trkpt>
      <trkpt lat="45.77334" lon="4.86663">
        <ele>171</ele>
        <time>2012-03-03T11:54:41Z</time>
      </trkpt>
      <trkpt lat="45.77311" lon="4.86634">
        <ele>169</ele>
        <time>2012-03-03T11:54:45Z</time>
      </trkpt>
      <trkpt lat="45.7729" lon="4.86607">
        <ele>167</ele>
        <time>2012-03-03T11:54:49Z</time>
      </trkpt>
      <trkpt lat="45.77266" lon="4.8659">
        <ele>170</ele>
        <time>2012-03-03T11:54:53Z</time>
      </trkpt>
      <trkpt lat="45.77251" lon="4.86591">
        <ele>182</ele>
        <time>2012-03-03T11:55:01Z</time>
      </trkpt>
      <trkpt lat="45.77239" lon="4.86592">
        <ele>182</ele>
        <time>2012-03-03T11:55:05Z</time>
      </trkpt>
      <trkpt lat="45.77213" lon="4.86618">
        <ele>193</ele>
        <time>2012-03-03T11:55:09Z</time>
      </trkpt>
      <trkpt lat="45.77192" lon="4.86633">
        <ele>197</ele>
        <time>2012-03-03T11:55:13Z</time>
      </trkpt>
    </trkseg>
  </trk>
</gpx>